     2              OBSERVATION DATA    GPS                 RINEX VERSION / TYPE
ASRINEXO V2.9.7 UX USGS/MENLO_PARK 25-MAY-01 15:04          PGM / RUN BY / DATE
                                                            COMMENT
BIT 2 OF LLI (+4) FLAGS DATA COLLECTED UNDER "AS" CONDITION COMMENT
BIT 2 OF LLI (+4) FLAGS DATA COLLECTED UNDER "AS" CONDITION COMMENT
BIT 2 OF LLI (+4) FLAGS DATA COLLECTED UNDER "AS" CONDITION COMMENT
BIT 2 OF LLI (+4) FLAGS DATA COLLECTED UNDER "AS" CONDITION COMMENT
BIT 2 OF LLI (+4) FLAGS DATA COLLECTED UNDER "AS" CONDITION COMMENT
BIT 2 OF LLI (+4) FLAGS DATA COLLECTED UNDER "AS" CONDITION COMMENT
BIT 2 OF LLI (+4) FLAGS DATA COLLECTED UNDER "AS" CONDITION COMMENT
BIT 2 OF LLI (+4) FLAGS DATA COLLECTED UNDER "AS" CONDITION COMMENT
Original Marker Name: almo Almond_1932_USC&GS               COMMENT
Campaign Name: USGS-Parkfield                               COMMENT
4-Character Station Name: ALMO                              COMMENT
6-Character Antenna Code: DMRCHT                            COMMENT
Vertical Measurement Point: BCR                             COMMENT
Vertical Offset to Rinex Ref. Point: 0.0348                 COMMENT
Radial Measurement Point: ECF                               COMMENT
Radial Offset to Rinex Ref. Point: 0.1897                   COMMENT
Antenna Height from Field Measurement: 1.4700 m             COMMENT
Additional Antenna Identification Info.:                    COMMENT
Turborogue and Ashtech Choke Ring                           COMMENT
Original XYZ: -2633243.3758 -4478748.7806 3688152.4518      COMMENT
New XYZ position is based on association with SCEC monument COMMENT
E1F1B4M0+0011. Position of that monument is believed to be  COMMENT
valid to within 1 m horizontally; vertical accuracy         COMMENT
should be no worse than 3-times this value.                 COMMENT
                                                            COMMENT
Revised Rinex header created by UCSD GPS archive for        COMMENT
GSAC on 18-Oct-2001 (2001:291) 15:00:37 GMT                 COMMENT
For assistance contact dagnew@ucsd.edu                      COMMENT
or anderson@python.ucsd.edu                                 COMMENT
                                                            COMMENT
ALMOND_1932                                                 MARKER NAME
CHS US GEOLOGICAL SURVEY                                    OBSERVER / AGENCY
LP019992809 ASHTECH Z-XII3 CD00                             REC # / TYPE / VERS
CR14341 DORNE-MARGOL. TYPE T                                ANT # / TYPE
 -2633234.7643 -4478725.8851  3688126.6635                  APPROX POSITION XYZ
        1.4229        0.0000        0.0000                  ANTENNA: DELTA H/E/N
     1     1     0                                          WAVELENGTH FACT L1/2
     5    C1    L1    L2    P1    P2                        # / TYPES OF OBSERV
    30                                                      INTERVAL
  2001     5    15     0     1    0.000000                  TIME OF FIRST OBS
  2001     5    15    23    59    0.000000                  TIME OF LAST OBS
                                                            END OF HEADER
 01  5 15  0  1  0.0000000  0 10 17 15 09 18 31 14 23 21 03 29
  22776706.244     9389987.534 8   7320682.18946  22776705.795    22776713.7654
  21453335.041     -912913.774 9   -703541.58847  21453334.396    21453341.0364
  23639229.984    -7951217.226 8  -6013394.39445  23639229.812    23639237.1094
  21824846.407     1841978.139 9   1445131.00347  21824846.093    21824850.9264
  22588021.464   -11171502.714 8  -8687409.42246  22588020.918    22588027.4024
  20861836.025   -23918093.082 9 -18595452.68747  20861835.652    20861840.7364
  22662090.250     7176356.348 8   5599768.12146  22662089.752    22662096.2984
  21027215.469   -20334036.797 9 -15822356.85847  21027215.012    21027220.8174
  21560514.910   -18854160.248 9 -14680304.10947  21560514.666    21560521.0464
  21185161.663   -21388891.766 9 -16639185.58347  21185161.588    21185167.5574
 01  5 15  0  1 30.0000000  0 10 17 15 09 18 31 14 23 21 03 29
  22792059.325     9470668.402 8   7383550.29846  22792058.875    22792066.9134
  21465057.178     -851313.494 9   -655541.40547  21465056.551    21465063.1854
  23640364.642    -7945254.399 8  -6008748.02345  23640364.457    23640371.7994
  21836038.369     1900791.972 9   1490959.93447  21836038.045    21836042.8464
  22581425.932   -11206162.246 8  -8714416.83046  22581425.365    22581431.8354
  20850530.815   -23977502.282 9 -18641745.52547  20850530.438    20850535.5204
  22673037.557     7233884.577 8   5644595.28646  22673037.043    22673043.5574
  21026472.177   -20337942.780 9 -15825400.47347  21026471.737    21026477.5554
  21566239.392   -18824078.016 9 -14656863.43047  21566239.143    21566245.5534
  21172490.863   -21455477.174 9 -16691070.26047  21172490.780    21172496.7454
 01  5 15  0  2  0.0000000  0 10 17 15 09 18 31 14 23 21 03 29
  22807467.438     9551638.457 8   7446643.73346  22807467.019    22807475.1414
  21476845.778     -789364.311 9   -607269.35147  21476845.159    21476851.7504
  23641606.820    -7938727.086 8  -6003661.80545  23641606.507    23641614.0064
  21847253.333     1959726.854 9   1536883.19547  21847252.991    21847257.7604
  22574936.153   -11240266.384 8  -8740991.46946  22574935.577    22574942.0374
  20839317.980   -24036426.004 9 -18687660.07147  20839317.601    20839322.6624
  22683993.512     7291458.287 8   5689457.88446  22683992.988    22683999.4934
  21025759.348   -20341688.753 9 -15828319.40947  21025758.900    21025764.6954
  21572065.352   -18793462.424 9 -14633007.14647  21572065.110    21572071.5494
  21159899.474   -21521645.144 9 -16742629.65647  21159899.377    21159905.3574
 01  5 15  0  2 30.0000000  0 10 17 15 09 18 31 14 23 21 03 29
  22822930.538     9632897.261 8   7509962.16846  22822930.105    22822938.2954
  21488700.693     -727066.368 9   -558725.53947  21488700.072    21488706.6574
  23642956.575    -7931634.622 8  -5998135.19845  23642956.192    23642963.6464
  21858491.231     2018782.297 9   1582900.40047  21858490.902    21858495.6864
  22568552.311   -11273813.889 8  -8767132.37346  22568551.737    22568558.0994
  20828197.833   -24094862.585 9 -18733195.02547  20828197.449    20828202.5034
  22694958.092     7349077.320 8   5734355.79746  22694957.538    22694964.0774
  21025076.996   -20345274.554 9 -15831113.53447  21025076.542    21025082.3214
  21577992.511   -18762315.010 9 -14608736.45547  21577992.297    21577998.6964
  21147387.767   -21587394.291 9 -16793862.70147  21147387.678    21147393.6674
 01  5 15  0  3  0.0000000  0 10 17 15 09 18 31 14 23 21 03 29
  22838448.449     9714444.188 8   7573505.12446  22838447.981    22838456.2964
  21500621.926     -664420.003 8   -509910.23547  21500621.319    21500627.9044
  23644413.848    -7923976.293 8  -5992167.64945  23644413.473    23644420.9504
  21869751.953     2077957.672 8   1629011.05447  21869751.616    21869756.4204
  22562274.525   -11306803.863 8  -8792838.84246  22562273.983    22562280.2934
  20817170.633   -24152810.812 9 -18778349.44447  20817170.253    20817175.2894
  22705931.191     7406741.303 8   5779288.73746  22705930.671    22705937.1984
  21024425.000   -20348700.694 9 -15833783.25047  21024424.544    21024430.3274
  21584020.623   -18730637.139 9 -14584052.41847  21584020.413    21584026.8074
  21134956.032   -21652723.182 9 -16844768.27347  21134955.945    21134961.9154
 01  5 15  0  3 30.0000000  0 10 17 15 09 18 31 14 23 21 03 29
  22854021.194     9796278.989 8   7637272.39046  22854020.791    22854029.1324
  21512609.510     -601425.049 9   -460823.29647  21512608.891    21512615.4664
  23645979.039    -7915751.399 8  -5985758.62945  23645978.660    23645986.0264
  21881035.371     2137252.456 8   1675214.75247  21881035.035    21881039.8774
  22556103.009   -11339235.147 8  -8818109.96946  22556102.475    22556108.8124
  20806236.656   -24210269.100 9 -18823122.09347  20806236.282    20806241.3044
  22716912.916     7464450.378 8   5824256.82646  22716912.389    22716918.8954
  21023803.420   -20351967.065 9 -15836328.46647  21023802.964    21023808.7544
  21590149.492   -18698429.850 9 -14558955.85447  21590149.281    21590155.6614
  21122604.581   -21717630.103 9 -16895345.04047  21122604.505    21122610.4664
 01  5 15  0  4  0.0000000  0 10 17 15 09 18 31 14 23 21 03 29
  22869648.474     9878400.491 8   7701263.06946  22869648.082    22869656.3914
  21524663.293     -538082.385 9   -411465.41547  21524662.656    21524669.2414
  23647652.034    -7906959.815 8  -5978908.02145  23647651.651    23647658.9314
  21892341.360     2196665.746 8   1721510.79547  21892341.008    21892345.8594
  22550037.964   -11371106.964 8  -8842945.14446  22550037.424    22550043.7634
  20795396.094   -24267236.457 9 -18867512.20147  20795395.727    20795400.7234
  22727903.104     7522203.669 8   5869259.35046  22727902.521    22727909.0364
  21023212.031   -20355074.859 9 -15838750.12547  21023211.574    21023217.3684
  21596378.755   -18665694.984 9 -14533448.18647  21596378.528    21596384.9154
  21110333.590   -21782114.358 9 -16945592.45747  21110333.520    21110339.4684
 01  5 15  0  4 30.0000000  0 10 17 15 09 18 31 14 23 21 03 29
  22885330.170     9960807.855 8   7765476.49546  22885329.766    22885338.0954
  21536783.151     -474392.339 9   -361836.85147  21536782.516    21536789.1074
  23649432.814    -7897601.321 8  -5971615.67345  23649432.538    23649439.7504
  21903669.701     2256196.442 8   1767898.31947  21903669.335    21903674.2234
  22544079.550   -11402418.266 8  -8867343.56746  22544079.009    22544085.3944
  20784649.151   -24323711.840 9 -18911518.95047  20784648.787    20784653.7674
  22738901.593     7580000.792 8   5914296.04146  22738901.016    22738907.4524
  21022650.737   -20358024.329 9 -15841048.41147  21022650.302    21022656.1024
  21602708.049   -18632434.411 9 -14507530.88347  21602707.817    21602714.2194
  21098143.244   -21846174.821 9 -16995509.65047  21098143.169    21098149.1034
 01  5 15  0  5  0.0000000  0 10 17 15 09 18 31 14 23 21 03 29
  22901066.195    10043500.719 8   7829912.37846  22901065.772    22901074.1584
  21548969.043     -410355.256 8   -311937.87847  21548968.379    21548975.0184
  23651321.757    -7887675.189 8  -5963881.01245  23651321.491    23651328.7504
  21915020.276     2315844.079 8   1814376.96647  21915019.927    21915024.8114
  22538227.969   -11433168.218 8  -8891304.57346  22538227.500    22538233.8674
  20773996.093   -24379693.755 9 -18955141.18547  20773995.752    20774000.7054
  22749908.393     7637841.733 8   5959366.86346  22749907.816    22749914.2274
  21022119.683   -20360814.949 9 -15843222.92447  21022119.240    21022125.0554
  21609137.144   -18598649.440 9 -14481204.96147  21609136.906    21609143.3104
  21086033.907   -21909809.714 9 -17045095.23447  21086033.813    21086039.7244
 01  5 15  0  5 30.0000000  0 10 17 15 09 18 31 14 23 21 03 29
  22916856.338    10126477.804 8   7894569.74046  22916855.930    22916864.2994
  21561220.802     -345971.987 9   -261769.14147  21561220.138    21561226.7584
  23653318.628    -7877181.497 8  -5955704.08945  23653318.349    23653325.6834
  21926393.004     2375607.783 9   1860946.06347  21926392.634    21926397.5154
  22532483.351   -11463356.366 8  -8914827.81146  22532482.936    22532489.2584
  20763437.085   -24435181.684 9 -18998378.48947  20763436.722    20763441.6754
  22760923.354     7695725.736 8   6004471.24646  22760922.831    22760929.1954
  21021618.597   -20363448.295 9 -15845274.87947  21021618.157    21021623.9564
  21615665.643   -18564341.870 9 -14454471.81747  21615665.436    21615671.8594
  21074005.652   -21973018.470 9 -17094348.76247  21074005.569    21074011.4424
 01  5 15  0  6  0.0000000  0 10 17 15 09 18 31 14 23 21 03 29
  22932700.415    10209738.813 8   7959448.33945  22932699.962    22932708.4624
  21573538.461     -281242.367 8   -211330.52047  21573537.821    21573544.4394
  23655423.631    -7866119.440 8  -5947084.30045  23655423.402    23655430.8074
  21937787.684     2435487.130 8   1907605.26847  21937787.326    21937792.2034
  22526846.002   -11492981.332 8  -8937912.21146  22526845.520    22526851.8174
  20752972.372   -24490174.071 9 -19041229.65947  20752972.016    20752976.9374
  22771946.545     7753652.895 8   6049609.25246  22771945.980    22771952.3804
  21021147.523   -20365923.736 9 -15847203.79347  21021147.083    21021152.8834
  21622293.384   -18529512.915 9 -14427332.40147  21622293.168    21622299.5744
  21062058.817   -22035799.276 9 -17143268.81947  21062058.720    21062064.5914
 01  5 15  0  6 30.0000000  0 10 17 15 09 18 31 14 23 21 03 29
  22948598.302    10293282.750 8   8024547.38645  22948597.926    22948606.4014
  21585921.881     -216167.204 9   -160622.65247  21585921.258    21585927.8704
  23657636.586    -7854489.533 8  -5938022.02345  23657636.340    23657644.0294
  21949204.121     2495480.900 8   1954353.63347  21949203.743    21949208.6454
  22521315.762   -11522043.009 8  -8960557.68146  22521315.268    22521321.5434
  20742602.124   -24544669.883 9 -19083693.88747  20742601.776    20742606.6684
  22782977.794     7811622.434 8   6094780.28146  22782977.213    22782983.7024
  21020706.363   -20368242.043 9 -15849010.26347  21020705.928    21020711.7264
  21629019.961   -18494164.749 9 -14399788.40947  21629019.721    21629026.1424
  21050193.548   -22098151.350 9 -17191854.80247  21050193.454    21050199.3164
 01  5 15  0  7  0.0000000  0 10 17 15 09 18 31 14 23 21 03 29
  22964549.943    10377108.886 8   8089866.33845  22964549.593    22964558.0754
  21598371.028     -150746.622 8   -109645.62047  21598370.409    21598377.0324
  23659957.751    -7842291.183 8  -5928516.78845  23659957.503    23659965.3034
  21960642.293     2555588.712 8   2001190.86247  21960641.914    21960646.8234
  22515893.025   -11550540.045 8  -8982763.15846  22515892.472    22515898.7744
  20732326.588   -24598667.993 9 -19125770.29347  20732326.219    20732331.1044
  22794017.050     7869634.311 8   6139984.29846  22794016.531    22794023.0324
  21020295.051   -20370403.613 9 -15850694.59947  21020294.613    21020300.3904
  21635844.979   -18458298.933 9 -14371841.04947  21635844.766    21635851.2094
  21038410.168   -22160073.372 9 -17240105.68047  21038410.062    21038415.8934
 01  5 15  0  7 30.0000000  0 10 17 15 09 18 31 14 23 21 03 29
  22980555.238    10461216.718 8   8155404.78045  22980554.853    22980563.3604
  21610885.953      -84980.648 8    -58399.45647  21610885.325    21610891.9524
  23662387.166    -7829523.705 8  -5918568.08145  23662386.961    23662394.7584
  21972102.084     2615810.152 8   2048116.63447  21972101.701    21972106.5744
  22510577.779   -11578471.571 8  -9004527.98246  22510577.281    22510583.5714
  20722146.036   -24652166.977 9 -19167457.77447  20722145.677    20722150.5404
  22805064.401     7927688.509 8   6185221.28946  22805063.892    22805070.3664
  21019913.514   -20372408.692 9 -15852256.99547  21019913.057    21019918.8474
  21642768.255   -18421916.798 9 -14343491.36847  21642768.053    21642774.5184
  21026708.856   -22221563.891 9 -17288020.32347  21026708.772    21026714.5504
 01  5 15  0  8  0.0000000  0 10 17 15 09 18 31 14 23 21 03 29
  22996613.844    10545605.128 8   8221161.86545  22996613.426    22996622.0884
  21623466.353      -18870.441 8     -6885.05747  21623465.706    21623472.3544
  23664925.038    -7816187.208 8  -5908175.99145  23664924.803    23664932.4444
  21983583.243     2676143.975 8   2095129.97547  21983582.882    21983587.7434
  22505370.206   -11605837.211 8  -9025851.84746  22505369.727    22505376.0464
  20712060.621   -24705166.041 9 -19208755.70547  20712060.259    20712065.1184
  22816119.729     7985784.396 8   6230490.77846  22816119.240    22816125.6744
  21019561.600   -20374257.905 9 -15853697.93347  21019561.161    21019566.9234
  21649789.405   -18385020.360 9 -14314740.93447  21649789.203    21649795.6924
  21015089.841   -22282622.053 9 -17335598.06547  21015089.766    21015095.5324
 01  5 15  0  8 30.0000000  0 10 17 15 09 18 31 14 23 21 03 29
  23012725.580    10630272.666 8   8287136.45245  23012725.231    23012733.8884
  21636111.963       47582.641 8     44896.52047  21636111.322    21636118.0144
  23667571.253    -7802282.218 8  -5897340.91845  23667570.921    23667578.3964
  21995085.581     2736588.933 8   2142229.91947  21995085.219    21995090.0484
  22500270.410   -11632636.864 8  -9046734.68446  22500269.888    22500276.2224
  20702070.445   -24757664.722 9 -19249663.72947  20702070.085    20702074.9304
  22827182.766     8043920.929 8   6275791.92546  22827182.251    22827188.7224
  21019239.303   -20375951.638 9 -15855017.71847  21019238.864    21019244.6224
  21656908.001   -18347612.021 9 -14285591.61447  21656907.785    21656914.3274
  21003553.151   -22343247.488 9 -17382838.61547  21003553.083    21003558.8394
 01  5 15  0  9  0.0000000  0 10 17 15 09 18 31 14 23 21 03 29
  23028890.579    10715219.706 8   8353328.83145  23028890.121    23028898.8654
  21648822.968      114379.278 8     96945.78747  21648822.322    21648829.0414
  23670325.827    -7787807.580 8  -5886061.96445  23670325.435    23670332.7064
  22006609.158     2797145.513 8   2189416.82847  22006608.792    22006613.6044
  22495278.624   -11658868.678 8  -9067175.04146  22495278.153    22495284.5234
  20692175.810   -24809661.080 9 -19290180.33447  20692175.445    20692180.3014
  22838253.697     8102098.850 8   6321125.30946  22838253.156    22838259.6794
  21018946.673   -20377489.348 9 -15856215.93047  21018946.226    21018951.9604
  21664123.923   -18309692.290 9 -14256043.81247  21664123.699    21664130.2584
  20992099.234   -22403438.084 9 -17429740.33747  20992099.172    20992104.9164
 01  5 15  0  9 30.0000000  0 10 17 15 09 18 31 14 23 21 03 29
  23045108.415    10800444.364 8   8419737.52845  23045107.973    23045116.6484
  21661599.091      181518.040 8    149261.66547  21661598.447    21661605.1624
  23673188.653    -7772764.092 8  -5874339.75345  23673188.143    23673195.3944
  22018153.634     2857812.058 8   2236689.43547  22018153.280    22018158.0704
  22490394.861   -11684533.147 8  -9087173.29946  22490394.354    22490400.6704
  20682376.784   -24861155.166 9 -19330305.55247  20682376.409    20682381.2674
  22849332.269     8160317.024 8   6366490.08146  22849331.737    22849338.3124
  21018683.438   -20378872.553 9 -15857293.74247  21018682.999    21018688.7324
  21671436.635   -18271263.916 8 -14226099.65947  21671436.397    21671442.9754
  20980728.099   -22463193.622 9 -17476303.04547  20980728.034    20980733.7604
 01  5 15  0 10  0.0000000  0 10 17 15 09 18 31 14 23 21 03 29
  23061378.929    10885945.866 8   8486361.96145  23061378.490    23061387.1284
  21674440.334      248998.883 8    201844.09047  21674439.678    21674446.3864
  23676159.503    -7757151.421 8  -5862174.03045  23676158.977    23676166.4534
  22029718.946     2918587.956 8   2284047.25047  22029718.593    22029723.3594
  22485619.177   -11709629.400 8  -9106728.79746  22485618.650    22485625.0034
  20672673.586   -24912145.646 9 -19370038.35547  20672673.206    20672678.0634
  22860418.443     8218575.280 8   6411886.07146  22860417.932    22860424.5094
  21018449.570   -20380101.510 9 -15858251.36047  21018449.140    21018454.8714
  21678845.821   -18232328.510 9 -14195760.41347  21678845.567    21678852.1624
  20969439.969   -22522512.788 9 -17522525.72547  20969439.919    20969445.6394
 01  5 15  0 10 30.0000000  0 10 17 15 09 18 31 14 23 21 03 29
  23077702.083    10971724.291 8   8553202.16945  23077701.629    23077710.2384
  21687346.673      316821.809 8    254693.07447  21687346.013    21687352.7394
  23679238.542    -7740969.072 8  -5849564.39545  23679238.364    23679245.9264
  22041305.092     2979473.320 8   2331490.35547  22041304.722    22041309.4974
  22480951.899   -11734156.153 8  -9125840.52346  22480951.351    22480957.6794
  20663066.558   -24962630.742 9 -19409377.35547  20663066.177    20663071.0264
  22871512.358     8276874.198 8   6457313.75146  22871511.862    22871518.5074
  21018245.244   -20381175.310 9 -15859088.08047  21018244.802    21018250.5544
  21686351.244   -18192887.383 9 -14165027.10847  21686351.002    21686357.6094
  20958235.287   -22581393.813 9 -17568407.00147  20958235.216    20958240.9134
 01  5 15  0 11  0.0000000  0 10 17 15 09 18 31 14 23 21 03 29
  23094077.775    11057778.623 8   8620257.36445  23094077.353    23094086.0004
  21700317.925      384986.335 8    307808.24347  21700317.293    21700324.0504
  23682426.269    -7724216.867 8  -5836510.71245  23682426.218    23682433.8394
  22052911.932     3040467.663 8   2379018.38047  22052911.577    22052916.3434
  22476393.110   -11758112.728 8  -9144507.94846  22476392.567    22476398.9404
  20653555.841   -25012609.654 9 -19448321.92447  20653555.471    20653560.2974
  22882613.970     8335213.424 8   6502772.83946  22882613.466    22882620.1594
  21018070.423   -20382094.084 9 -15859803.99747  21018069.973    21018075.7264
  21693952.574   -18152942.290 8 -14133901.09947  21693952.319    21693958.9654
  20947114.138   -22639835.633 9 -17613946.03347  20947114.065    20947119.7664
 01  5 15  0 11 30.0000000  0 10 17 15 09 18 31 14 23 21 03 29
  23110505.754    11144107.684 8   8687526.63745  23110505.330    23110514.0134
  21713354.033      453491.419 8    361188.78547  21713353.428    21713360.2194
  23685722.548    -7706895.031 8  -5823013.16145  23685722.366    23685730.0774
  22064539.255     3101569.812 8   2426630.41147  22064538.927    22064543.7324
  22471942.867   -11781498.873 8  -9162730.89746  22471942.338    22471948.6454
  20644141.615   -25062081.681 9 -19486871.51447  20644141.239    20644146.0534
  22893723.150     8393592.306 8   6548262.83246  22893722.626    22893729.3344
  21017924.873   -20382858.889 9 -15860399.94047  21017924.424    21017930.1894
  21701649.314   -18112495.626 8 -14102384.24747  21701649.091    21701655.7304
  20936076.687   -22697837.723 9 -17659142.42247  20936076.616    20936082.3064
 01  5 15  0 12  0.0000000  0 10 17 15 09 18 31 14 23 21 03 29
  23126985.786    11230710.350 8   8755009.10445  23126985.371    23126994.0434
  21726454.825      522336.283 8    414834.08847  21726454.198    21726461.0024
  23689127.269    -7689003.533 8  -5809071.74145  23689127.109    23689134.6174
  22076186.945     3162778.858 8   2474325.73847  22076186.604    22076191.4874
  22467601.174   -11804314.466 8  -9180509.24846  22467600.654    22467606.9554
  20634823.931   -25111046.361 9 -19525025.77547  20634823.559    20634828.3384
  22904839.806     8452010.446 8   6593783.40546  22904839.280    22904845.9604
  21017808.556   -20383470.148 9 -15860876.24547  21017808.094    21017813.8714
  21709441.196   -18071549.422 8 -14070478.15847  21709440.957    21709447.5724
  20925123.007   -22755399.287 9 -17703995.54847  20925122.949    20925128.6314
 01  5 15  0 12 30.0000000  0 10 17 15 09 18 31 14 23 21 03 29
  23143517.826    11317586.167 8   8822704.43145  23143517.346    23143526.1494
  21739620.267      591520.821 8    468744.06747  21739619.625    21739626.4474
  23692640.454    -7670542.310 8  -5794686.37845  23692640.146    23692647.5474
  22087854.976     3224094.621 8   2522104.22347  22087854.636    22087859.5384
  22463368.260   -11826558.635 8  -9197842.33346  22463367.734    22463374.0404
  20625603.029   -25159502.306 9 -19562783.61548  20625602.672    20625607.4584
  22915963.953     8510467.969 8   6639334.68046  22915963.428    22915970.1074
  21017721.434   -20383927.839 9 -15861232.87747  21017720.995    21017726.7714
  21717327.790   -18030105.054 8 -14038183.87247  21717327.547    21717334.1934
  20914253.493   -22812518.837 9 -17748504.23747  20914253.434    20914259.1054
 01  5 15  0 13  0.0000000  0 10 17 15 09 18 31 14 23 21 03 29
  23160101.626    11404733.816 8   8890611.55945  23160101.135    23160109.9564
  21752850.160      661044.184 8    522918.06647  21752849.506    21752856.3424
  23696261.889    -7651511.848 8  -5779857.43945  23696261.649    23696268.7724
  22099543.135     3285516.068 8   2569965.06247  22099542.775    22099547.7144
  22459244.045   -11848231.403 8  -9214730.17446  22459243.490    22459249.8114
  20616479.064   -25207448.981 9 -19600144.62148  20616478.689    20616483.4644
  22927095.484     8568964.240 8   6684916.15246  22927094.942    22927101.6004
  21017663.413   -20384232.949 9 -15861470.62247  21017662.945    21017668.7154
  21725308.785   -17988164.800 8 -14005503.18547  21725308.572    21725315.2204
  20903468.207   -22869195.802 9 -17792668.05847  20903468.160    20903473.7884
 01  5 15  0 13 30.0000000  0 10 17 15 09 18 31 14 23 21 03 29
  23176737.083    11492153.022 8   8958730.29545  23176736.629    23176745.3604
  21766144.504      730906.329 8    577356.04747  21766143.872    21766150.7274
  23699991.614    -7631911.808 8  -5764584.66345  23699991.437    23699998.5074
  22111251.363     3347042.973 8   2617908.07247  22111250.999    22111255.8964
  22455228.750   -11869331.744 8  -9231171.97646  22455228.209    22455234.5274
  20607452.206   -25254885.151 9 -19637107.83248  20607451.838    20607456.6064
  22938234.444     8627499.582 8   6730528.06246  22938233.891    22938240.5674
  21017634.553   -20384384.508 9 -15861588.71547  21017634.085    21017639.8334
  21733383.878   -17945730.062 8 -13972437.18947  21733383.652    21733390.2964
  20892767.403   -22925428.788 9 -17836485.92547  20892767.348    20892772.9754
 01  5 15  0 14  0.0000000  0 10 17 15 09 18 31 14 23 21 03 29
  23193423.890    11579842.306 8   9027059.47045  23193423.456    23193432.1844
  21779503.038      801105.703 8    632056.80647  21779502.404    21779509.2594
  23703829.645    -7611742.789 8  -5748868.54345  23703829.440    23703836.5774
  22122979.396     3408674.296 8   2665932.44747  22122979.050    22122983.9694
  22451322.463   -11889859.431 8  -9247167.54846  22451321.953    22451328.2574
  20598522.578   -25301810.455 9 -19673672.96448  20598522.220    20598526.9694
  22949380.648     8686073.276 8   6776169.85746  22949380.114    22949386.8264
  21017634.662   -20384383.855 9 -15861588.20347  21017634.195    21017639.9624
  21741552.620   -17902803.109 8 -13938987.64447  21741552.416    21741559.0874
  20882151.135   -22981217.483 9 -17879957.59147  20882151.058    20882156.6804
 01  5 15  0 14 30.0000000  0 10 17 15 09 18 31 14 23 21 03 29
  23210161.882    11667800.891 8   9095598.50345  23210161.489    23210170.2724
  21792925.644      871641.906 8    687020.03247  21792925.002    21792931.8814
  23707776.040    -7591004.689 8  -5732708.95545  23707775.768    23707782.9654
  22134727.239     3470409.465 8   2714037.73946  22134726.907    22134731.8164
  22447525.220   -11909813.929 8  -9262716.47746  22447524.722    22447530.9824
  20589690.393   -25348223.703 9 -19709839.09348  20589690.034    20589694.7724
  22960534.203     8744685.481 8   6821841.66146  22960533.663    22960540.4234
  21017663.820   -20384230.641 9 -15861468.81647  21017663.364    21017669.1194
  21749814.703   -17859385.789 8 -13905156.00047  21749814.467    21749821.1504
  20871619.659   -23036560.479 9 -17923081.95947  20871619.608    20871625.2324
 01  5 15  0 15  0.0000000  0 10 17 15 09 18 31 14 23 21 03 29
  23226950.890    11756027.565 8   9164346.42945  23226950.496    23226959.3114
  21806412.184      942514.122 8    742245.08347  21806411.565    21806418.4604
  23711830.714    -7569697.855 8  -5716106.22445  23711830.382    23711837.5714
  22146494.694     3532247.857 8   2762223.46546  22146494.361    22146499.2894
  22443837.157   -11929195.164 8  -9277818.71246  22443836.595    22443842.8514
  20580955.728   -25394124.589 9 -19745605.98248  20580955.361    20580960.0914
  22971694.970     8803335.555 8   6867542.96546  22971694.447    22971701.2074
  21017721.823   -20383925.805 9 -15861231.28547  21017721.364    21017727.1214
  21758169.597   -17815480.661 8 -13870944.24447  21758169.393    21758176.0754
  20861173.108   -23091457.130 9 -17965858.52547  20861173.060    20861178.6894
 01  5 15  0 15 30.0000000  0 10 17 15 09 18 31 14 23 21 03 29
  23243790.860    11844521.758 8   9233302.81445  23243790.538    23243799.3934
  21819962.657     1013722.321 8    797731.94147  21819962.044    21819968.9814
  23715993.593    -7547822.041 8  -5699060.12845  23715993.230    23716000.4164
  22158281.776     3594189.268 8   2810489.46446  22158281.431    22158286.3614
  22440258.228   -11948002.523 8  -9292473.76646  22440257.673    22440263.8574
  20572318.795   -25439511.797 9 -19780972.60248  20572318.430    20572323.1394
  22982862.934     8862023.409 8   6913273.72746  22982862.416    22982869.2234
  21017808.679   -20383469.229 9 -15860875.51547  21017808.224    21017813.9694
  21766617.045   -17771089.413 9 -13836353.68647  21766616.825    21766623.4834
  20850811.718   -23145906.459 9 -18008286.53047  20850811.674    20850817.3024
 01  5 15  0 16  0.0000000  0 10 17 15 09 18 31 14 23 21 03 29
  23260681.560    11933282.185 7   9302466.64845  23260681.176    23260690.0234
  21833576.924     1085265.693 8    853479.96847  21833576.319    21833583.2844
  23720264.700    -7525377.889 8  -5681571.16845  23720264.243    23720271.3574
  22170088.254     3656232.680 8   2858834.94646  22170087.897    22170092.8634
  22436788.474   -11966236.123 8  -9306681.74646  22436787.915    22436794.1054
  20563779.681   -25484385.081 9 -19815938.75848  20563779.312    20563784.0064
  22994037.990     8920748.716 8   6959033.66146  22994037.479    22994044.3114
  21017924.424   -20382860.938 9 -15860401.52747  21017923.974    21017929.7334
  21775156.550   -17726214.255 8 -13801386.05747  21775156.313    21775162.9544
  20840535.595   -23199907.650 9 -18050365.33747  20840535.538    20840541.1544
 01  5 15  0 16 30.0000000  0 10 17 15 09 18 31 14 23 21 03 29
  23277622.811    12022308.271 8   9371837.47745  23277622.446    23277631.3874
  21847254.910     1157143.566 8    909488.65447  21847254.291    21847261.2394
  23724643.837    -7502365.389 8  -5663639.33745  23724643.421    23724650.4084
  22181914.083     3718377.756 8   2907259.64646  22181913.751    22181918.7364
  22433428.055   -11983894.916 8  -9320441.81946  22433427.542    22433433.7574
  20555338.544   -25528743.358 9 -19850503.61148  20555338.186    20555342.8944
  23005220.168     8979511.379 8   7004822.70746  23005219.688    23005226.5314
  21018069.020   -20382101.148 9 -15859809.48747  21018068.584    21018074.3394
  21783787.816   -17680856.812 8 -13766042.62447  21783787.578    21783794.1944
  20830344.968   -23253459.636 9 -18092094.11547  20830344.892    20830350.4784
 01  5 15  0 17  0.0000000  0 10 17 15 09 18 31 14 23 21 03 29
  23294614.440    12111599.351 7   9441414.80545  23294613.984    23294622.9194
  21860996.510     1229355.779 8    965757.85047  21860995.878    21861002.8214
  23729131.034    -7478784.326 8  -5645264.47345  23729130.685    23729137.5824
  22193759.181     3780624.200 8   2955763.34046  22193758.870    22193763.8784
  22430177.159   -12000978.426 8  -9333753.62746  22430176.632    22430182.8544
  20546995.623   -25572585.510 9 -19884666.29548  20546995.271    20546999.9674
  23016409.552     9038311.755 8   7050641.12846  23016409.061    23016415.9114
  21018242.446   -20381189.849 9 -15859099.38747  21018241.994    21018247.7604
  21792510.540   -17635018.820 8 -13730324.74047  21792510.289    21792516.9174
  20820240.016   -23306561.321 9 -18133472.01047  20820239.958    20820245.5314
 01  5 15  0 17 30.0000000  0 10 17 15 09 18 31 14 23 21 03 29
  23311656.139    12201153.699 7   9511197.27645  23311655.686    23311664.7194
  21874801.413     1301900.870 8   1022286.44847  21874800.800    21874807.7614
  23733726.202    -7454635.649 8  -5626447.31345  23733725.884    23733732.7504
  22205623.393     3842970.957 8   3004345.20346  22205623.117    22205628.1044
  22427035.686   -12017487.015 8  -9346617.44946  22427035.137    22427041.3784
  20538750.918   -25615911.688 9 -19918426.91748  20538750.559    20538755.2384
  23027605.953     9097149.063 8   7096488.34246  23027605.470    23027612.3614
  21018444.546   -20380127.721 9 -15858271.75747  21018444.094    21018449.8674
  21801324.164   -17588703.051 8 -13694234.55747  21801323.897    21801330.5454
  20810220.808   -23359212.422 9 -18174498.80147  20810220.744    20810226.3104
 01  5 15  0 18  0.0000000  0 10 17 15 09 18 31 14 23 21 03 29
  23328747.852    12290970.728 8   9581184.41145  23328747.374    23328756.4764
  21888669.583     1374778.445 8   1079074.11047  21888668.960    21888675.9424
  23738429.448    -7429919.486 8  -5607187.96045  23738429.217    23738436.0384
  22217506.643     3905417.800 8   3053005.04746  22217506.350    22217511.3624
  22424003.579   -12033420.342 8  -9359033.02046  22424003.076    22424009.3464
  20530604.599   -25658720.789 9 -19951784.62448  20530604.239    20530608.9004
  23038809.441     9156023.646 8   7142364.58946  23038808.974    23038815.8874
  21018675.365   -20378914.769 9 -15857326.60147  21018674.914    21018680.7094
  21810228.373   -17541911.122 8 -13657773.34447  21810228.123    21810234.7644
  20800287.563   -23411411.901 9 -18215173.67647  20800287.481    20800293.0364
 01  5 15  0 18 30.0000000  0 10 17 15 09 18 31 14 23 21 03 29
  23345889.285    12381049.246 7   9651375.32545  23345888.887    23345898.0634
  21902600.816     1447987.508 8   1136120.07547  21902600.205    21902607.2374
  23743240.923    -7404636.400 8  -5587486.84445  23743240.497    23743247.3824
  22229408.765     3967963.808 8   3101742.15646  22229408.491    22229413.4794
  22421080.998   -12048778.368 8  -9371000.30246  22421080.529    22421086.8014
  20522556.750   -25701012.359 9 -19984739.06448  20522556.380    20522561.0274
  23050019.963     9214935.023 8   7188269.52446  23050019.474    23050026.3884
  21018934.830   -20377551.183 9 -15856264.06847  21018934.394    21018940.1754
  21819222.767   -17494645.518 8 -13620943.04047  21819222.517    21819229.1304
  20790440.359   -23463159.047 9 -18255496.08547  20790440.298    20790445.8384
 01  5 15  0 19  0.0000000  0 10 17 15 09 18 31 14 23 21 03 29
  23363080.338    12471388.186 7   9721769.15945  23363079.866    23363089.1194
  21916595.104     1521527.721 8   1193424.07947  21916594.487    21916601.5074
  23748160.086    -7378786.556 8  -5567344.11945  23748159.601    23748166.6624
  22241329.744     4030608.675 8   3150556.30346  22241329.448    22241334.4494
  22418268.060   -12063560.655 8  -9382518.95546  22418267.546    22418273.8544
  20514607.568   -25742785.452 9 -20017289.49848  20514607.213    20514611.8484
  23061237.451     9273883.099 8   7234203.04646  23061236.968    23061243.8904
  21019222.945   -20376037.231 9 -15855084.36447  21019222.475    21019228.2464
  21828306.873   -17446908.228 8 -13583745.18147  21828306.638    21828313.2774
  20780679.367   -23514453.230 9 -18295465.53647  20780679.305    20780684.8504
 01  5 15  0 19 30.0000000  0 10 17 15 09 18 31 14 23 21 03 29
  23380320.821    12561986.557 8   9792365.14245  23380320.330    23380329.5044
  21930652.219     1595398.065 8   1250985.33847  21930651.576    21930658.6054
  23753186.672    -7352370.609 8  -5546760.25945  23753186.292    23753193.6614
  22253269.346     4093351.600 8   3199446.86846  22253269.022    22253274.0554
  22415564.528   -12077767.382 8  -9393589.12146  22415564.038    22415570.3704
  20506757.064   -25784039.956 9 -20049435.83248  20506756.708    20506761.3474
  23072461.857     9332867.613 8   7280164.96846  23072461.387    23072468.2674
  21019539.519   -20374373.481 9 -15853787.93247  21019539.086    21019544.8374
  21837480.293   -17398701.641 8 -13546181.64047  21837480.057    21837486.6924
  20771004.748   -23565293.552 9 -18335081.32147  20771004.683    20771010.2194
 01  5 15  0 20  0.0000000  0 10 17 15 09 18 31 14 23 21 03 29
  23397610.465    12652844.000 7   9863163.00045  23397610.011    23397619.3104
  21944772.149     1669598.527 8   1308803.81647  21944771.511    21944778.5144
  23758320.776    -7325388.133 8  -5525734.94845  23758320.587    23758328.4044
  22265227.659     4156192.826 8   3248414.01946  22265227.354    22265232.4074
  22412970.777   -12091397.620 8  -9404210.07746  22412970.293    22412976.6214
  20499005.550   -25824774.359 9 -20081176.89848  20499005.184    20499009.8294
  23083693.378     9391889.285 8   7326155.82446  23083692.901    23083699.7464
  21019884.827   -20372558.879 9 -15852373.95447  21019884.377    21019890.1344
  21846742.786   -17350027.010 8 -13508253.39547  21846742.585    21846749.2264
  20761416.734   -23615678.683 9 -18374342.42247  20761416.680    20761422.2154
 01  5 15  0 20 30.0000000  0 10 17 15 09 18 31 14 23 21 03 29
  23414949.144    12743958.749 8   9934161.35245  23414948.698    23414958.0614
  21958954.689     1744127.803 8   1366878.51347  21958954.062    21958961.0584
  23763562.672    -7297840.401 8  -5504269.19945  23763562.678    23763570.5704
  22277204.433     4219130.917 8   3297456.65146  22277204.122    22277209.1664
  22410486.615   -12104451.918 8  -9414382.25146  22410486.114    22410492.4464
  20491352.893   -25864989.188 9 -20112513.09748  20491352.522    20491357.1964
  23094931.847     9450947.121 8   7372174.87046  23094931.322    23094938.1754
  21020258.598   -20370594.606 9 -15850843.35147  21020258.168    21020263.9304
  21856093.794   -17300887.282 8 -13469962.73147  21856093.571    21856100.2394
  20751915.314   -23665608.891 9 -18413249.03347  20751915.258    20751920.7704
 01  5 15  0 21  0.0000000  0 10 17 15 09 18 31 14 23 21 03 29
  23432336.559    12835329.556 8  10005359.23945  23432336.091    23432345.5164
  21973199.601     1818985.004 8   1425208.73247  21973198.951    21973205.9794
  23768912.262    -7269728.060 8  -5482363.47645  23768912.335    23768920.1794
  22289199.567     4282165.435 8   3346574.42246  22289199.258    22289204.3024
  22408112.126   -12116930.073 8  -9424105.48746  22408111.627    22408117.9034
  20483799.238   -25904683.604 9 -20143443.78248  20483798.881    20483803.5554
  23106177.037     9510040.917 8   7418221.92746  23106176.536    23106183.3674
  21020660.667   -20368481.550 9 -15849196.80947  21020660.230    21020666.0354
  21865532.827   -17251285.054 8 -13431311.68447  21865532.587    21865539.2724
  20742500.667   -23715083.183 9 -18451800.38747  20742500.596    20742506.1084
 01  5 15  0 21 30.0000000  0 10 17 15 09 18 31 14 23 21 03 29
  23449772.450    12926955.206 8  10076755.70845  23449772.061    23449781.4454
  21987506.718     1894169.248 8   1483793.80746  21987506.086    21987513.0934
  23774369.289    -7241051.686 8  -5460018.25145  23774369.187    23774376.9404
  22301212.870     4345295.578 8   3395766.70746  22301212.562    22301217.6014
  22405847.171   -12128832.546 8  -9433380.14846  22405846.665    22405852.9324
  20476344.711   -25943857.354 9 -20173968.75248  20476344.342    20476349.0294
  23117429.048     9569170.395 8   7464296.79846  23117428.557    23117435.3904
  21021091.091   -20366219.573 9 -15847434.22647  21021090.662    21021096.4794
  21875059.441   -17201222.457 8 -13392301.90147  21875059.202    21875065.8754
  20733172.758   -23764101.278 9 -18489996.26247  20733172.703    20733178.2124
 01  5 15  0 22  0.0000000  0 10 17 15 09 18 31 14 23 21 03 29
  23467256.722    13018835.136 8  10148350.31745  23467256.286    23467265.6664
  22001875.910     1969679.854 8   1542633.17146  22001875.299    22001882.3074
  23779933.593    -7211811.422 8  -5437233.62245  23779933.424    23779941.0094
  22313244.425     4408521.459 8   3445033.58646  22313244.102    22313249.1224
  22403691.773   -12140158.884 8  -9442205.86646  22403691.307    22403697.6274
  20468989.399   -25982509.585 9 -20204087.35048  20468989.054    20468993.7194
  23128687.900     9628335.735 8   7510399.61346  23128687.353    23128694.2224
  21021549.965   -20363808.286 9 -15845555.29747  21021549.534    21021555.3554
  21884673.365   -17150701.021 8 -13352934.59047  21884673.146    21884679.8194
  20723931.944   -23812662.016 9 -18527835.76247  20723931.881    20723937.3974
 01  5 15  0 22 30.0000000  0 10 17 15 09 18 31 14 23 21 03 29
  23484789.099    13110967.822 8  10220141.86345  23484788.659    23484798.0584
  22016307.011     2045515.685 8   1601725.96946  22016306.408    22016313.4324
  23785605.052    -7182008.307 7  -5414010.43045  23785604.909    23785612.3354
  22325293.978     4471842.008 8   3494374.24246  22325293.651    22325298.6634
  22401646.006   -12150909.523 8  -9450582.98846  22401645.494    22401651.8474
  20461733.370   -26020640.154 9 -20233799.45148  20461733.017    20461737.6834
  23139953.460     9687536.565 8   7556530.07746  23139952.924    23139959.8214
  21022037.046   -20361248.503 9 -15843560.65647  21022036.637    21022042.4394
  21894374.066   -17099723.709 8 -13313212.04747  21894373.840    21894380.4884
  20714778.198   -23860765.090 9 -18565318.63747  20714778.118    20714783.6444
 01  5 15  0 23  0.0000000  0 10 17 15 09 18 31 14 23 21 03 29
  23502369.539    13203353.038 7  10292130.19245  23502369.218    23502378.5774
  22030800.046     2121676.820 8   1661072.24546  22030799.415    22030806.4864
  23791383.484    -7151641.998 7  -5390348.37245  23791383.339    23791390.8654
  22337361.548     4535257.503 8   3543788.87946  22337361.217    22337366.2214
  22399709.948   -12161083.702 8  -9458510.91846  22399709.424    22399715.7714
  20454576.836   -26058247.830 9 -20263104.10248  20454576.481    20454581.1534
  23151225.940     9746773.428 8   7602688.61946  23151225.370    23151232.2314
  21022552.589   -20358539.451 9 -15841449.70147  21022552.160    21022557.9474
  21904161.214   -17048292.113 8 -13273135.51647  21904160.985    21904167.6424
  20705711.815   -23908409.099 9 -18602443.80247  20705711.724    20705717.2444
 01  5 15  0 23 30.0000000  0 10 17 15 09 18 31 14 23 21 03 29
  23519997.744    13295989.273 8  10364314.11445  23519997.494    23520006.8784
  22045354.766     2198162.158 8   1720671.14446  22045354.139    22045361.2274
  23797268.639    -7120713.459 8  -5366248.22745  23797268.723    23797276.4234
  22349447.027     4598767.140 8   3593276.87446  22349446.690    22349451.7374
  22397883.495   -12170681.557 8  -9465989.76146  22397882.998    22397889.3324
  20447519.817   -26095332.591 9 -20292001.29048  20447519.457    20447524.1404
  23162505.154     9806045.926 8   7648874.93746  23162504.562    23162511.4804
  21023096.421   -20355681.576 9 -15839222.78047  21023095.994    21023101.7744
  21914034.316   -16996408.749 8 -13232706.96647  21914034.080    21914040.7424
  20696732.803   -23955593.911 9 -18639211.15347  20696732.720    20696738.2524
 01  5 15  0 24  0.0000000  0 10 17 15 09 18 31 14 23 21 03 29
  23537673.514    13388875.322 7  10436692.71645  23537673.218    23537682.6824
  22059970.948     2274970.568 8   1780521.79146  22059970.350    22059977.3914
  23803261.090    -7089223.383 8  -5341710.51445  23803261.225    23803268.8594
  22361550.292     4662370.194 8   3642837.65446  22361549.951    22361555.0454
  22396166.804   -12179703.172 8  -9473019.59246  22396166.277    22396172.6174
  20440562.355   -26131894.115 9 -20320490.75648  20440562.003    20440566.6834
  23173791.087     9865353.925 8   7695088.90246  23173790.509    23173797.5084
  21023668.518   -20352674.983 9 -15836879.98047  21023668.097    21023673.9094
  21923992.898   -16944076.017 8 -13191928.25247  21923992.676    21923999.3894
  20687841.283   -24002318.995 9 -18675620.27547  20687841.216    20687846.7424
 01  5 15  0 24 30.0000000  0 10 17 15 09 18 31 14 23 21 03 29
  23555396.552    13482009.841 7  10509264.91645  23555396.208    23555405.6504
  22074648.484     2352101.266 8   1840623.56746  22074647.889    22074654.9504
  23809360.541    -7057172.701 8  -5316735.95245  23809360.383    23809367.9304
  22373671.178     4726066.009 8   3692470.70946  22373670.870    22373676.0144
  22394559.577   -12188149.195 8  -9479600.92246  22394559.029    22394565.3574
  20433704.524   -26167932.177 9 -20348572.34048  20433704.181    20433708.8484
  23185083.699     9924697.177 8   7741330.34646  23185083.161    23185090.2274
  21024268.876   -20349520.082 9 -15834421.61647  21024268.462    21024274.2794
  21934036.550   -16891296.429 8 -13150801.34647  21934036.323    21934043.0444
  20679037.282   -24048583.969 9 -18711670.87247  20679037.211    20679042.7254
 01  5 15  0 25  0.0000000  0 10 17 15 09 18 31 14 23 21 03 29
  23573166.593    13575391.668 7  10582029.81745  23573166.227    23573175.8964
  22089387.108     2429553.012 8   1900975.51446  22089386.506    22089393.5994
  23815566.227    -7024562.184 8  -5291325.16945  23815565.956    23815573.5124
  22385809.685     4789854.164 8   3742175.73146  22385809.396    22385814.5584
  22393061.862   -12196019.658 8  -9485733.74346  22393061.356    22393067.6624
  20426946.349   -26203446.483 9 -20376245.79148  20426945.990    20426950.6764
  23196383.008     9984075.454 8   7787599.07846  23196382.499    23196389.5534
  21024897.352   -20346217.207 9 -15831847.94647  21024896.957    21024902.7814
  21944164.750   -16838072.463 8 -13109328.16647  21944164.531    21944171.2984
  20670321.033   -24094388.126 9 -18747362.38747  20670320.975    20670326.4564
 01  5 15  0 25 30.0000000  0 10 17 15 09 18 31 14 23 21 03 29
  23590983.648    13669020.462 7  10654987.16345  23590983.202    23590992.9234
  22104186.889     2507326.106 8   1961577.85946  22104186.290    22104193.3994
  23821878.389    -6991391.683 8  -5265478.02345  23821878.187    23821885.6164
  22397965.858     4853735.080 8   3791953.02846  22397965.571    22397970.7234
  22391673.783   -12203313.981 8  -9491417.64046  22391673.277    22391679.5674
  20420288.034   -26238436.023 9 -20403510.34148  20420287.679    20420292.3554
  23207689.165    10043489.428 8   7833895.62846  23207688.611    23207695.6964
  21025554.183   -20342765.472 9 -15829158.28447  21025553.782    21025559.6434
  21954377.275   -16784405.299 8 -13067509.64147  21954377.061    21954383.8954
  20661692.635   -24139730.364 9 -18782693.96847  20661692.578    20661698.0594
 01  5 15  0 26  0.0000000  0 10 17 15 09 18 31 14 23 21 03 29
  23608847.397    13762894.500 7  10728135.61545  23608847.095    23608856.7954
  22119047.517     2585419.081 8   2022429.46146  22119046.913    22119054.0834
  23828296.974    -6957662.583 8  -5239195.61245  23828296.594    23828304.1904
  22410139.426     4917707.509 8   3841801.62746  22410139.123    22410144.3444
  22390395.262   -12210032.744 8  -9496653.04646  22390394.742    22390401.0404
  20413729.543   -26272900.964 9 -20430366.11348  20413729.189    20413733.8724
  23219001.931    10102938.307 8   7880219.37446  23219001.379    23219008.4244
  21026239.194   -20339165.838 9 -15826353.36947  21026238.798    21026244.6414
  21964673.523   -16730298.209 8 -13025348.31847  21964673.323    21964680.1684
  20653152.162   -24184610.756 9 -18817665.66447  20653152.110    20653157.5874
 01  5 15  0 26 30.0000000  0 10 17 15 09 18 31 14 23 21 03 29
  23626757.622    13857012.662 7  10801474.26845  23626757.286    23626766.9734
  22133968.860     2663830.985 8   2083529.58946  22133968.233    22133975.4184
  23834821.530    -6923375.586 8  -5212478.47945  23834821.207    23834828.7654
  22422330.323     4981771.137 8   3891721.29146  22422330.044    22422335.3324
  22389226.183   -12216176.050 8  -9501440.04046  22389225.711    22389232.0424
  20407270.993   -26306840.733 9 -20456812.65948  20407270.660    20407275.3274
  23230321.498    10162422.444 8   7926570.60546  23230320.953    23230327.9494
  21026952.376   -20335418.022 9 -15823432.99147  21026951.964    21026957.8244
  21975053.051   -16675753.537 8 -12982846.02047  21975052.837    21975059.6964
  20644699.646   -24229028.729 9 -18852277.03847  20644699.592    20644705.0814
 01  5 15  0 27  0.0000000  0 10 17 15 09 18 31 14 23 21 03 29
  23644714.061    13951373.862 7  10875002.31045  23644713.646    23644723.4014
  22148950.717     2742560.971 8   2144877.56246  22148950.111    22148957.3344
  23841452.127    -6888531.151 8  -5185326.97745  23841451.846    23841459.3314
  22434538.509     5045925.546 8   3941711.69946  22434538.232    22434543.5374
  22388166.698   -12221744.133 8  -9505778.81846  22388166.125    22388172.4724
  20400912.416   -26340255.159 9 -20482849.84848  20400912.073    20400916.7384
  23241647.670    10221941.841 8   7972949.29246  23241647.113    23241654.1854
  21027693.638   -20331522.612 9 -15820397.60647  21027693.211    21027699.0804
  21985515.453   -16620773.480 8 -12940004.46147  21985515.224    21985522.0964
  20636335.282   -24272983.723 9 -18886527.64447  20636335.213    20636340.7284
 01  5 15  0 27 30.0000000  0 10 17 15 09 18 31 14 23 21 03 29
  23662716.495    14045976.787 7  10948718.71945  23662716.043    23662725.8584
  22163992.867     2821608.005 8   2206472.58746  22163992.287    22163999.5224
  23848188.842    -6853130.504 8  -5157742.05745  23848188.423    23848195.9634
  22446763.897     5110170.078 8   3991772.33046  22446763.599    22446768.8914
  22387216.482   -12226737.455 8  -9509669.72846  22387215.973    22387222.2564
  20394653.814   -26373144.140 9 -20508477.60148  20394653.465    20394658.1304
  23252980.500    10281496.127 8   8019355.19046  23252979.967    23252987.0364
  21028462.977   -20327479.777 9 -15817247.34247  21028462.548    21028468.4384
  21996060.159   -16565360.823 8 -12896825.81047  21996059.935    21996066.8234
  20628059.086   -24316475.208 9 -18920417.07647  20628059.032    20628064.5304
 01  5 15  0 28  0.0000000  0 10 17 15 09 18 31 14 23 21 03 29
  23680764.606    14140820.098 7  11022622.43745  23680764.118    23680774.0304
  22179095.277     2900971.278 8   2268314.02546  22179094.692    22179101.9354
  23855031.118    -6817174.362 8  -5129724.30645  23855030.626    23855038.1804
  22459006.323     5174504.189 8   4041902.75846  22459006.013    22459011.2834
  22386375.627   -12231156.461 8  -9513113.12846  22386375.085    22386381.3524
  20388495.284   -26405507.440 9 -20533695.73448  20388494.949    20388499.5734
  23264319.953    10341085.205 8   8065788.16046  23264319.417    23264326.4964
  21029260.409   -20323289.392 9 -15813982.10947  21029259.966    21029265.8504
  22006686.778   -16509517.760 8 -12853311.78347  22006686.568    22006693.4504
  20619871.105   -24359503.082 9 -18953945.25147  20619871.050    20619876.5464
 01  5 15  0 28 30.0000000  0 10 17 15 09 18 31 14 23 21 03 29
  23698858.343    14235903.410 7  11096713.13545  23698858.012    23698868.0434
  22194257.745     2980650.258 8   2330401.47446  22194257.145    22194264.4364
  23861978.972    -6780663.069 8  -5101273.95045  23861978.526    23861986.0674
  22471265.825     5238928.190 8   4092103.23246  22471265.537    22471270.8014
  22385644.005   -12235000.909 8  -9516108.80846  22385643.482    22385649.8264
  20382436.956   -26437344.198 9 -20558503.57648  20382436.603    20382441.2034
  23275666.131    10400709.586 8   8112248.67346  23275665.532    23275672.6784
  21030086.015   -20318950.787 9 -15810601.38047  21030085.575    21030091.4484
  22017394.971   -16453246.141 8 -12809463.81847  22017394.765    22017401.6504
  20611771.615   -24402066.062 9 -18987111.17447  20611771.558    20611777.0404
 01  5 15  0 29  0.0000000  0 10 17 15 09 18 31 14 23 21 03 29
  23716997.558    14331225.224 7  11170989.70045  23716997.214    23717007.2254
  22209480.105     3060644.067 8   2392734.24246  22209479.517    22209486.8104
  23869032.311    -6743597.494 8  -5072391.69045  23869031.873    23869039.3344
  22483542.297     5303441.455 8   4142373.25546  22483542.028    22483547.3564
  22385021.706   -12238271.136 8  -9518657.05246  22385021.172    22385027.5384
  20376478.811   -26468654.354 9 -20582901.07848  20376478.448    20376483.0434
  23287018.997    10460369.290 8   8158736.69046  23287018.453    23287025.6634
  21030939.785   -20314464.174 9 -15807105.32247  21030939.354    21030945.1784
  22028184.126   -16396548.702 8 -12765284.04047  22028183.946    22028190.8284
  20603760.636   -24444163.942 9 -19019914.68347  20603760.563    20603766.0474
 01  5 15  0 29 30.0000000  0 10 17 15 09 18 31 14 23 21 03 29
  23735181.900    14426784.355 7  11245451.16945  23735181.695    23735191.6794
  22224762.258     3140951.688 8   2455311.54146  22224761.657    22224768.9334
  23876190.770    -6705978.658 8  -5043078.32045  23876190.438    23876197.9784
  22495835.718     5368043.574 8   4192712.52446  22495835.437    22495840.8234
  22384508.646   -12240967.546 8  -9520758.15746  22384508.077    22384514.4574
  20370620.946   -26499437.668 9 -20606888.05148  20370620.573    20370625.1654
  23298378.589    10520064.208 8   8205252.15046  23298378.069    23298385.2664
  21031821.708   -20309829.738 9 -15803494.07547  21031821.263    21031827.0854
  22039053.949   -16339427.792 8 -12720774.28547  22039053.751    22039060.6324
  20595838.213   -24485796.402 9 -19052355.52547  20595838.148    20595843.6044
 01  5 15  0 30  0.0000000  0 10 17 15 09 18 31 14 23 21 03 29
  23753411.087    14522579.013 7  11320096.17245  23753410.905    23753421.1114
  22240103.760     3221571.536 8   2518132.12446  22240103.127    22240110.4734
  23883454.240    -6667808.004 8  -5013334.97745  23883454.049    23883461.6274
  22508145.895     5432733.680 8   4243120.34946  22508145.575    22508150.9604
  22384104.507   -12243091.158 8  -9522412.93046  22384103.967    22384110.3464
  20364863.160   -26529694.907 9 -20630465.09348  20364862.809    20364867.3734
  23309744.749    10579793.754 8   8251794.59346  23309744.230    23309751.4834
  21032731.551   -20305048.462 9 -15799768.41047  21032731.123    21032736.9514
  22050003.722   -16281886.561 8 -12675937.01147  22050003.530    22050010.4124
  20588004.314   -24526963.700 9 -19084433.90447  20588004.261    20588009.6944
 01  5 15  0 30 30.0000000  0 10 17 15 09 18 31 14 23 21 03 29
  23771685.086    14618608.395 7  11394924.07045  23771684.705    23771695.1594
  22255504.524     3302503.091 8   2581195.59746  22255503.906    22255511.3104
  23890822.921    -6629086.228 8  -4983162.15845  23890822.628    23890830.0884
  22520472.815     5497511.655 8   4293596.64646  22520472.491    22520477.8424
  22383809.456   -12244641.730 8  -9523621.18246  22383808.921    22383815.2674
  20359205.646   -26559425.270 9 -20653631.58548  20359205.276    20359209.8464
  23321117.644    10639558.350 8   8298364.34446  23321117.096    23321124.3414
  21033669.469   -20300119.623 9 -15795927.76647  21033669.004    21033674.8444
  22061033.016   -16223927.366 8 -12630774.05547  22061032.815    22061039.7104
  20580259.075   -24567664.956 9 -19116149.13947  20580259.023    20580264.4484
 01  5 15  0 31  0.0000000  0 10 17 15 09 18 31 14 23 21 03 29
  23790003.336    14714871.099 7  11469933.78245  23790003.113    23790013.4614
  22270964.449     3383745.297 8   2644501.14346  22270963.852    22270971.2874
  23898295.924    -6589814.422 8  -4952560.76345  23898295.704    23898303.3904
  22532816.283     5562376.876 8   4344140.92246  22532815.966    22532821.3024
  22383623.354   -12245619.891 8  -9524383.39846  22383622.770    22383629.1454
  20353648.377   -26588628.716 9 -20676387.49048  20353648.033    20353652.5874
  23332497.146    10699357.862 8   8344961.30846  23332496.629    23332503.9084
  21034635.380   -20295043.832 9 -15791972.61047  21034634.915    21034640.7754
  22072141.420   -16165552.490 8 -12585287.19347  22072141.204    22072148.1334
  20572602.573   -24607900.070 9 -19147501.14647  20572602.524    20572607.9444
 01  5 15  0 31 30.0000000  0 10 17 15 09 18 31 14 23 21 03 29
  23808365.998    14811366.207 7  11545124.59545  23808365.770    23808376.0224
  22286483.374     3465297.425 8   2708048.18546  22286482.759    22286490.2224
  23905873.718    -6549993.224 8  -4921531.27145  23905873.518    23905881.1614
  22545176.303     5627329.146 8   4394753.03846  22545176.019    22545181.3284
  22383546.009   -12246025.956 8  -9524699.81546  22383545.494    22383551.9074
  20348191.484   -26617304.949 9 -20698732.58048  20348191.131    20348195.6834
  23343883.353    10759192.510 8   8391585.65746  23343882.807    23343890.1184
  21035629.343   -20289820.617 9 -15787902.57847  21035628.887    21035634.7424
  22083328.491   -16106764.128 8 -12539478.12447  22083328.270    22083335.2634
  20565034.916   -24647668.306 9 -19178489.34947  20565034.873    20565040.2724
 01  5 15  0 32  0.0000000  0 10 17 15 09 18 31 14 23 21 03 29
  23826772.560    14908092.083 7  11620495.19545  23826772.218    23826782.4964
  22302061.028     3547158.288 8   2771835.79646  22302060.385    22302067.8944
  23913555.871    -6509623.760 8  -4890074.56545  23913555.630    23913563.1604
  22557552.768     5692367.678 8   4445432.36646  22557552.471    22557557.7624
  22383577.440   -12245860.667 8  -9524571.03146  22383576.912    22383583.3664
  20342834.825   -26645454.238 9 -20720667.06548  20342834.479    20342839.0254
  23355276.206    10819061.946 8   8438237.09746  23355275.629    23355282.8814
  21036651.128   -20284450.922 9 -15783718.41047  21036650.690    21036656.5164
  22094593.731   -16047565.121 8 -12493349.07947  22094593.521    22094600.5004
  20557556.079   -24686969.749 9 -19209113.82448  20557556.030    20557561.4124
 01  5 15  0 32 30.0000000  0 10 17 15 09 18 31 14 23 21 03 29
  23845222.710    15005047.412 7  11696044.61045  23845222.326    23845232.6524
  22317697.171     3629326.704 8   2835863.05846  22317696.560    22317704.0944
  23921341.974    -6468707.616 8  -4858191.85445  23921341.680    23921349.3134
  22569945.644     5757492.417 8   4496178.86346  22569945.332    22569950.6434
  22383717.534   -12245124.528 8  -9523997.42446  22383716.975    22383723.5084
  20337578.460   -26673076.536 9 -20742190.90248  20337578.128    20337582.6474
  23366675.679    10878966.125 8   8484915.63946  23366675.078    23366682.3014
  21037700.921   -20278934.321 9 -15779419.76947  21037700.483    21037706.3094
  22105936.565   -15987958.183 8 -12446902.16947  22105936.349    22105943.3524
  20550166.084   -24725804.299 9 -19239374.48148  20550166.046    20550171.4114
 01  5 15  0 33  0.0000000  0 10 17 15 09 18 31 14 23 21 03 29
  23863716.351    15102231.320 7  11771772.15845  23863715.932    23863726.5024
  22333391.750     3711801.990 8   2900129.44746  22333391.145    22333398.6514
  23929232.041    -6427245.280 8  -4825883.55545  23929231.747    23929239.3464
  22582354.834     5822703.086 8   4546992.33746  22582354.512    22582359.8894
  22383966.146   -12243817.548 8  -9522979.00046  22383965.653    22383972.2124
  20332422.454   -26700171.497 9 -20763303.83048  20332422.117    20332426.6064
  23378081.769    10938905.555 8   8531621.63646  23378081.211    23378088.4614
  21038778.719   -20273270.401 9 -15775006.33047  21038778.287    21038784.1054
  22117356.656   -15927945.235 8 -12400138.88647  22117356.462    22117363.4694
  20542865.115   -24764171.166 9 -19269270.71048  20542865.071    20542870.4194
 01  5 15  0 33 30.0000000  0 10 17 15 09 18 31 14 23 21 03 29
  23882253.189    15199642.229 7  11847676.56345  23882252.780    23882263.3764
  22349144.495     3794582.990 8   2964634.05046  22349143.919    22349151.4144
  23937225.699    -6385238.166 8  -4793150.74845  23937225.513    23937233.1054
  22594780.255     5887999.020 8   4597872.22746  22594779.899    22594785.2824
  22384323.290   -12241940.731 8  -9521516.55646  22384322.806    22384329.3464
  20327366.718   -26726739.521 9 -20784006.16348  20327366.357    20327370.8494
  23389494.512    10998879.784 8   8578354.72446  23389493.980    23389501.2204
  21039884.617   -20267459.027 9 -15770477.99147  21039884.161    21039889.9904
  22128853.465   -15867529.444 8 -12353061.70247  22128853.254    22128860.2904
  20535653.092   -24802070.345 9 -19298802.50848  20535653.053    20535658.3914
 01  5 15  0 34  0.0000000  0 10 17 15 09 18 31 14 23 21 03 29
  23900833.004    15297278.886 7  11923756.87645  23900832.687    23900843.2354
  22364955.235     3877668.681 8   3029376.07246  22364954.644    22364962.1694
  23945322.739    -6342687.478 8  -4759994.39145  23945322.568    23945330.2494
  22607221.920     5953379.958 8   4648818.37046  22607221.556    22607226.8734
  22384788.781   -12239494.816 8  -9519610.65146  22384788.303    22384794.8084
  20322411.285   -26752780.422 9 -20804297.74448  20322410.928    20322415.4034
  23400913.916    11058888.838 8   8625114.96846  23400913.395    23400920.6824
  21041018.417   -20261500.806 9 -15765835.22647  21041017.976    21041023.8134
  22140426.440   -15806713.162 8 -12305672.43847  22140426.242    22140433.2774
  20528530.123   -24839501.609 9 -19327969.69648  20528530.094    20528535.4244
 01  5 15  0 34 30.0000000  0 10 17 15 09 18 31 14 23 21 03 29
  23919455.630    15395140.260 7  12000012.29645  23919455.335    23919465.9314
  22380823.751     3961058.263 8   3094354.89146  22380823.188    22380830.7344
  23953523.277    -6299593.854 8  -4726414.95245  23953523.110    23953530.6544
  22619679.721     6018845.907 8   4699830.76046  22619679.352    22619684.6344
  22385362.523   -12236479.956 8  -9517261.42546  22385362.026    22385368.5104
  20317556.200   -26778293.872 9 -20824178.33048  20317555.849    20317560.3104
  23412339.997    11118932.963 8   8671902.53746  23412339.405    23412346.7984
  21042180.193   -20255395.502 9 -15761077.85547  21042179.762    21042185.6144
  22152075.224   -15745498.814 8 -12257973.00847  22152074.987    22152082.0534
  20521496.309   -24876464.508 9 -19356771.92848  20521496.274    20521501.5924
 01  5 15  0 35  0.0000000  0 10 17 15 09 18 31 14 23 21 03 29
  23938120.686    15493224.855 7  12076441.64845  23938120.344    23938130.9624
  22396749.836     4044750.311 8   3159569.40446  22396749.273    22396756.8664
  23961826.716    -6255958.581 8  -4692413.45145  23961826.573    23961834.1544
  22632153.541     6084396.024 8   4750908.73346  22632153.176    22632158.4654
  22386044.363   -12232896.960 8  -9514469.48346  22386043.894    22386050.3594
  20312801.425   -26803280.405 9 -20843648.33248  20312801.060    20312805.5264
  23423772.638    11179012.077 8   8718717.36846  23423772.060    23423779.5514
  21043369.974   -20249143.135 9 -15756205.88247  21043369.548    21043375.3654
  22163799.105   -15683889.448 8 -12209965.76646  22163798.881    22163805.9854
  20514551.570   -24912959.224 9 -19385209.33448  20514551.522    20514556.8164
 01  5 15  0 35 30.0000000  0 10 17 15 09 18 31 14 23 21 03 29
  23956827.834    15591530.965 7  12153043.61145  23956827.523    23956838.0934
  22412733.303     4128743.439 8   3225018.51246  22412732.718    22412740.2864
  23970232.945    -6211783.250 8  -4657991.13045  23970232.883    23970240.3814
  22644643.304     6150029.857 8   4802051.93846  22644642.920    22644648.1944
  22386834.161   -12228746.707 8  -9511235.53046  22386833.667    22386840.1844
  20308146.837   -26827740.194 9 -20862707.88648  20308146.483    20308150.9464
  23435211.961    11239126.039 8   8765559.35546  23435211.441    23435218.9014
  21044587.655   -20242744.320 9 -15751219.79747  21044587.215    21044593.0484
  22175597.696   -15621887.657 8 -12161652.74146  22175597.463    22175604.5984
  20507695.968   -24948985.589 9 -19413281.79448  20507695.928    20507701.2054
 01  5 15  0 36  0.0000000  0 10 17 15 09 18 31 14 23 21 03 29
  23975577.187    15690058.312 7  12229817.97945  23975576.803    23975587.5934
  22428774.043     4213037.637 8   3290702.22746  22428773.463    22428781.0444
  23978741.920    -6167068.163 8  -4623148.22145  23978741.943    23978749.3924
  22657149.036     6215747.848 8   4853260.70746  22657148.682    22657153.9394
  22387731.850   -12224028.976 8  -9507559.38446  22387731.426    22387737.9174
  20303592.604   -26851672.545 9 -20881356.44948  20303592.256    20303596.7124
  23446658.194    11299275.928 8   8812429.34046  23446657.626    23446665.1594
  21045833.441   -20236197.659 9 -15746118.50647  21045833.013    21045838.8544
  22187470.594   -15559495.282 8 -12113035.36446  22187470.374    22187477.5294
  20500929.665   -24984542.677 9 -19440988.58048  20500929.612    20500934.9084
 01  5 15  0 36 30.0000000  0 10 17 15 09 18 31 14 23 21 03 29
  23994368.085    15788804.529 7  12306762.85945  23994367.714    23994378.6614
  22444871.641     4297630.816 8   3356618.91046  22444871.049    22444878.6674
  23987353.213    -6121815.404 8  -4587886.34645  23987353.181    23987360.6954
  22669670.571     6281548.783 8   4904534.11646  22669670.204    22669675.5124
  22388737.277   -12218745.480 8  -9503442.38846  22388736.870    22388743.3684
  20299138.586   -26875078.505 9 -20899594.83848  20299138.229    20299142.6934
  23458111.081    11359460.622 8   8859326.44946  23458110.478    23458118.0304
  21047107.091   -20229504.596 9 -15740903.13547  21047106.661    21047112.4984
  22199417.155   -15496716.048 8 -12064116.53946  22199416.923    22199424.0384
  20494252.513   -25019631.153 9 -19468330.21848  20494252.454    20494257.7434
 01  5 15  0 37  0.0000000  0 10 17 15 09 18 31 14 23 21 03 29
  24013200.438    15887768.626 7  12383877.52345  24013200.058    24013211.0214
  22461025.998     4382522.294 8   3422768.04746  22461025.386    22461033.0364
  23996066.717    -6076026.039 8  -4552206.33245  23996066.668    23996074.1364
  22682207.843     6347432.538 8   4955872.05246  22682207.504    22682212.8524
  22389850.313   -12212896.769 8  -9498884.95546  22389849.849    22389856.3314
  20294784.792   -26897957.818 9 -20917422.85248  20294784.423    20294788.8934
  23469570.599    11419680.390 8   8906250.86146  23469569.985    23469577.5594
  21048408.656   -20222664.823 9 -15735573.44347  21048408.240    21048414.0604
  22211436.900   -15433552.068 8 -12014897.91346  22211436.672    22211443.7984
  20487664.641   -25054250.667 9 -19495306.43348  20487664.585    20487669.8534
 01  5 15  0 37 30.0000000  0 11 17 15 09 18 31 25 14 23 21 03 29
  24032072.928    15986943.319 7  12461156.29745  24032072.592    24032083.4644
  22477235.813     4467705.043 8   3489144.13246  22477235.204    22477242.8534
  24004880.929    -6029707.246 7  -4516113.78945  24004880.857    24004888.2814
  22694759.745     6413393.002 8   5007269.76846  22694759.405    22694764.7304
  22391069.534   -12206489.814 8  -9493892.53646  22391069.085    22391075.5454
  24610625.788    -5127627.077 7  -3979713.10645  24610625.640    24610640.0804
  20290530.045   -26920316.445 9 -20934845.13748  20290529.689    20290534.1334
  23481035.575    11479929.361 8   8953198.05346  23481034.978    23481042.6484
  21049737.067   -20215683.961 9 -15730133.81147  21049736.641    21049742.4634
  22223528.213   -15370012.039 8 -11965386.25546  22223527.982    22223535.1354
  20481164.857   -25088407.082 9 -19521921.78648  20481164.805    20481170.0804
 01  5 15  0 38  0.0000000  0 11 17 15 09 18 31 25 14 23 21 03 29
  24050986.949    16086336.564 7  12538605.37745  24050986.578    24050997.5834
  22493502.542     4553187.037 8   3555753.40346  22493501.912    22493509.5824
  24013797.300    -5982851.156 7  -4479602.57945  24013797.194    24013804.7674
  22707327.876     6479438.889 8   5058734.03546  22707327.564    22707332.8884
  22392396.646   -12199515.862 8  -9488458.30546  22392396.187    22392402.6494
  24592271.568    -5224077.533 7  -4054868.84345  24592271.416    24592285.7624
  20286376.152   -26942145.286 9 -20951854.60548  20286375.784    20286380.2244
  23492507.968    11540217.069 8   9000175.42446  23492507.406    23492515.0134
  21051094.098   -20208552.673 9 -15724576.96847  21051093.671    21051099.4984
  22235692.307   -15306089.367 8 -11915576.43946  22235692.081    22235699.2104
  20474755.006   -25122090.874 9 -19548168.86948  20474754.942    20474760.2294
 01  5 15  0 38 30.0000000  0 11 17 15 09 18 31 25 14 23 21 03 29
  24069941.998    16185945.535 7  12616222.54445  24069941.626    24069952.5234
  22509825.762     4638965.763 8   3622593.89046  22509825.142    22509832.7804
  24022815.471    -5935460.479 7  -4442674.78345  24022815.341    24022822.9354
  22719911.949     6545568.603 8   5110263.63046  22719911.673    22719917.0114
  22393831.161   -12191977.302 8  -9482584.12346  22393830.694    22393837.1224
  24573904.711    -5320594.361 7  -4130076.25145  24573904.520    24573918.8084
  20282322.674   -26963446.356 9 -20968452.82448  20282322.310    20282326.7334
  23503987.471    11600542.138 8   9047181.90746  23503986.928    23503994.5164
  21052479.516   -20201272.387 9 -15718904.02347  21052479.082    21052484.9084
  22247928.529   -15241788.080 8 -11865471.59646  22247928.290    22247935.3864
  20468434.801   -25155303.571 9 -19574048.86548  20468434.748    20468440.0584
 01  5 15  0 39  0.0000000  0 11 17 15 09 18 31 25 14 23 21 03 29
  24088937.669    16285767.964 7  12694006.04645  24088937.246    24088948.2184
  22526205.078     4725039.281 8   3689664.09346  22526204.473    22526212.1234
  24031934.877    -5887537.509 7  -4405332.22445  24031934.647    24031942.4144
  22732511.767     6611781.004 8   5161857.67746  22732511.489    22732516.8824
  22395372.873   -12183875.498 8  -9476271.03346  22395372.426    22395378.7944
  24555525.501    -5417175.923 7  -4205334.12945  24555525.184    24555539.3744
  20278369.466   -26984220.532 9 -20984640.47148  20278369.077    20278373.5254
  23515473.926    11660903.692 8   9094216.83146  23515473.317    23515481.0454
  21053893.037   -20193844.288 9 -15713115.89647  21053892.603    21053898.4244
  22260236.051   -15177111.893 8 -11815074.62546  22260235.829    22260242.9524
  20462204.079   -25188046.097 9 -19599562.49048  20462204.021    20462209.3234
 01  5 15  0 39 30.0000000  0 11 17 15 09 18 31 25 14 23 21 03 29
  24107973.690    16385802.235 7  12771954.59945  24107973.027    24107984.2164
  22542640.232     4811406.368 8   3756963.03646  22542639.625    22542647.3074
  24041155.349    -5839083.645 7  -4367575.99045  24041155.234    24041162.9284
  22745127.227     6678075.476 8   5213515.64546  22745126.906    22745132.3534
  22397021.609   -12175211.409 8  -9469519.81846  22397021.195    22397027.5544
  24537134.526    -5513819.413 7  -4280640.23745  24537134.256    24537148.2134
  20274516.459   -27004468.094 9 -21000417.77848  20274516.095    20274520.5264
  23526967.333    11721301.487 8   9141279.99346  23526966.759    23526974.4244
  21055334.656   -20186268.745 9 -15707212.88247  21055334.195    21055340.0114
  22272614.339   -15112063.764 8 -11764387.83246  22272614.120    22272621.2604
  20456062.831   -25220318.540 9 -19624709.82448  20456062.752    20456068.0374
 01  5 15  0 40  0.0000000  0 11 17 15 09 18 31 25 14 23 21 03 29
  24127049.643    16486046.588 7  12850066.85745  24127049.101    24127060.3264
  22559130.988     4898065.499 8   3824489.55246  22559130.399    22559138.0734
  24050476.569    -5790100.496 7  -4329407.32345  24050476.432    24050484.2474
  22757758.114     6744451.203 8   5265236.92846  22757757.772    22757763.2814
  22398777.003   -12165986.617 8  -9462331.68246  22398776.600    22398782.9804
  24518732.091    -5610522.806 7  -4355993.04845  24518731.856    24518745.8424
  20270763.491   -27024189.975 9 -21015785.46248  20270763.123    20270767.5454
  23538467.568    11781735.273 8   9188371.19646  23538466.978    23538474.6154
  21056804.309   -20178545.484 9 -15701194.76247  21056803.858    21056809.6874
  22285062.867   -15046646.616 8 -11713413.49146  22285062.642    22285069.7744
  20450010.957   -25252121.172 9 -19649491.06648  20450010.882    20450016.1674
 01  5 15  0 40 30.0000000  0 11 17 15 09 18 31 25 14 23 21 03 29
  24146165.225    16586499.348 7  12928341.52245  24146164.768    24146176.0874
  22575677.056     4985015.151 8   3892242.44846  22575676.434    22575684.1324
  24059898.085    -5740589.981 7  -4290827.72845  24059897.979    24059905.8064
  22770404.408     6810907.689 8   5317021.17146  22770404.077    22770409.5954
  22400638.964   -12156202.164 8  -9454707.44846  22400638.520    22400644.8904
  24500318.609    -5707283.980 7  -4431390.91245  24500318.614    24500332.1534
  20267110.458   -27043386.671 9 -21030743.91148  20267110.082    20267114.4994
  23549974.528    11842204.820 8   9235490.26045  23549973.943    23549981.5654
  21058302.071   -20170674.544 9 -15695061.56647  21058301.621    21058307.5084
  22297580.981   -14980863.546 8 -11662154.01446  22297580.766    22297587.9304
  20444048.415   -25283454.374 9 -19673906.52548  20444048.330    20444053.6304
 01  5 15  0 41  0.0000000  0 11 17 15 09 18 31 25 14 23 21 03 29
  24165320.240    16687159.064 7  13006777.40245  24165319.817    24165331.1404
  22592278.157     5072254.269 8   3960220.90446  22592277.552    22592285.2824
  24069419.771    -5690553.400 7  -4251838.20845  24069419.598    24069427.3594
  22783066.033     6877444.746 8   5368868.16846  22783065.722    22783071.2044
  22402607.304   -12145858.861 8  -9446647.75046  22402606.828    22402613.1544
  24481894.586    -5804100.553 7  -4506831.92045  24481894.449    24481908.2094
  20263557.352   -27062058.311 9 -21045293.22948  20263556.991    20263561.4204
  23561488.386    11902710.490 8   9282637.47245  23561487.842    23561495.4024
  21059827.938   -20162656.027 9 -15688813.37647  21059827.515    21059833.3894
  22310168.245   -14914717.171 8 -11610611.44546  22310168.032    22310175.2224
  20438175.265   -25314317.937 9 -19697956.03048  20438175.196    20438180.4804
 01  5 15  0 41 30.0000000  0 11 17 15 09 18 31 25 14 23 21 03 29
  24184514.613    16788024.623 7  13085373.69545  24184514.039    24184525.4304
  22608934.114     5159781.739 8   4028424.03846  22608933.511    22608941.3134
  24079041.327    -5639992.110 7  -4212439.82945  24079041.217    24079048.7854
  22795742.979     6944062.339 8   5420777.92346  22795742.636    22795748.1564
  22404681.750   -12134957.891 8  -9438153.48946  22404681.222    22404687.5654
  24463460.549    -5900970.147 7  -4582314.27845  24463460.519    24463474.0824
  20260104.111   -27080205.100 9 -21059433.56948  20260103.742    20260108.1594
  23573009.176    11963252.372 8   9329812.90945  23573008.606    23573016.2094
  21061381.872   -20154489.955 9 -15682450.20747  21061381.449    21061387.3344
  22322824.169   -14848210.010 8 -11558787.73946  22322823.940    22322831.1324
  20432391.429   -25344712.008 9 -19721639.69848  20432391.350    20432396.6464
 01  5 15  0 42  0.0000000  0 11 17 15 09 18 31 25 14 23 21 03 29
  24203747.842    16889094.378 7  13164129.12045  24203747.114    24203758.6924
  22625644.638     5247595.943 8   4096850.60646  22625644.023    22625651.8554
  24088762.390    -5588907.922 7  -4172633.98945  24088762.296    24088769.7624
  22808435.107     7010759.693 8   5472749.83946  22808434.819    22808440.3034
  22406862.085   -12123500.298 8  -9429225.51146  22406861.533    22406867.8724
  24445016.934    -5997890.171 7  -4657835.94045  24445016.937    24445030.0924
  20256750.660   -27097827.621 9 -21073165.39148  20256750.304    20256754.7174
  23584536.805    12023830.291 8   9377016.40645  23584536.215    23584543.8134
  21062963.854   -20146176.674 9 -15675972.33647  21062963.414    21062969.3004
  22335548.071   -14781345.439 8 -11506685.53446  22335547.862    22335555.1184
  20426696.941   -25374636.620 9 -19744957.55648  20426696.872    20426702.1764
 01  5 15  0 42 30.0000000  0 11 17 15 09 18 31 25 14 23 21 03 29
  24223019.602    16990367.376 7  13243042.90945  24223019.071    24223030.6514
  22642409.653     5335696.530 8   4165500.33146  22642409.036    22642416.9364
  24098582.698    -5537302.027 7  -4132421.64245  24098582.638    24098589.9834
  22821142.505     7077537.218 8   5524784.22546  22821142.192    22821147.6904
  22409148.225   -12111486.584 8  -9419864.19046  22409147.680    22409154.0514
  24426564.298    -6094857.684 8  -4733394.57145  24426564.311    24426577.5154
  20253496.977   -27114925.751 9 -21086488.59748  20253496.636    20253501.0334
  23596071.425    12084444.928 8   9424248.52445  23596070.830    23596078.4704
  21064573.975   -20137715.443 9 -15669379.17547  21064573.539    21064579.4334
  22348339.558   -14714125.626 8 -11454306.52246  22348339.397    22348346.6334
  20421091.826   -25404091.613 9 -19767909.47748  20421091.782    20421097.0554
 01  5 15  0 43  0.0000000  0 11 17 15 09 18 31 25 14 23 21 03 29
  24242329.732    17091841.874 7  13322113.71845  24242329.274    24242340.9054
  22659228.883     5424081.876 8   4234371.94946  22659228.252    22659236.1934
  24108501.950    -5485175.930 7  -4091803.92645  24108501.842    24108509.2124
  22833865.022     7144394.258 8   5576880.56846  22833864.714    22833870.1864
  22411539.927   -12098918.040 8  -9410070.54146  22411539.414    22411545.7694
  24408103.034    -6191870.582 7  -4808988.61645  24408103.043    24408116.1084
  20250342.948   -27131500.150 9 -21099403.69848  20250342.610    20250347.0084
  23607612.963    12145096.205 8   9471509.19645  23607612.419    23607620.1414
  21066212.284   -20129105.913 9 -15662670.45547  21066211.865    21066217.7664
  22361198.174   -14646553.504 8 -11401652.97646  22361198.005    22361205.2574
  20415576.060   -25433077.104 9 -19790495.55248  20415575.991    20415581.2424
 01  5 15  0 43 30.0000000  0 11 17 15 09 18 31 25 14 23 21 03 29
  24261677.926    17193516.025 7  13401340.11045  24261677.510    24261689.0174
  22676102.010     5512750.191 8   4303464.06446  22676101.351    22676109.2934
  24118519.885    -5432531.539 7  -4050782.35945  24118519.716    24118527.2724
  22846602.488     7211330.019 8   5629038.24246  22846602.196    22846607.7014
  22414036.962   -12085796.036 8  -9399845.61746  22414036.435    22414042.8104
  24389633.658    -6288926.244 7  -4884615.99645  24389633.519    24389646.5824
  20247288.432   -27147551.804 9 -21111911.46448  20247288.094    20247292.5064
  23619161.428    12205783.610 8   9518798.00545  23619160.965    23619168.6164
  21067878.775   -20120348.565 9 -15655846.54947  21067878.341    21067884.2734
  22374123.238   -14578632.019 8 -11348727.20146  22374123.067    22374130.3204
  20410149.497   -25461593.701 9 -19812716.25548  20410149.438    20410154.6784
 01  5 15  0 44  0.0000000  0 11 17 15 09 18 31 25 14 23 21 03 29
  24281063.972    17295389.251 7  13480721.62345  24281063.469    24281075.0834
  22693028.909     5601701.218 8   4372776.46346  22693028.254    22693036.2174
  24128636.317    -5379369.246 7  -4009357.21645  24128636.073    24128643.7744
  22859355.093     7278345.341 8   5681257.90546  22859354.828    22859360.3024
  22416639.266   -12072120.931 8  -9389189.71946  22416638.744    22416645.0924
  24371156.655    -6386021.643 7  -4960274.32045  24371156.480    24371169.6524
  20244333.501   -27163079.936 9 -21124011.29348  20244333.150    20244337.5684
  23630717.085    12266508.190 8   9566115.78345  23630716.555    23630724.2044
  21069573.495   -20111442.837 9 -15648907.02847  21069573.058    21069578.9874
  22387114.329   -14510363.411 8 -11295530.95146  22387114.133    22387121.4324
  20404812.314   -25489640.698 9 -19834571.03848  20404812.253    20404817.4764
 01  5 15  0 44 30.0000000  0 11 17 15 09 18 31 25 14 23 21 03 29
  24300487.456    17397459.414 7  13560256.56945  24300487.002    24300498.5834
  22710009.184     5690933.003 8   4442307.63046  22710008.548    22710016.5224
  24138850.725    -5325691.412 7  -3967530.36245  24138850.621    24138858.2854
  22872122.709     7345439.067 8   5733538.67146  22872122.439    22872127.9254
  22419346.433   -12057894.505 8  -9378104.21846  22419345.970    22419352.3204
  24352672.537    -6483154.871 7  -5035962.13345  24352672.467    24352685.5034
  20241477.972   -27178085.804 9 -21135704.16148  20241477.637    20241482.0444
  23642279.741    12327269.456 8   9613462.13745  23642279.160    23642286.7944
  21071296.312   -20102389.210 9 -15641852.25847  21071295.875    21071301.8194
  22400170.863   -14441750.995 8 -11242066.80246  22400170.675    22400178.0194
  20399564.356   -25517218.793 9 -19856060.44448  20399564.315    20399569.5094
 01  5 15  0 45  0.0000000  0 11 17 15 09 18 31 25 14 23 21 03 29
  24319948.306    17499725.521 7  13639944.19945  24319947.730    24319959.5304
  22727042.793     5780444.901 8   4512057.07746  22727042.186    22727050.1484
  24149163.121    -5271499.328 7  -3925302.78845  24149163.112    24149170.6504
  22884905.185     7412611.369 8   5785880.66246  22884904.910    22884910.4304
  22422158.450   -12043117.328 8  -9366589.55146  22422157.993    22422164.3664
  24334181.657    -6580323.257 8  -5111677.37345  24334181.568    24334194.5134
  20238721.796   -27192569.532 9 -21146990.16648  20238721.455    20238725.8404
  23653849.451    12388068.067 8   9660837.61245  23653848.871    23653856.4174
  21073047.359   -20093187.426 9 -15634682.03747  21073046.923    21073052.8754
  22413292.373   -14372797.403 8 -11188336.79346  22413292.161    22413299.5464
  20394405.666   -25544327.845 9 -19877184.36348  20394405.597    20394410.8094
 01  5 15  0 45 30.0000000  0 11 17 15 09 18 31 25 14 23 21 03 29
  24339446.037    17602185.468 7  13719782.88045  24339445.542    24339457.3504
  22744129.309     5870234.942 8   4582023.24846  22744128.727    22744136.7094
  24159573.010    -5216795.445 7  -3882676.41145  24159572.796    24159580.4164
  22897702.442     7479861.408 8   5838283.22546  22897702.171    22897707.7564
  22425074.987   -12027791.127 8  -9354647.07946  22425074.524    22425080.8414
  24315684.572    -6677524.451 8  -5187418.16745  24315684.393    24315697.2984
  20236064.813   -27206532.036 9 -21157870.01848  20236064.464    20236068.8254
  23665426.095    12448903.434 8   9708241.71445  23665425.596    23665433.0234
  21074826.618   -20083837.378 9 -15627396.28947  21074826.171    21074832.1214
  22426478.168   -14303505.937 8 -11134343.51746  22426477.922    22426485.3404
  20389336.061   -25570968.513 9 -19897943.30448  20389336.016    20389341.2074
 01  5 15  0 46  0.0000000  0 11 17 15 09 18 31 25 14 23 21 03 29
  24358980.369    17704838.293 7  13799771.85345  24358979.878    24358991.7084
  22761268.614     5960302.380 8   4652205.57046  22761268.032    22761276.0714
  24170080.072    -5161580.776 7  -3839652.01545  24170080.002    24170087.5114
  22910514.593     7547189.642 8   5890746.73246  22910514.301    22910519.9024
  22428095.792   -12011916.660 8  -9342277.38946  22428095.313    22428101.6464
  24297181.825    -6774755.269 8  -5263182.05445  24297181.722    24297194.5034
  20233506.985   -27219973.419 9 -21168343.80148  20233506.635    20233510.9604
  23677009.849    12509776.270 8   9755675.01945  23677009.338    23677016.8494
  21076634.144   -20074338.864 9 -15619994.85247  21076633.700    21076639.6404
  22439727.792   -14233878.848 8 -11080088.71146  22439727.569    22439734.9664
  20384355.662   -25597140.587 9 -19918337.10648  20384355.604    20384360.8084
 01  5 15  0 46 30.0000000  0 10 15 09 18 31 25 14 23 21 03 29
  22778460.605     6050646.287 8   4722603.33846  22778460.000    22778468.0214
  24180684.058    -5105856.538 7  -3796230.57045  24180683.901    24180691.5304
  22923341.647     7614595.952 8   5943271.06546  22923341.351    22923346.9514
  22431220.782   -11995495.110 8  -9329481.40946  22431220.290    22431226.6024
  24278673.912    -6872013.299 8  -5338967.15245  24278673.894    24278686.5334
  20231048.353   -27232893.676 9 -21178411.51648  20231047.997    20231052.3204
  23688600.835    12570686.998 8   9803137.84945  23688600.263    23688607.8214
  21078470.058   -20064690.966 9 -15612477.01747  21078469.629    21078475.5614
  22453040.889   -14163918.520 8 -11025574.25246  22453040.643    22453048.0754
  20379464.440   -25622843.847 9 -19938365.60148  20379464.390    20379469.6054
 01  5 15  0 47  0.0000000  0 11 15 09 18 31 25 14 23 11 21 03 29
  22795704.237     6141261.927 8   4793212.82546  22795703.592    22795711.6434
  24191383.892    -5049628.072 7  -3752416.20545  24191383.674    24191391.5784
  22936182.849     7682076.653 8   5995853.37246  22936182.491    22936188.1584
  22434448.990   -11978530.733 8  -9316262.44546  22434448.495    22434454.8584
  24260160.766    -6969299.219 8  -5414773.99045  24260160.811    24260173.2764
  20228687.991   -27245297.299 9 -21188076.65848  20228687.641    20228691.9564
  23700198.394    12631632.152 8   9850627.49345  23700197.824    23700205.3164
  24707031.737    -4242125.826 8  -2278804.22845  24707031.328    24707038.7924
  21080333.685   -20054897.380 9 -15604845.65347  21080333.269    21080339.2144
  22466416.117   -14093631.524 8 -10970805.24346  22466415.864    22466423.3134
  20374661.754   -25648082.166 9 -19958031.80548  20374661.695    20374666.9004
 01  5 15  0 47 30.0000000  0 11 15 09 18 31 25 14 23 11 21 03 29
  22813000.049     6232151.887 8   4864036.08646  22812999.459    22813007.5564
  24202180.254    -4992893.099 7  -3708207.15045  24202179.980    24202187.8464
  22949038.934     7749635.499 8   6048496.57246  22949038.581    22949044.2564
  22437781.020   -11961020.600 8  -9302618.21046  22437780.527    22437786.9094
  24241643.562    -7066606.558 8  -5490597.54545  24241643.600    24241655.8644
  20226426.680   -27257180.540 9 -21197336.30448  20226426.317    20226430.6374
  23711803.202    12692616.010 8   9898147.32545  23711802.661    23711810.2274
  24687732.100    -4343545.723 8  -2357832.58345  24687731.749    24687739.0704
  21082225.855   -20044953.960 9 -15597097.53747  21082225.439    21082231.3824
  22479853.760   -14023016.598 8 -10915780.70646  22479853.541    22479860.9424
  20369948.254   -25672851.694 9 -19977332.71248  20369948.198    20369953.3894
 01  5 15  0 48  0.0000000  0 11 15 09 18 31 25 14 23 11 21 03 29
  22830347.906     6323314.981 8   4935072.16246  22830347.280    22830355.4204
  24213072.778    -4935653.110 7  -3663604.58945  24213072.608    24213080.3984
  22961909.841     7817272.467 8   6101200.64046  22961909.481    22961915.2194
  22441216.711   -11942966.251 8  -9288549.91346  22441216.179    22441222.5974
  24223122.771    -7163932.636 8  -5566435.68845  24223122.772    24223134.8874
  20224264.321   -27268543.848 9 -21206190.80848  20224263.953    20224268.2694
  23723415.514    12753638.782 8   9945697.44145  23723414.981    23723422.5924
  24668440.158    -4444925.725 7  -2436829.94545  24668439.775    24668447.0534
  21084146.527   -20034860.742 9 -15589232.69747  21084146.109    21084152.0234
  22493353.284   -13952076.593 8 -10860502.85346  22493353.056    22493360.4364
  20365323.981   -25697152.453 9 -19996268.34348  20365323.920    20365329.1054
 01  5 15  0 48 30.0000000  0 11 15 09 18 31 25 14 23 11 21 03 29
  22847747.447     6414749.524 8   5006319.77746  22847746.774    22847754.8984
  24224061.006    -4877910.107 8  -3618610.06445  24224060.792    24224068.4324
  22974795.451     7884986.869 8   6153965.05346  22974795.170    22974800.8714
  22444755.518   -11924369.418 8  -9274058.90846  22444754.999    22444761.4564
  24204598.881    -7261274.975 8  -5642286.48645  24204598.945    24204610.9004
  20222200.616   -27279388.424 9 -21214641.10948  20222200.252    20222204.5724
  23735035.155    12814700.261 8   9993277.76145  23735034.607    23735042.2244
  24649155.974    -4546264.452 7  -2515795.11345  24649155.715    24649162.8374
  21086095.716   -20024617.864 9 -15581251.24047  21086095.280    21086101.1764
  22506914.049   -13880814.675 8 -10804974.16946  22506913.828    22506921.2084
  20360788.707   -25720985.324 9 -20014839.38948  20360788.649    20360793.8134
 01  5 15  0 49  0.0000000  0 11 15 09 18 31 25 14 23 11 21 03 29
  22865198.348     6506453.946 8   5077777.65746  22865197.633    22865205.7704
  24235144.648    -4819665.987 7  -3573225.06745  24235144.308    24235151.9954
  22987695.781     7952778.270 8   6206789.45646  22987695.499    22987701.2274
  22448397.306   -11905231.652 8  -9259146.38946  22448396.808    22448403.2804
  24186072.276    -7358631.510 8  -5718148.35745  24186072.272    24186084.1164
  20220235.552   -27289714.884 9 -21222687.68548  20220235.192    20220239.4984
  23746662.237    12875800.457 8  10040888.24045  23746661.689    23746669.2544
  24629879.971    -4647560.177 8  -2594726.77245  24629879.549    24629886.8194
  21088073.391   -20014225.218 9 -15573153.08047  21088072.951    21088078.8524
  22520535.392   -13809234.204 8 -10749197.26346  22520535.198    22520542.5984
  20356342.410   -25744350.859 9 -20033046.28048  20356342.337    20356347.4934
 01  5 15  0 49 30.0000000  0 11 15 09 18 31 25 14 23 11 21 03 29
  22882700.286     6598427.067 8   5149444.92246  22882699.607    22882707.7194
  24246323.139    -4760922.757 8  -3527451.14445  24246322.901    24246330.4924
  23000610.685     8020646.463 8   6259673.69746  23000610.399    23000616.1984
  22452141.804   -11885554.049 8  -9243813.22246  22452141.326    22452147.8764
  24167543.489    -7455999.682 8  -5794019.30245  24167543.459    24167555.1444
  20218368.943   -27299523.951 9 -21230331.09848  20218368.585    20218372.8644
  23758296.670    12936939.475 8  10088528.94445  23758296.104    23758303.6674
  24610612.517    -4748811.249 8  -2673623.66945  24610612.008    24610619.2194
  21090079.650   -20003682.177 9 -15564937.73447  21090079.212    21090085.0974
  22534216.814   -13737337.927 8 -10693174.27146  22534216.616    22534224.0224
  20351984.972   -25767249.198 9 -20050889.11548  20351984.914    20351990.0534
 01  5 15  0 50  0.0000000  0 11 15 09 18 31 25 14 23 11 21 03 29
  22900252.997     6690667.035 8   5221320.12546  22900252.315    22900260.4604
  24257596.208    -4701682.553 7  -3481289.98545  24257595.906    24257603.5264
  23013540.079     8088590.673 8   6312617.18946  23013539.777    23013545.5924
  22455988.689   -11865338.623 8  -9228060.97746  22455988.173    22455994.7604
  24149012.883    -7553377.117 8  -5869897.47345  24149012.797    24149024.4354
  20216600.576   -27308816.703 9 -21237572.18848  20216600.219    20216604.4964
  23769938.425    12998117.047 8  10136199.70245  23769937.864    23769945.4024
  24591353.854    -4850015.925 7  -2752484.37545  24591353.221    24591360.4594
  21092114.409   -19992989.501 9 -15556605.78547  21092113.973    21092119.8434
  22547957.727   -13665129.158 8 -10636907.77546  22547957.514    22547965.0104
  20347716.237   -25789681.282 9 -20068368.63748  20347716.189    20347721.3424
 01  5 15  0 50 30.0000000  0 11 15 09 18 31 25 14 23 11 21 03 29
  22917856.391     6783173.408 8   5293402.92046  22917855.739    22917863.8894
  24268963.544    -4641946.529 7  -3434742.44945  24268963.257    24268970.9324
  23026484.128     8156611.637 8   6365620.48746  23026483.807    23026489.6234
  22459937.784   -11844586.002 8  -9211890.12246  22459937.269    22459943.8634
  24130481.150    -7650760.523 8  -5945780.28845  24130480.977    24130492.5914
  20214930.467   -27317593.171 9 -21244410.98148  20214930.105    20214934.3684
  23781587.633    13059334.127 8  10183901.27545  23781587.140    23781594.7234
  24572104.581    -4951171.566 7  -2831306.89645  24572104.017    24572111.2364
  21094177.771   -19982146.455 9 -15548156.67047  21094177.355    21094183.2354
  22561757.745   -13592610.012 8 -10580399.44046  22561757.540    22561765.0214
  20343536.397   -25811646.373 9 -20085484.26948  20343536.353    20343541.4934
 01  5 15  0 51  0.0000000  0 11 15 09 18 31 25 14 23 11 21 03 29
  22935510.122     6875943.930 8   5365691.52046  22935509.497    22935517.6194
  24280424.888    -4581717.152 8  -3387810.49245  24280424.672    24280432.2674
  23039442.550     8224708.402 8   6418682.82646  23039442.206    23039448.0594
  22463988.721   -11823298.196 8  -9195302.25546  22463988.244    22463994.8234
  24111948.561    -7748148.298 8  -6021666.52645  24111948.346    24111959.9034
  20213358.339   -27325854.673 9 -21250848.50348  20213357.993    20213362.2634
  23793244.268    13120590.026 8  10231633.06845  23793243.850    23793251.5294
  24552864.774    -5052276.935 7  -2910090.22745  24552864.166    24552871.5064
  21096269.759   -19971153.094 9 -15539590.42947  21096269.327    21096275.2194
  22575616.209   -13519783.852 8 -10523651.86246  22575615.986    22575623.4774
  20339445.158   -25833145.958 9 -20102237.17248  20339445.105    20339450.2364
 01  5 15  0 51 30.0000000  0 11 15 09 18 31 25 14 23 11 21 03 29
  22953213.864     6968977.306 8   5438184.95946  22953213.201    22953221.3624
  24291979.722    -4520996.029 8  -3340495.36545  24291979.442    24291987.0874
  23052415.293     8292880.650 8   6471804.02946  23052414.975    23052420.8194
  22468141.302   -11801476.536 8  -9178298.39346  22468140.820    22468147.3664
  24093415.689    -7845537.537 8  -6097553.89545  24093415.656    24093426.9644
  20211884.104   -27333601.823 9 -21256885.23148  20211883.754    20211888.0004
  23804908.356    13181885.192 8  10279395.46045  23804907.945    23804915.7344
  24533634.891    -5153330.252 7  -2988833.00445  24533634.228    24533641.6334
  21098390.300   -19960009.565 9 -15530907.17247  21098389.869    21098395.7764
  22589532.463   -13446653.539 8 -10466667.27946  22589532.252    22589539.7494
  20335442.465   -25854180.039 9 -20118627.34448  20335442.406    20335447.5674
 01  5 15  0 52  0.0000000  0 11 15 09 18 31 25 14 23 11 21 03 29
  22970967.451     7062272.573 8   5510882.45646  22970966.801    22970975.0104
  24303627.853    -4459784.904 8  -3292798.40845  24303627.619    24303635.2844
  23065402.481     8361128.570 8   6524984.15646  23065402.174    23065408.0704
  22472395.248   -11779122.121 8  -9160879.39546  22472394.735    22472401.2704
  24074883.098    -7942925.510 8  -6173440.28745  24074883.106    24074894.2444
  20210507.640   -27340835.052 9 -21262521.50348  20210507.277    20210511.5484
  23816580.053    13243219.886 8  10327188.64945  23816579.575    23816587.4064
  24514415.296    -5254329.300 7  -3067533.48745  24514414.624    24514422.0194
  21100539.416   -19948715.882 9 -15522106.91447  21100538.971    21100544.8944
  22603506.099   -13373222.054 8 -10409448.01846  22603505.868    22603513.4104
  20331528.335   -25874748.786 9 -20134654.92048  20331528.286    20331533.4464
 01  5 15  0 52 30.0000000  0 11 15 09 18 31 25 14 23 11 21 03 29
  22988770.526     7155828.111 8   5583782.76346  22988769.915    22988778.1704
  24315368.802    -4398085.994 8  -3244721.36545  24315368.620    24315376.1204
  23078404.035     8429451.861 8   6578223.03746  23078403.703    23078409.6354
  22476750.200   -11756236.830 8  -9143046.72846  22476749.690    22476756.2614
  24056351.228    -8040309.611 7  -6249323.63845  24056351.205    24056362.3204
  20209228.807   -27347555.323 9 -21267758.06948  20209228.432    20209232.7044
  23828259.270    13304594.152 8  10375012.67045  23828258.760    23828266.6094
  24495206.415    -5355272.236 7  -3146190.24945  24495205.733    24495213.2754
  21102717.126   -19937272.019 9 -15513189.63547  21102716.693    21102722.6144
  22617536.458   -13299492.377 8 -10351996.39946  22617536.176    22617543.7814
  20327702.609   -25894852.938 9 -20150320.47248  20327702.564    20327707.7044
 01  5 15  0 53  0.0000000  0 11 15 09 18 31 25 14 23 11 21 03 29
  23006622.881     7249642.606 8   5656884.86246  23006622.286    23006630.5624
  24327202.208    -4335901.157 7  -3196265.68745  24327201.949    24327209.4824
  23091419.854     8497850.420 8   6631520.57346  23091419.582    23091425.4844
  22481205.909   -11732821.848 8  -9124801.31846  22481205.425    22481211.9944
  24037820.586    -8137687.214 8  -6325201.94145  24037820.564    24037831.6994
  20208047.419   -27353763.580 9 -21272595.66348  20208047.050    20208051.3074
  23839946.058    13366008.330 8  10422867.79645  23839945.469    23839953.3624
  24476008.546    -5456157.125 7  -3224801.80045  24476008.032    24476015.4784
  21104923.629   -19925676.907 9 -15504154.49447  21104923.176    21104929.0814
  22631622.981   -13225467.327 8 -10294314.61646  22631622.724    22631630.3634
  20323965.267   -25914492.866 9 -20165624.29748  20323965.202    20323970.3554
 01  5 15  0 53 30.0000000  0 11 15 09 18 31 25 14 23 11 21 03 29
  23024524.343     7343714.838 8   5730187.79146  23024523.783    23024532.0104
  24339127.703    -4273232.059 7  -3147432.66045  24339127.453    24339135.0254
  23104449.991     8566324.080 8   6684876.61746  23104449.673    23104455.5914
  22485762.167   -11708878.712 8  -9106144.36046  22485761.691    22485768.2504
  24019291.741    -8235055.624 8  -6401073.08745  24019291.581    24019302.6884
  20206963.347   -27359460.267 9 -21277034.63048  20206962.981    20206967.2224
  23851640.418    13427462.577 8  10470754.13145  23851639.903    23851647.8904
  24456822.141    -5556981.827 7  -3303366.45845  24456821.704    24456829.1074
  21107158.952   -19913930.170 9 -15495001.20747  21107158.518    21107164.4094
  22645765.179   -13151149.834 8 -10236404.96046  22645764.933    22645772.6144
  20320316.159   -25933668.876 9 -20180566.62248  20320316.098    20320321.2434
 01  5 15  0 54  0.0000000  0 11 15 09 18 31 25 14 23 11 21 03 29
  23042474.531     7438043.255 8   5803690.33846  23042473.967    23042482.2474
  24351145.119    -4210080.501 7  -3098223.68045  24351144.864    24351152.4374
  23117494.284     8634872.441 8   6738290.86546  23117494.012    23117499.9154
  22490418.623   -11684409.014 8  -9087077.09846  22490418.137    22490424.6764
  24000765.174    -8332412.171 8  -6476935.02445  24000765.026    24000776.0894
  20205976.463   -27364646.279 9 -21281075.66948  20205976.084    20205980.3444
  23863342.468    13488957.093 8  10518671.85845  23863341.902    23863350.0444
  24437647.608    -5657744.431 8  -3381882.67245  24437647.348    24437654.4014
  21109423.076   -19902032.023 9 -15485729.93247  21109422.661    21109428.5604
  22659962.466   -13076542.920 8 -10178269.77946  22659962.234    22659969.9144
  20316755.251   -25952381.417 9 -20195147.80848  20316755.183    20316760.3274
 01  5 15  0 54 30.0000000  0 11 15 09 18 31 25 14 23 11 21 03 29
  23060473.145     7532626.345 8   5877391.33846  23060472.577    23060480.8844
  24363253.828    -4146448.661 7  -3048640.45145  24363253.571    24363261.2224
  23130552.919     8703495.514 8   6791763.33546  23130552.672    23130558.5444
  22495175.009   -11659414.269 8  -9067600.70446  22495174.525    22495181.0594
  23982241.267    -8429754.375 8  -6552785.79745  23982241.271    23982252.1124
  20205086.594   -27369322.442 9 -21284719.42248  20205086.230    20205090.4974
  23875052.258    13550492.052 8  10566621.09145  23875051.746    23875059.7834
  24418485.222    -5758443.158 8  -3460349.12445  24418484.914    24418492.1024
  21111716.072   -19889982.258 9 -15476340.51447  21111715.653    21111721.5604
  22674214.271   -13001649.641 8 -10119911.45246  22674214.018    22674221.6934
  20313282.454   -25970630.977 9 -20209368.22348  20313282.397    20313287.5364
 01  5 15  0 55  0.0000000  0 11 15 09 18 31 25 14 23 11 21 03 29
  23078519.923     7627462.553 8   5951289.56446  23078519.284    23078527.6974
  24375453.549    -4082338.514 7  -2998684.52945  24375453.405    24375461.0544
  23143625.687     8772192.941 8   6845293.73746  23143625.422    23143631.3174
  22500031.007   -11633896.344 8  -9047716.63746  22500030.463    22500037.0224
  23963720.536    -8527079.911 8  -6628623.58445  23963720.592    23963731.3504
  20204293.542   -27373489.971 9 -21287966.83948  20204293.199    20204297.4424
  23886769.754    13612067.580 8  10614601.93045  23886769.224    23886777.2564
  24399335.389    -5859076.070 8  -3538764.33945  24399335.102    24399342.2084
  21114037.989   -19877780.549 9 -15466832.70247  21114037.556    21114043.5074
  22688520.001   -12926472.894 8 -10061332.25046  22688519.764    22688527.4204
  20309897.635   -25988418.306 9 -20223228.46348  20309897.581    20309902.7234
 01  5 15  0 55 30.0000000  0 11 15 09 18 31 25 14 23 11 21 03 29
  23096614.685     7722550.752 8   6025384.14346  23096614.036    23096622.4724
  24387743.949    -4017751.847 7  -2948357.29045  24387743.846    24387751.4344
  23156712.566     8840964.751 8   6898882.09446  23156712.312    23156718.2164
  22504986.185   -11607856.684 8  -9027426.02746  22504985.643    22504992.2404
  23945203.605    -8624385.573 8  -6704445.87345  23945203.631    23945214.3734
  20203597.203   -27377149.097 9 -21290818.09748  20203596.851    20203601.1114
  23898494.995    13673684.204 8  10662614.79745  23898494.496    23898502.5944
  24380198.525    -5959640.867 8  -3617126.46445  24380198.200    24380205.1964
  21116388.887   -19865426.508 9 -15457206.18547  21116388.478    21116394.3954
  22702879.157   -12851015.231 8 -10002534.14646  22702878.904    22702886.6004
  20306600.700   -26005743.587 9 -20236728.66248  20306600.653    20306605.7934
 01  5 15  0 56  0.0000000  0 11 15 09 18 31 25 14 23 11 21 03 29
  23114757.275     7817889.959 8   6099674.33446  23114756.587    23114765.0424
  24400124.670    -3952690.355 7  -2897660.05945  24400124.565    24400132.2844
  23169813.667     8909811.352 8   6952528.72146  23169813.402    23169819.3304
  22510040.459   -11581296.487 8  -9006729.79946  22510039.894    22510046.5354
  23926691.060    -8721668.520 8  -6780250.47645  23926691.067    23926701.8574
  20202997.518   -27380300.479 9 -21293273.70748  20202997.156    20203001.4134
  23910228.271    13735342.447 8  10710660.09445  23910227.804    23910235.9054
  24361075.059    -6060135.518 8  -3695433.89445  24361074.619    24361081.7494
  21118768.936   -19852919.365 9 -15447460.37247  21118768.491    21118774.4194
  22717291.267   -12775279.418 8  -9943519.30646  22717291.026    22717298.7464
  20303391.691   -26022607.004 9 -20249868.96848  20303391.634    20303396.7774
 01  5 15  0 56 30.0000000  0 11 15 09 18 31 25 14 23 11 21 03 29
  23132947.175     7913478.003 8   6174158.40446  23132946.465    23132954.9324
  24412595.217    -3887156.805 7  -2846594.98745  24412595.132    24412603.0374
  23182928.791     8978731.498 8   7006232.67046  23182928.523    23182934.5134
  22515193.285   -11554218.002 8  -8985629.71246  22515192.776    22515199.4334
  23908183.253    -8818926.666 8  -6856035.78345  23908183.259    23908193.8824
  20202494.062   -27382945.938 9 -21295335.09348  20202493.735    20202497.9684
  23921969.303    13797041.700 8  10758737.35045  23921968.806    23921976.9844
  24341965.226    -6160558.384 8  -3773685.41745  24341964.839    24341971.8054
  21121177.978   -19840259.921 9 -15437595.87947  21121177.543    21121183.4464
  22731755.596   -12699269.083 8  -9884290.55246  22731755.353    22731763.0874
  20300270.326   -26039009.745 9 -20262650.30648  20300270.275    20300275.4084
 01  5 15  0 57  0.0000000  0 11 15 09 18 31 25 14 23 11 21 03 29
  23151184.227     8009313.843 8   6248835.57546  23151183.569    23151192.0214
  24425155.583    -3821152.481 7  -2795163.07945  24425155.467    24425163.4614
  23196058.005     9047725.750 8   7059994.35946  23196057.703    23196063.7434
  22520444.558   -11526622.530 8  -8964126.77746  22520444.061    22520450.6754
  23889680.689    -8916157.214 8  -6931799.56145  23889680.599    23889691.2014
  20202086.910   -27385085.565 9 -21297002.32848  20202086.576    20202090.8004
  23933718.258    13858782.598 8  10806847.04545  23933717.672    23933725.9584
  24322869.482    -6260907.154 8  -3851879.24845  24322868.999    24322875.9654
  21123616.119   -19827447.458 9 -15427612.15047  21123615.665    21123621.5634
  22746271.732   -12622986.739 8  -9824849.82946  22746271.504    22746279.2394
  20297236.622   -26054952.016 9 -20275072.83548  20297236.556    20297241.7134
 01  5 15  0 57 30.0000000  0 11 15 09 18 31 25 14 23 11 21 03 29
  23169468.117     8105396.016 8   6323704.68646  23169467.411    23169475.9254
  24437805.002    -3754679.546 7  -2743366.02645  24437804.790    24437812.8094
  23209201.276     9116793.819 8   7113813.54646  23209200.945    23209207.0464
  22525793.946   -11498511.478 8  -8942222.08846  22525793.438    22525800.1074
  23871183.877    -9013357.317 8  -7007539.62745  23871183.784    23871194.3414
  20201775.822   -27386720.328 9 -21298276.16448  20201775.492    20201779.7004
  23945475.245    13920565.546 8  10854989.52245  23945474.713    23945482.9834
  24303788.301    -6361179.635 8  -3930013.59845  24303787.759    24303794.7024
  21126083.443   -19814481.665 9 -15417508.94747  21126082.987    21126088.9034
  22760839.035   -12546435.248 8  -9765199.40046  22760838.809    22760846.5584
  20294290.482   -26070434.073 9 -20287136.76248  20294290.425    20294295.5494
 01  5 15  0 58  0.0000000  0 11 15 09 18 31 25 14 23 11 21 03 29
  23187798.608     8201723.056 8   6398764.60346  23187797.951    23187806.4634
  24450543.159    -3687740.186 7  -2691205.52045  24450542.921    24450550.8984
  23222358.603     9185935.910 8   7167690.42146  23222358.285    23222364.3434
  22531241.055   -11469886.985 8  -8919917.32146  22531240.537    22531247.1604
  23852693.517    -9110524.016 8  -7083253.69645  23852693.424    23852703.9454
  20201560.608   -27387851.453 9 -21299157.54948  20201560.251    20201564.4684
  23957240.231    13982390.538 8  10903164.74745  23957239.728    23957247.9484
  24284721.895    -6461374.099 8  -4008087.12945  24284721.358    24284728.2934
  21128579.938   -19801362.540 9 -15407286.26347  21128579.479    21128585.3974
  22775456.947   -12469617.713 8  -9705341.65246  22775456.709    22775464.4924
  20291431.722   -26085456.929 9 -20298842.86548  20291431.674    20291436.7734
 01  5 15  0 58 30.0000000  0 10 15 18 31 25 14 23 11 21 03 29
  23206175.653     8298294.400 8   6474014.88146  23206174.969    23206183.5044
  23235530.214     9255152.610 8   7221625.44746  23235529.887    23235535.9084
  22536785.665   -11440749.890 8  -8897213.12046  22536785.168    22536791.8454
  23834210.031    -9207654.218 8  -7158939.31245  23834209.951    23834220.4554
  20201441.209   -27388478.723 9 -21299646.32348  20201440.854    20201445.0834
  23969013.493    14044258.890 8  10951373.76945  23969012.968    23969021.2154
  24265670.970    -6561487.247 8  -4086097.31745  24265670.456    24265677.2894
  21131105.862   -19788088.541 9 -15396942.90147  21131105.390    21131111.3324
  22790125.129   -12392536.251 8  -9645278.25646  22790124.865    22790132.7064
  20288660.430   -26100020.084 9 -20310190.76348  20288660.373    20288665.4694
 01  5 15  0 59  0.0000000  0 10 15 18 31 25 14 23 11 21 03 29
  23224598.838     8395108.378 8   6549454.21746  23224598.105    23224606.7114
  23248715.955     9324443.469 8   7275618.25446  23248715.579    23248721.5984
  22542427.446   -11411101.911 8  -8874110.83046  22542426.963    22542433.6754
  23815734.039    -9304745.016 8  -7234594.19245  23815733.881    23815744.4374
  20201417.473   -27388603.502 9 -21299743.55148  20201417.110    20201421.3424
  23980794.954    14106170.606 8  10999616.57545  23980794.372    23980802.6564
  24246635.762    -6661517.618 8  -4164043.01645  24246635.264    24246642.0124
  21133661.363   -19774659.309 9 -15386478.57747  21133660.911    21133666.8624
  22804842.959   -12315194.132 8  -9585011.75446  22804842.685    22804850.4584
  20285976.478   -26114124.299 9 -20321181.04648  20285976.411    20285981.5144
 01  5 15  0 59 30.0000000  0 10 15 18 31 25 14 23 11 21 03 29
  23243067.700     8492162.393 8   6625080.59546  23243066.979    23243075.6514
  23261915.489     9393807.361 8   7329667.95746  23261915.131    23261921.1694
  22548165.935   -11380946.024 8  -8850612.76846  22548165.460    22548172.1834
  23797265.887    -9401794.837 8  -7310217.19045  23797265.736    23797276.1764
  20201488.920   -27388227.992 9 -21299450.94048  20201488.550    20201492.7754
  23992584.544    14168124.627 8  11047892.34945  23992584.020    23992592.1924
  24227616.520    -6761464.081 8  -4241923.30945  24227616.050    24227622.8034
  21136246.172   -19761076.052 9 -15375894.23147  21136245.702    21136251.6674
  22819609.553   -12237595.513 8  -9524545.38846  22819609.243    22819617.0704
  20283379.505   -26127771.460 9 -20331815.18748  20283379.429    20283384.5314
 01  5 15  1  0  0.0000000  0 10 15 18 31 25 14 23 11 21 03 29
  23261581.861     8589454.656 8   6700892.62646  23261581.142    23261589.8984
  23275128.790     9463243.746 8   7383774.14346  23275128.424    23275134.5534
  22554000.757   -11350284.048 8  -8826720.35146  22554000.270    22554006.9914
  23778805.885    -9498801.794 8  -7385806.76945  23778805.806    23778816.0794
  20201655.341   -27387353.383 9 -21298769.42048  20201654.985    20201659.2074
  24004382.123    14230121.067 8  11096201.17645  24004381.682    24004389.7034
  24208613.604    -6861324.802 8  -4319736.75345  24208613.087    24208619.9004
  21138860.295   -19747338.845 9 -15365189.92547  21138859.852    21138865.8094
  22834424.361   -12159743.530 8  -9463881.59546  22834424.088    22834431.8864
  20280869.310   -26140962.427 9 -20342093.85048  20280869.256    20280874.3354
 01  5 15  1  0 30.0000000  0 10 15 18 31 25 14 23 11 21 03 29
  23280141.232     8686984.396 8   6776889.69146  23280140.564    23280149.3214
  23288356.010     9532753.265 8   7437937.32546  23288355.697    23288361.8444
  22559931.616   -11319117.356 8  -8802434.64846  22559931.145    22559937.8784
  23760354.712    -9595762.130 8  -7461360.01845  23760354.659    23760364.8524
  20201916.712   -27385979.812 9 -21297699.10048  20201916.354    20201920.5694
  24016188.030    14292160.985 8  11144543.88945  24016187.628    24016195.5754
  24189627.531    -6961097.088 8  -4397481.31545  24189627.010    24189633.7204
  21141503.800   -19733447.111 9 -15354365.21647  21141503.372    21141509.3374
  22849286.895   -12081640.617 8  -9403022.26946  22849286.608    22849294.4814
  20278445.983   -26153697.117 9 -20352016.97448  20278445.924    20278450.9914
 01  5 15  1  1  0.0000000  0 10 15 18 31 25 14 23 11 21 03 29
  23298745.601     8784750.433 8   6853070.88846  23298744.924    23298753.6944
  23301597.212     9602335.925 8   7492157.50546  23301596.920    23301603.0754
  22565958.183   -11287447.692 8  -8777757.03146  22565957.673    22565964.3834
  23741912.900    -9692673.196 8  -7536874.89445  23741912.886    23741923.0044
  20202272.834   -27384108.374 9 -21296240.82848  20202272.478    20202276.6944
  24028002.201    14354244.703 8  11192920.71945  24028001.901    24028009.8954
  24170658.608    -7060778.803 8  -4475155.31745  24170658.222    24170664.7994
  21144176.867   -19719400.062 9 -15343419.47947  21144176.441    21144182.4054
  22864196.657   -12003289.478 8  -9341969.53346  22864196.366    22864204.2734
  20276109.369   -26165976.174 9 -20361585.06348  20276109.302    20276114.3754
 01  5 15  1  1 30.0000000  0 10 15 18 31 25 14 23 11 21 03 29
  23317394.524     8882750.690 8   6929434.59846  23317393.864    23317402.5664
  23314852.272     9671991.386 8   7546434.40546  23314851.983    23314858.1654
  22572080.104   -11255277.047 8  -8752689.03346  22572079.574    22572086.2844
  23723480.885    -9789532.728 8  -7612349.58245  23723480.887    23723490.9244
  20202723.432   -27381740.444 9 -21294395.68348  20202723.086    20202727.3054
  24039824.671    14416372.091 8  11241331.57745  24039824.316    24039832.4464
  24151707.287    -7160368.135 8  -4552757.31045  24151706.992    24151713.4704
  21146879.544   -19705197.385 9 -15332352.47347  21146879.120    21146885.1064
  22879153.048   -11924693.316 8  -9280725.86746  22879152.762    22879160.7424
  20273859.237   -26177800.688 9 -20370798.96248  20273859.149    20273864.2294
 01  5 15  1  2  0.0000000  0 10 15 18 31 25 14 23 11 21 03 29
  23336087.846     8980984.045 8   7005979.93546  23336087.162    23336095.9264
  23328121.231     9741719.818 8   7600768.17946  23328120.908    23328127.0564
  22578297.099   -11222606.883 8  -8727231.80546  22578296.561    22578303.2624
  23705059.375    -9886337.282 8  -7687781.46745  23705059.400    23705069.3884
  20203268.377   -27378876.685 9 -21292164.17448  20203268.029    20203272.2224
  24051655.563    14478543.931 8  11289777.08045  24051655.155    24051663.3894
  24132774.051    -7259862.547 8  -4630285.29745  24132773.650    24132780.2974
  21149611.944   -19690838.536 9 -15321163.77147  21149611.529    21149617.5084
  22894155.557   -11845854.702 8  -9219293.27046  22894155.286    22894163.3074
  20271695.561   -26189170.802 9 -20379658.78248  20271695.477    20271700.5444
 01  5 15  1  2 30.0000000  0 10 15 18 31 25 14 23 11 21 03 29
  23354825.136     9079448.727 8   7082705.53546  23354824.501    23354833.2044
  23341404.038     9811520.650 8   7655158.37446  23341403.662    23341409.7774
  22584608.682   -11189439.404 8  -8701387.05746  22584608.161    22584614.8714
  23686648.804    -9983084.492 8  -7763168.63545  23686648.765    23686658.7354
  20203907.411   -27375518.555 9 -21289547.44248  20203907.066    20203911.2354
  24063494.941    14540760.039 8  11338257.08145  24063494.519    24063502.7664
  24113859.187    -7359260.343 7  -4707738.02045  24113858.813    24113865.5184
  21152374.089   -19676323.479 9 -15309853.35247  21152373.666    21152379.6384
  22909203.591   -11766777.078 8  -9157674.43546  22909203.319    22909211.3484
  20269618.136   -26200087.585 9 -20388165.36148  20269618.055    20269623.1194
 01  5 15  1  3  0.0000000  0 10 15 18 31 25 14 23 11 21 03 29
  23373606.198     9178143.426 8   7159610.35646  23373605.580    23373614.3624
  23354700.625     9881394.149 8   7709605.18346  23354700.257    23354706.3774
  22591014.448   -11155776.603 8  -8675156.35046  22591013.957    22591020.7144
  23668249.606   -10079771.862 8  -7838509.19045  23668249.482    23668259.4874
  20204640.371   -27371666.986 9 -21286546.21448  20204640.009    20204644.1934
  24075342.834    14603020.741 8  11386771.82945  24075342.417    24075350.5754
  24094963.071    -7458559.423 8  -4785113.83245  24094962.755    24094969.4734
  21155165.954   -19661652.238 9 -15298421.22947  21155165.534    21155171.5254
  22924296.490   -11687463.457 8  -9095871.69246  22924296.260    22924304.2804
  20267626.871   -26210551.687 9 -20396319.19648  20267626.784    20267631.8744
 01  5 15  1  3 30.0000000  0 10 15 18 31 25 14 23 11 21 03 29
  23392430.711     9277066.709 8   7236693.30046  23392430.128    23392439.0434
  23368011.031     9951340.501 8   7764108.76946  23368010.633    23368016.7124
  22597514.316   -11121619.888 8  -8648540.77946  22597513.797    22597520.5954
  23649862.449   -10176396.364 8  -7913800.77545  23649862.332    23649872.1324
  20205467.042   -27367322.805 9 -21283161.12948  20205466.677    20205470.8514
  24087199.275    14665326.627 8  11435321.77545  24087198.948    24087206.9874
  24076086.253    -7557757.367 7  -4862410.84645  24076085.844    24076092.5034
  21157987.678   -19646824.017 9 -15286866.78847  21157987.240    21157993.2414
  22939433.784   -11607916.589 8  -9033887.21546  22939433.551    22939441.6264
  20265721.677   -26220563.421 9 -20404120.54148  20265721.623    20265726.6754
 01  5 15  1  4  0.0000000  0 10 15 18 31 25 14 23 11 21 03 29
  23411298.418     9376216.936 8   7313953.08345  23411297.816    23411306.7844
  23381335.303    10021359.523 8   7818668.95946  23381334.858    23381340.9634
  22604107.764   -11086971.236 8  -8621541.88346  22604107.252    22604114.0124
  23631487.602   -10272955.545 8  -7989041.43845  23631487.492    23631497.2844
  20206387.215   -27362487.195 9 -21279393.11548  20206386.850    20206391.0394
  24099064.373    14727677.908 8  11483907.09645  24099063.935    24099072.1424
  24057229.051    -7656852.070 8  -4939627.42745  24057228.558    24057235.2074
  21160839.406   -19631838.194 9 -15275189.53747  21160838.976    21160844.9974
  22954614.944   -11528139.356 8  -8971723.22546  22954614.690    22954622.7784
  20263902.382   -26230123.911 9 -20411570.26448  20263902.312    20263907.3584
 01  5 15  1  4 30.0000000  0 10 15 18 31 25 14 23 11 21 03 29
  23430209.119     9475592.679 8   7391388.58845  23430208.504    23430217.5084
  23394673.361    10091451.237 8   7873285.80446  23394672.895    23394679.0444
  22610794.411   -11051832.831 8  -8594161.35446  22610793.873    22610800.6464
  23613125.814   -10369446.446 8  -8064228.93145  23613125.744    23613135.3664
  20207400.667   -27357161.470 9 -21275243.19448  20207400.288    20207404.4774
  24110938.161    14790074.886 7  11532528.03445  24110937.765    24110945.9224
  24038391.948    -7755841.278 7  -5016761.79345  24038391.430    24038398.1024
  21163721.128   -19616694.579 9 -15263389.33647  21163720.701    21163726.7194
  22969839.375   -11448134.927 8  -8909382.20746  22969839.101    22969847.1974
  20262168.803   -26239233.845 9 -20418668.90748  20262168.732    20262173.7594
 01  5 15  1  5  0.0000000  0 10 15 18 31 25 14 23 11 21 03 29
  23449162.386     9575192.125 8   7468998.40145  23449161.783    23449170.8264
  23408025.054    10161614.955 8   7927958.76045  23408024.622    23408030.8504
  22617573.835   -11016206.983 8  -8566401.00946  22617573.280    22617580.0464
  23594777.484   -10465866.643 8  -8139361.32745  23594777.387    23594786.9194
  20208507.113   -27351346.950 9 -21270712.39348  20208506.732    20208510.9484
  24122820.665    14852517.527 7  11581184.53345  24122820.229    24122828.4924
  24019575.272    -7854723.109 8  -5093812.46445  24019574.695    24019581.4334
  21166632.930   -19601393.111 9 -15251466.13047  21166632.505    21166638.5054
  22985106.358   -11367906.622 8  -8846866.73446  22985106.112    22985114.2624
  20260520.829   -26247894.067 9 -20425417.12248  20260520.763    20260525.8174
 01  5 15  1  5 30.0000000  0 10 15 18 31 25 14 23 11 21 03 29
  23468157.925     9675013.742 8   7546781.34945  23468157.283    23468166.3744
  23421390.653    10231851.065 8   7982688.12745  23421390.229    23421396.3834
  22624445.714   -10980095.315 8  -8538262.09346  22624445.122    22624451.8974
  23576443.225   -10562212.902 8  -8214436.13345  23576443.148    23576452.5304
  20209706.368   -27345044.623 9 -21265801.48448  20209706.002    20209710.2074
  24134711.903    14915006.280 7  11629876.96845  24134711.587    24134719.9014
  24000779.474    -7953495.430 8  -5170777.83345  24000778.857    24000785.5924
  21169574.954   -19585932.821 9 -15239419.16747  21169574.509    21169580.5394
  23000415.431   -11287457.055 8  -8784178.85546  23000415.203    23000423.3564
  20258958.222   -26256105.577 9 -20431815.69348  20258958.145    20258963.2004
 01  5 15  1  6  0.0000000  0 10 15 18 31 25 14 23 11 21 03 29
  23487195.415     9775055.900 8   7624736.11845  23487194.783    23487203.8414
  23434769.902    10302159.114 8   8037473.55245  23434769.446    23434775.6434
  22631409.628   -10943499.933 8  -8509746.26546  22631409.041    22631415.7884
  23558123.436   -10658483.076 8  -8289451.63245  23558123.361    23558132.7034
  20210998.215   -27338255.953 9 -21260511.60548  20210997.847    20211002.0494
  24146612.047    14977541.203 8  11678605.36545  24146611.668    24146620.0494
  23982004.866    -8052156.281 8  -5247656.36545  23982004.374    23982011.0094
  21172547.111   -19570314.051 9 -15227248.71547  21172546.671    21172552.7084
  23015765.997   -11206789.737 8  -8721321.29346  23015765.757    23015773.9714
  20257480.872   -26263869.058 9 -20437865.15048  20257480.798    20257485.8384
 01  5 15  1  6 30.0000000  0 10 15 18 31 25 14 23 11 21 03 29
  23506274.604     9875317.271 8   7702861.73245  23506274.005    23506283.0984
  23448162.891    10372539.486 8   8092315.30645  23448162.495    23448168.6404
  22638465.230   -10906422.578 8  -8480854.87746  22638464.647    22638471.4174
  23539818.757   -10754673.970 8  -8364405.37046  23539818.663    23539827.9934
  20212382.477   -27330981.703 9 -21254843.35548  20212382.099    20212386.2904
  24158521.163    15040123.231 8  11727370.48945  24158520.774    24158529.1904
  23963251.991    -8150702.971 8  -5324445.94845  23963251.526    23963258.0904
  21175549.557   -19554536.003 9 -15214954.14847  21175549.132    21175555.1744
  23031157.527   -11125907.038 8  -8658295.90446  23031157.311    23031165.4804
  20256088.661   -26271185.120 9 -20443565.97048  20256088.572    20256093.6254
 01  5 15  1  7  0.0000000  0 10 15 18 31 25 14 23 11 21 03 29
  23525395.184     9975796.135 8   7781156.81645  23525394.578    23525403.6664
  23461569.601    10442991.929 8   8147213.22645  23461569.233    23461575.3294
  22645612.157   -10868865.475 8  -8451589.64846  22645611.569    22645618.3564
  23521529.640   -10850783.058 8  -8439295.35246  23521529.564    23521538.8824
  20213858.804   -27323223.402 9 -21248797.92348  20213858.417    20213862.6204
  24170439.190    15102752.266 8  11776172.23645  24170438.763    24170447.2594
  23944521.177    -8249133.561 8  -5401145.07145  23944520.703    23944527.2734
  21178582.354   -19538598.727 9 -15202535.50947  21178581.933    21178587.9654
  23046589.455   -11044812.030 8  -8595105.08246  23046589.228    23046597.4284
  20254781.412   -26278054.598 9 -20448918.80048  20254781.327    20254786.3774
 01  5 15  1  7 30.0000000  0 10 15 18 31 25 14 23 11 21 03 29
  23544556.919    10076491.070 8   7859620.26245  23544556.242    23544565.3244
  23474990.040    10513516.614 8   8202167.45545  23474989.642    23474995.7914
  22652850.000   -10830830.579 8  -8421952.12246  22652849.439    22652856.2024
  23503256.681   -10946807.435 8  -8514119.34846  23503256.634    23503265.9154
  20215427.130   -27314981.879 9 -21242375.95748  20215426.741    20215430.9284
  24182366.170    15165428.699 7  11825010.92945  24182365.706    24182374.2974
  23925812.938    -8347445.793 8  -5477751.97345  23925812.515    23925819.0344
  21181645.524   -19522501.637 9 -15189992.33947  21181645.082    21181651.1394
  23062061.196   -10963507.862 8  -8531751.27646  23062060.967    23062069.1984
  20253559.042   -26284478.230 9 -20453924.22148  20253558.953    20253564.0004
 01  5 15  1  8  0.0000000  0 10 15 18 31 25 14 23 11 21 03 29
  23563759.424    10177400.529 8   7938250.86945  23563758.848    23563767.9034
  23488424.176    10584113.198 8   8257177.71745  23488423.723    23488429.9644
  22660178.289   -10792320.293 8  -8391944.15746  22660177.735    22660184.5304
  23485000.269   -11042744.552 8  -8588875.34546  23485000.203    23485009.5364
  20217087.057   -27306258.843 9 -21235578.78648  20217086.672    20217090.8634
  24194302.249    15228152.685 8  11873886.67545  24194301.704    24194310.3654
  23907127.553    -8445637.852 8  -5554265.22945  23907127.181    23907133.6874
  21184739.194   -19506244.462 9 -15177324.42147  21184738.750    21184744.8204
  23077572.159   -10881997.691 8  -8468236.95246  23077571.909    23077580.1914
  20252421.251   -26290457.364 9 -20458583.28048  20252421.161    20252426.2164
 01  5 15  1  8 30.0000000  0 10 15 18 31 25 14 23 11 21 03 29
  23583002.420    10278522.663 8   8017047.19145  23583001.847    23583010.9604
  23501871.963    10654781.604 8   8312243.91245  23501871.513    23501877.8334
  22667596.621   -10753336.684 8  -8361567.36546  22667596.110    22667602.9094
  23466761.027   -11138591.817 8  -8663561.34846  23466760.950    23466770.2504
  20218838.414   -27297055.372 9 -21228407.24748  20218838.030    20218842.2204
  24206247.321    15290924.370 8  11922799.57245  24206246.753    24206255.4524
  23888465.505    -8543707.340 8  -5630682.96945  23888465.130    23888471.6524
  21187863.415   -19489826.715 9 -15164531.38447  21187862.958    21187869.0274
  23093121.728   -10800284.499 8  -8404564.42746  23093121.474    23093129.7504
  20251367.888   -26295992.746 9 -20462896.55348  20251367.790    20251372.8504
 01  5 15  1  9  0.0000000  0 10 15 18 31 25 14 23 11 21 03 29
  23602285.654    10379856.136 8   8096008.20245  23602285.078    23602294.1954
  23515333.440    10725522.057 8   8367366.26745  23515333.054    23515339.4324
  22675104.762   -10713881.459 8  -8330823.09046  22675104.252    22675111.0144
  23448539.502   -11234346.044 8  -8738174.84446  23448539.414    23448548.6484
  20220680.982   -27287372.517 9 -21220862.16848  20220680.604    20220684.8194
  24218201.654    15353744.604 8  11971750.32045  24218201.108    24218209.8844
  23869827.280    -8641651.605 8  -5707003.15145  23869826.912    23869833.4724
  21191018.266   -19473247.773 9 -15151612.74147  21191017.824    21191023.9084
  23108709.501   -10718370.911 8  -8340735.74146  23108709.233    23108717.4624
  20250398.883   -26301084.720 9 -20466864.31648  20250398.801    20250403.8794
 01  5 15  1  9 30.0000000  0 10 15 18 31 25 14 23 11 21 03 29
  23621608.723    10481399.136 8   8175132.45345  23621608.091    23621617.2924
  23528808.697    10796334.513 8   8422544.72845  23528808.365    23528814.6754
  22682702.173   -10673956.965 8  -8299713.15146  22682701.642    22682708.4064
  23430336.176   -11330004.588 8  -8812713.77846  23430336.076    23430345.1964
  20222614.470   -27277211.754 9 -21212944.69048  20222614.096    20222618.3254
  24230165.281    15416613.426 8  12020738.92245  24230164.706    24230173.5744
  23851213.252    -8739468.814 8  -5783224.32845  23851212.839    23851219.4344
  21194203.935   -19456507.031 9 -15138568.02347  21194203.488    21194209.5754
  23124334.731   -10636260.031 8  -8276753.34046  23124334.426    23124342.7174
  20249514.040   -26305734.540 9 -20470487.54548  20249513.963    20249519.0424
 01  5 15  1 10  0.0000000  0 10 15 18 31 25 14 23 11 21 03 29
  23640971.356    10583149.883 8   8254418.61645  23640970.717    23640979.9644
  23542297.505    10867218.375 8   8477778.82645  23542297.186    23542303.4614
  22690388.429   -10633565.661 8  -8268239.46046  22690387.921    22690394.6654
  23412151.463   -11425565.087 8  -8887176.36146  23412151.396    23412160.4224
  20224638.580   -27266574.957 9 -21204656.28048  20224638.224    20224642.4454
  24242138.100    15479530.676 8  12069765.27745  24242137.597    24242146.4494
  23832623.742    -8837156.931 8  -5859344.91745  23832623.308    23832629.9844
  21197420.312   -19439604.781 9 -15125397.45447  21197419.862    21197425.9824
  23139996.841   -10553955.654 8  -8212620.15346  23139996.554    23140004.7794
  20248713.091   -26309943.509 9 -20473767.25348  20248713.018    20248718.0834
 01  5 15  1 10 30.0000000  0 10 15 18 31 25 14 23 11 21 03 29
  23660373.352    10685107.229 8   8333865.74345  23660372.744    23660381.9664
  23555800.066    10938174.391 8   8533069.15145  23555799.710    23555806.0184
  22698163.220   -10592709.160 8  -8236403.29246  22698162.669    22698169.4154
  23393986.021   -11521024.314 8  -8961560.01346  23393985.911    23393994.9044
  20226753.173   -27255462.690 9 -21195997.37448  20226752.820    20226757.0244
  24254120.308    15542497.097 8  12118829.92845  24254119.802    24254128.6534
  23814059.337    -8934713.443 8  -5935362.94545  23814058.940    23814065.5794
  21200667.590   -19422540.218 9 -15112100.40047  21200667.143    21200673.2554
  23155695.327   -10471460.236 8  -8148338.11946  23155694.995    23155703.2654
  20247995.901   -26313712.242 9 -20476703.92148  20247995.814    20248000.9104
 01  5 15  1 11  0.0000000  0 10 15 18 31 25 14 23 11 21 03 29
  23679814.280    10787269.343 8   8413472.42345  23679813.706    23679822.9184
  23569316.229    11009202.070 8   8588415.32145  23569315.842    23569322.2694
  22706026.043   -10551389.651 8  -8204206.33246  22706025.516    22706032.3044
  23375840.322   -11616379.551 8  -9035862.62846  23375840.243    23375849.2494
  20228957.969   -27243876.433 9 -21186969.12848  20228957.594    20228961.8294
  24266111.939    15605513.046 8  12167933.17045  24266111.400    24266120.2984
  23795520.311    -9032136.152 8  -6011276.72045  23795519.955    23795526.6344
  21203945.870   -19405312.885 9 -15098676.51947  21203945.414    21203951.5444
  23171429.581   -10388776.633 8  -8083909.44446  23171429.263    23171437.5744
  20247362.379   -26317041.476 9 -20479298.12448  20247362.303    20247367.3764
 01  5 15  1 11 30.0000000  0 10 15 18 31 25 14 23 11 21 03 29
  23699293.764    10889634.405 8   8493237.24045  23699293.181    23699302.4714
  23582846.035    11080301.518 8   8643817.40145  23582845.656    23582852.0444
  22713976.505   -10509609.589 8  -8171650.49846  22713975.982    22713982.8334
  23357714.841   -11711628.701 8  -9110082.59346  23357714.831    23357723.8094
  20231252.689   -27231817.672 9 -21177572.69248  20231252.325    20231256.5534
  24278112.982    15668578.653 7  12217075.11845  24278112.452    24278121.3634
  23777007.229    -9129423.094 8  -6087084.68245  23777006.851    23777013.5494
  21207255.172   -19387922.651 9 -15085125.69647  21207254.703    21207260.8314
  23187199.082   -10305907.698 8  -8019336.35146  23187198.746    23187207.1094
  20246812.205   -26319932.661 9 -20481550.98648  20246812.114    20246817.1924
 01  5 15  1 12  0.0000000  0 10 15 18 31 25 14 23 11 21 03 29
  23718811.513    10992200.761 8   8573158.89745  23718810.939    23718820.4074
  23596389.477    11151472.466 8   8699275.21545  23596389.100    23596395.5154
  22722014.270   -10467371.357 8  -8138737.64046  22722013.707    22722020.5514
  23339610.184   -11806768.641 8  -9184217.45046  23339610.144    23339619.1324
  20233637.014   -27219287.797 9 -21167809.15648  20233636.635    20233640.8734
  24290123.459    15731694.329 8  12266256.05945  24290123.027    24290131.9244
  23758520.424    -9226571.713 8  -6162784.85145  23758519.988    23758526.7664
  21210595.566   -19370368.805 9 -15071447.38747  21210595.091    21210601.1884
  23203003.234   -10222856.820 8  -7954621.47146  23203002.915    23203011.2144
  20246345.252   -26322386.488 9 -20483463.04748  20246345.177    20246350.2304
 01  5 15  1 12 30.0000000  0 10 15 18 31 25 14 23 11 21 03 29
  23738367.373    11094967.096 8   8653236.40645  23738366.871    23738376.3474
  23609946.453    11222715.057 8   8754788.83045  23609946.125    23609952.6114
  22730138.745   -10424676.850 8  -8105469.26046  22730138.193    22730145.0734
  23321526.905   -11901796.431 8  -9258264.91646  23321526.853    23321535.7134
  20236110.795   -27206287.946 9 -21157679.41048  20236110.422    20236114.6654
  24302143.656    15794860.478 7  12315476.33645  24302143.227    24302152.2224
  23740060.337    -9323579.828 8  -6238375.55045  23740059.948    23740066.6544
  21213967.144   -19352651.151 9 -15057641.44047  21213966.686    21213972.7424
  23218841.359   -10139627.051 8  -7889767.22546  23218841.061    23218849.3664
  20245961.374   -26324403.790 9 -20485034.96648  20245961.273    20245966.3454
 01  5 15  1 13  0.0000000  0 10 15 18 31 25 14 23 11 21 03 29
  23757960.979    11197931.853 8   8733468.51945  23757960.456    23757970.0734
  23623517.146    11294029.480 8   8810358.43845  23623516.759    23623523.3754
  22738349.627   -10381528.337 8  -8071847.09546  22738349.108    22738355.9834
  23303465.563   -11996709.055 8  -9332222.64846  23303465.537    23303474.2314
  20238673.718   -27192819.664 9 -21147184.65048  20238673.348    20238677.6044
  24314173.659    15858077.594 7  12364736.32945  24314173.178    24314182.0794
  23721627.479    -9420445.170 8  -6313854.98945  23721627.049    23721633.7434
  21217370.089   -19334768.655 9 -15043707.03847  21217369.621    21217375.6594
  23234713.023   -10056221.280 8  -7824775.82646  23234712.723    23234721.0154
  20245660.325   -26325985.589 9 -20486267.52748  20245660.241    20245665.3124
 01  5 15  1 13 30.0000000  0 10 15 18 31 25 14 23 11 21 03 29
  23777591.928    11301092.875 8   8813853.55545  23777591.415    23777601.1784
  23637101.381    11365415.205 8   8865983.59345  23637101.005    23637107.7574
  22746646.398   -10337928.531 8  -8037873.27246  22746645.904    22746652.8454
  23285426.532   -12091504.248 8  -9406088.87846  23285426.465    23285435.0684
  20241325.424   -27178884.665 9 -21136326.21248  20241325.062    20241329.3074
  24326213.150    15921345.409 8  12414035.81645  24326212.673    24326221.5844
  23703222.087    -9517165.884 8  -6389221.69845  23703221.701    23703228.3554
  21220804.365   -19316721.402 9 -15029644.26247  21220803.893    21220809.9544
  23250617.509    -9972642.905 8  -7759649.92946  23250617.222    23250625.5134
  20245441.921   -26327133.265 9 -20487161.81248  20245441.852    20245446.9114
 01  5 15  1 14  0.0000000  0 10 15 18 31 25 14 23 11 21 03 29
  23797260.052    11404448.848 8   8894390.52145  23797259.570    23797269.3774
  23650699.371    11436872.764 8   8921664.72045  23650698.981    23650705.7284
  22755028.666   -10293879.308 8  -8003549.26446  22755028.212    22755035.1474
  23267410.352   -12186179.243 8  -9479861.44446  23267410.297    23267418.8164
  20244065.813   -27164483.795 9 -21125104.76048  20244065.455    20244069.7104
  24338262.517    15984664.701 7  12463375.43845  24338261.923    24338270.9284
  23684844.698    -9613739.093 8  -6464473.46445  23684844.393    23684851.0544
  21224270.058   -19298509.052 9 -15015452.83647  21224269.594    21224275.6784
  23266554.391    -9888894.401 8  -7694391.45746  23266554.120    23266562.4214
  20245306.006   -26327847.492 9 -20487718.34848  20245305.936    20245310.9694
 01  5 15  1 14 30.0000000  0 10 15 18 31 25 14 23 11 21 03 29
  23816964.902    11507997.836 8   8975077.87445  23816964.378    23816974.2454
  23664310.963    11508401.786 8   8977401.53845  23664310.628    23664317.4424
  22763496.053   -10249383.250 8  -7968877.06646  22763495.590    22763502.5024
  23249417.601   -12280731.392 8  -9553538.28646  23249417.554    23249425.9544
  20246894.524   -27149618.820 9 -21113521.66348  20246894.157    20246898.4294
  24350321.673    16048035.648 7  12512755.30745  24350321.003    24350330.1344
  23666495.807    -9710162.871 8  -6539608.81245  23666495.566    23666502.2154
  21227767.260   -19280131.148 9 -15001132.40747  21227766.793    21227772.8974
  23282523.008    -9804979.034 8  -7629002.97046  23282522.755    23282531.1224
  20245252.371   -26328129.454 9 -20487938.05248  20245252.294    20245257.3254
 01  5 15  1 15  0.0000000  0 10 15 18 31 25 14 23 11 21 03 29
  23836706.275    11611738.532 8   9055914.58345  23836705.721    23836715.5694
  23677936.152    11580002.395 8   9033194.15145  23677935.866    23677942.6244
  22772048.132   -10204442.202 8  -7933858.12246  22772047.629    22772054.5774
  23231448.786   -12375157.402 8  -9627116.85246  23231448.753    23231457.0994
  20249811.348   -27134290.887 9 -21101577.82248  20249810.978    20249815.2604
  24362390.873    16111458.859 7  12562175.87145  24362389.949    24362399.2184
  23648175.902    -9806434.866 8  -6614625.87245  23648175.569    23648182.1744
  21231296.146   -19261586.841 9 -14986682.31347  21231295.670    21231301.7834
  23298522.877    -9720899.584 8  -7563486.62246  23298522.628    23298531.0774
  20245280.809   -26327979.969 9 -20487821.56748  20245280.734    20245285.7564
 01  5 15  1 15 30.0000000  0 10 15 18 31 25 14 23 11 21 03 29
  23856483.753    11715668.595 8   9136898.89445  23856483.091    23856492.9584
  23691574.859    11651674.219 8   9089042.23545  23691574.554    23691581.4354
  22780684.273   -10159059.133 8  -7898494.75146  22780683.751    22780690.7054
  23213504.483   -12469455.183 8  -9700595.48946  23213504.405    23213512.7374
  20252815.857   -27118502.161 9 -21089274.92248  20252815.458    20252819.7474
  24374469.884    16174933.856 7  12611636.82345  24374469.015    24374478.0894
  23629885.220    -9902553.147 8  -6689523.13445  23629884.821    23629891.3874
  21234856.629   -19242876.304 9 -14972102.69247  21234856.155    21234862.2764
  23314553.290    -9636659.565 8  -7497845.16246  23314553.071    23314561.5384
  20245391.088   -26327400.591 9 -20487370.10148  20245390.998    20245396.0054
 01  5 15  1 16  0.0000000  0 10 15 18 31 25 14 23 11 21 03 29
  23876296.925    11819786.688 8   9218029.70345  23876296.323    23876306.1634
  23705227.177    11723417.422 8   9144945.93345  23705226.783    23705233.7724
  22789404.128   -10113236.069 8  -7862788.53246  22789403.644    22789410.5724
  23195585.028   -12563621.901 8  -9773971.99746  23195584.951    23195593.2234
  20255907.820   -27102253.644 9 -21076613.73648  20255907.427    20255911.7434
  24386558.754    16238461.466 7  12661138.74045  24386557.997    24386567.0734
  23611624.323    -9998515.084 8  -6764298.61145  23611623.893    23611630.4094
  21238448.942   -19223998.705 9 -14957392.89447  21238448.448    21238454.5754
  23330613.716    -9552261.664 8  -7432080.66346  23330613.502    23330622.0304
  20245582.930   -26326392.274 9 -20486584.39248  20245582.845    20245587.8384
 01  5 15  1 16 30.0000000  0 10 15 18 31 25 14 23 11 21 03 29
  23896145.658    11924091.633 8   9299306.08245  23896144.982    23896154.9664
  23718893.142    11795232.442 8   9200905.60445  23718892.793    23718899.8584
  22798207.322   -10066975.114 8  -7826741.09446  22798206.860    22798213.8124
  23177691.186   -12657653.971 8  -9847243.58646  23177691.049    23177699.4024
  20259087.051   -27085546.589 9 -21063595.25348  20259086.666    20259090.9894
  24398657.827    16302042.151 7  12710682.04045  24398657.182    24398666.1464
  23593393.586   -10094318.272 8  -6838950.38045  23593393.124    23593399.6004
  21242073.166   -19204953.308 9 -14942552.34447  21242072.689    21242078.8184
  23346703.728    -9467708.596 8  -7366195.27646  23346703.473    23346712.0374
  20245856.334   -26324955.588 9 -20485464.89648  20245856.235    20245861.2404
 01  5 15  1 17  0.0000000  0 10 15 18 31 25 14 23 11 21 03 29
  23916029.493    12028581.093 8   9380726.27745  23916028.858    23916038.7954
  23732572.712    11867118.536 8   9256920.65945  23732572.382    23732579.3884
  22807093.425   -10020278.962 8  -7790354.54146  22807092.938    22807099.8814
  23159823.280   -12751549.341 8  -9920408.64746  23159823.158    23159831.5704
  20262353.170   -27068383.001 9 -21050221.02348  20262352.795    20262357.1094
  24410766.925    16365675.808 8  12760266.58945  24410766.368    24410775.3194
  23575193.390   -10189960.804 8  -6913476.93645  23575192.904    23575199.3654
  21245729.296   -19185740.065 9 -14927581.00247  21245728.818    21245734.9694
  23362822.565    -9383004.122 8  -7300191.90146  23362822.285    23362830.8524
  20246210.907   -26323092.277 9 -20484012.95748  20246210.800    20246215.8214
 01  5 15  1 17 30.0000000  0 10 15 18 31 25 14 23 11 21 03 29
  23935948.183    12133253.837 8   9462289.27345  23935947.547    23935957.4464
  23746265.964    11939076.334 8   9312991.60245  23746265.543    23746272.5694
  22816061.919    -9973149.715 8  -7753630.51246  22816061.409    22816068.3964
  23141981.978   -12845305.068 8  -9993464.91446  23141981.890    23141990.2974
  20265705.983   -27050763.839 9 -21036491.80448  20265705.604    20265709.9484
  24422886.334    16429363.255 7  12809893.10445  24422885.807    24422894.7654
  23557024.195   -10285440.102 8  -6987876.34046  23557023.731    23557030.1824
  21249417.560   -19166358.119 9 -14912478.21047  21249417.095    21249423.2394
  23378969.684    -9298150.741 8  -7234072.49946  23378969.476    23378977.9994
  20246646.508   -26320802.994 9 -20482229.10048  20246646.418    20246651.4604
 01  5 15  1 18  0.0000000  0 10 15 18 31 25 14 23 11 21 03 29
  23955901.423    12238107.841 8   9543993.51645  23955900.736    23955910.6684
  23759972.778    12011105.508 8   9369118.13545  23759972.394    23759979.3044
  22825112.252    -9925590.148 8  -7716571.17546  22825111.773    22825118.7594
  23124167.794   -12938918.484 8 -10066410.28546  23124167.692    23124176.1214
  20269145.093   -27032691.108 9 -21022409.15848  20269144.723    20269149.0594
  24435015.847    16493104.447 8  12859561.44745  24435015.262    24435024.2814
  23538886.534   -10380753.890 8  -7062146.78146  23538886.099    23538892.5694
  21253137.953   -19146807.384 9 -14897243.89347  21253137.479    21253143.6304
  23395144.592    -9213151.624 8  -7167839.53946  23395144.309    23395152.9654
  20247162.898   -26318089.229 9 -20480114.47348  20247162.801    20247167.8544
 01  5 15  1 18 30.0000000  0 10 15 18 31 25 14 23 11 21 03 29
  23975888.760    12343141.411 8   9625837.66645  23975888.127    23975898.0884
  23773693.171    12083206.275 8   9425300.47145  23773692.775    23773699.6994
  22834244.123    -9877602.269 8  -7679178.07346  22834243.612    22834250.6264
  23106381.238   -13032386.645 8 -10139242.46746  23106381.146    23106389.5264
  20272670.313   -27014166.073 9 -21007974.06348  20272669.943    20272674.2594
  24447155.789    16556899.785 7  12909272.02945  24447155.285    24447164.1794
  23520780.764   -10475899.824 8  -7136286.39446  23520780.373    23520786.8504
  21256890.589   -19127087.152 9 -14881877.49747  21256890.131    21256896.2774
  23411346.644    -9128009.762 8  -7101495.35946  23411346.342    23411355.0754
  20247759.901   -26314951.823 9 -20477669.73348  20247759.808    20247764.8824
 01  5 15  1 19  0.0000000  0 10 15 18 31 25 14 23 11 21 03 29
  23995909.999    12448353.304 8   9707820.73945  23995909.297    23995919.4624
  23787427.259    12155378.736 8   9481538.67545  23787426.847    23787433.6994
  22843457.035    -9829188.465 8  -7641453.10146  22843456.474    22843463.4914
  23088622.948   -13125706.540 8 -10211959.11446  23088622.819    23088631.2274
  20276281.341   -26995190.047 9 -20993187.55248  20276280.963    20276285.3054
  24459306.163    16620750.019 7  12959025.38045  24459305.656    24459314.5554
  23502707.417   -10570875.475 8  -7210293.34846  23502707.085    23502713.4754
  21260675.683   -19107196.578 9 -14866378.37147  21260675.211    21260681.3394
  23427575.286    -9042728.030 8  -7035042.18946  23427574.967    23427583.8054
  20248437.386   -26311391.648 9 -20474895.56748  20248437.289    20248442.3524
 01  5 15  1 19 30.0000000  0 10 15 18 31 25 14 23 11 21 03 29
  24015964.817    12553741.476 7   9789941.22645  24015964.274    24015974.3034
  23801174.861    12227622.629 8   9537832.55545  23801174.460    23801181.4054
  22852750.414    -9780351.637 8  -7603398.49646  22852749.830    22852756.9404
  23070893.221   -13218876.006 8 -10284558.54146  23070893.113    23070901.5754
  20279977.777   -26975765.005 9 -20978051.15748  20279977.394    20279981.7294
  24471466.967    16684655.054 8  13008821.42245  24471466.485    24471475.3634
  23484666.912   -10665678.647 8  -7284165.91246  23484666.604    23484672.9364
  21264493.127   -19087135.747 9 -14850746.57347  21264492.658    21264498.8044
  23443829.941    -8957309.452 8  -6968482.38946  23443829.744    23443838.4914
  20249195.035   -26307410.255 9 -20471793.17948  20249194.934    20249199.9924
 01  5 15  1 20  0.0000000  0 10 15 18 31 25 14 23 11 21 03 29
  24036052.759    12659303.894 8   9872197.45045  24036052.137    24036062.1724
  23814936.004    12299937.794 8   9594181.96545  23814935.664    23814942.5934
  22862123.885    -9731094.200 8  -7565016.13746  22862123.281    22862130.4164
  23053192.739   -13311892.038 8 -10357038.42746  23053192.637    23053201.0654
  20283759.397   -26955892.435 9 -20962566.04048  20283759.016    20283763.3584
  24483638.246    16748615.146 7  13058660.38845  24483637.811    24483646.6694
  23466659.654   -10760307.263 8  -7357902.43946  23466659.251    23466665.6184
  21268343.111   -19066904.120 9 -14834981.69147  21268342.643    21268348.7834
  23460110.039    -8871757.321 8  -6901818.52546  23460109.844    23460118.6734
  20250032.563   -26303008.989 9 -20468363.62148  20250032.464    20250037.5214
 01  5 15  1 20 30.0000000  0 10 15 18 31 25 14 23 11 21 03 29
  24056173.674    12765039.223 8   9954588.44645  24056173.097    24056183.1624
  23828710.858    12372324.689 8   9650587.26145  23828710.517    23828717.4024
  22871577.001    -9681418.150 8  -7526307.60146  22871576.367    22871583.4944
  23035522.003   -13404751.966 8 -10429396.66046  23035521.910    23035530.2364
  20287625.916   -26935573.659 9 -20946733.22748  20287625.529    20287629.8994
  24495820.176    16812631.163 8  13108542.89645  24495819.696    24495828.7364
  23448686.115   -10854758.432 8  -7431500.71446  23448685.792    23448692.0904
  21272225.753   -19046500.836 9 -14819083.05147  21272225.275    21272231.4374
  23476415.122    -8786074.115 8  -6835052.52146  23476414.906    23476423.7984
  20250949.828   -26298188.575 9 -20464607.44948  20250949.739    20250954.7844
 01  5 15  1 21  0.0000000  0 10 15 18 31 25 14 23 11 21 03 29
  24076327.012    12870945.158 8  10037112.34245  24076326.376    24076336.5744
  23842499.172    12444782.648 8   9707047.93945  23842498.872    23842505.7434
  22881109.123    -9631326.405 8  -7487275.13246  22881108.548    22881115.7444
  23017881.423   -13497453.377 8 -10501631.38646  23017881.322    23017889.5774
  20291576.982   -26914810.569 9 -20930554.19448  20291576.624    20291580.9984
  24508012.731    16876702.806 7  13158468.78445  24508012.216    24508021.3924
  23430746.688   -10949030.514 8  -7504959.44746  23430746.343    23430752.6624
  21276140.980   -19025926.153 9 -14803050.84747  21276140.514    21276146.6744
  23492744.403    -8700263.651 8  -6768187.36246  23492744.202    23492753.0844
  20251946.564   -26292950.684 9 -20460525.97248  20251946.449    20251951.5144
 01  5 15  1 21 30.0000000  0 10 15 18 31 25 14 23 11 21 03 29
  24096512.614    12977020.506 7  10119768.24545  24096512.021    24096522.2584
  23856301.205    12517312.543 8   9763564.66745  23856300.827    23856307.7474
  22890719.953    -9580821.052 8  -7447920.36846  22890719.374    22890726.6504
  23000271.696   -13589992.693 8 -10573739.81646  23000271.603    23000279.7714
  20295612.384   -26893604.472 9 -20914029.96848  20295612.010    20295616.3734
  24520216.052    16940830.997 7  13208438.71745  24520215.558    24520224.7004
  23412841.885   -11043120.443 8  -7578276.24546  23412841.528    23412847.8744
  21280089.075   -19005178.571 9 -14786883.92347  21280088.621    21280094.8224
  23509097.508    -8614328.031 8  -6701224.67746  23509097.320    23509106.2554
  20253022.632   -26287295.971 9 -20456119.70048  20253022.534    20253027.5744
 01  5 15  1 22  0.0000000  0 10 15 18 31 25 14 23 11 21 03 29
  24116730.063    13083263.418 7  10202554.71845  24116729.455    24116739.8384
  23870116.849    12589913.999 8   9820137.15945  23870116.492    23870123.2984
  22900408.956    -9529904.992 8  -7408245.57546  22900408.427    22900415.6874
  22982693.318   -13682367.415 8 -10645719.97746  22982693.233    22982701.3034
  20299731.729   -26871957.070 9 -20897161.86748  20299731.358    20299735.7234
  24532430.025    17005015.639 7  13258452.62245  24532429.522    24532438.7244
  23394972.117   -11137026.238 8  -7651449.55446  23394971.789    23394978.1464
  21284070.142   -18984258.109 9 -14770582.28747  21284069.675    21284075.8914
  23525473.771    -8528270.643 8  -6634167.12246  23525473.613    23525482.5394
  20254177.702   -26281226.045 9 -20451389.88748  20254177.605    20254182.6194
 01  5 15  1 22 30.0000000  0 10 15 18 31 25 14 23 11 21 03 29
  24136979.075    13189672.243 7  10285470.46645  24136978.578    24136989.0944
  23883946.174    12662587.137 8   9876765.50845  23883945.798    23883952.5274
  22910175.764    -9478580.358 8  -7368252.40446  22910175.255    22910182.5034
  22965146.710   -13774574.881 8 -10717569.82246  22965146.640    22965154.6804
  20303934.821   -26849869.749 9 -20879950.97348  20303934.449    20303938.8074
  24544654.836    17069257.285 7  13308510.95745  24544654.370    24544663.5694
  23377137.878   -11230745.266 8  -7724477.32746  23377137.574    23377143.9534
  21288084.261   -18963163.927 9 -14754145.28047  21288083.796    21288089.9884
  23541872.689    -8442094.268 8  -6567016.83945  23541872.511    23541881.5054
  20255411.625   -26274741.749 9 -20446337.19048  20255411.520    20255416.5244
 01  5 15  1 23  0.0000000  0 10 15 18 31 25 14 23 11 21 03 29
  24157259.429    13296245.082 7  10368514.02945  24157258.828    24157269.3934
  23897789.004    12735331.703 8   9933449.51545  23897788.666    23897795.3634
  22920019.809    -9426850.090 8  -7327943.15446  22920019.281    22920026.5084
  22947632.418   -13866612.452 8 -10789287.27046  22947632.345    22947640.3564
  20308221.218   -26827344.564 9 -20862398.88348  20308220.841    20308225.1814
  24556890.572    17133556.225 8  13358613.94245  24556890.009    24556899.3134
  23359339.568   -11324275.706 8  -7797358.15146  23359339.316    23359345.6634
  21292131.455   -18941895.644 9 -14737572.61247  21292130.984    21292137.1874
  23558293.627    -8355802.199 8  -6499776.41845  23558293.453    23558302.4464
  20256724.115   -26267844.608 9 -20440962.79448  20256724.012    20256729.0194
 01  5 15  1 23 30.0000000  0 10 15 18 31 25 14 23 11 21 03 29
  24177570.447    13402979.907 7  10451683.80545  24177569.966    24177580.4054
  23911645.435    12808147.719 8   9990189.18245  23911645.212    23911651.9054
  22929940.404    -9374716.898 8  -7287319.94046  22929939.933    22929947.1794
  22930151.031   -13958477.427 8 -10860870.24646  22930150.917    22930158.8874
  20312590.625   -26804383.177 9 -20844506.89448  20312590.246    20312594.5734
  24569137.317    17197912.668 7  13408761.72745  24569136.771    24569146.1174
  23341577.692   -11417614.979 8  -7870090.00346  23341577.362    23341583.7494
  21296211.914   -18920452.880 9 -14720863.99047  21296211.450    21296217.6664
  23574735.982    -8269397.773 8  -6432448.44645  23574735.810    23574744.7344
  20258114.872   -26260536.113 9 -20435267.86348  20258114.779    20258119.7754
 01  5 15  1 24  0.0000000  0 10 15 18 31 25 14 23 11 21 03 29
  24197912.088    13509875.066 7  10534978.52345  24197911.574    24197922.0094
  23925515.541    12881035.328 8  10046984.63345  23925515.270    23925522.0504
  22939937.261    -9322183.113 8  -7246384.57746  22939936.822    22939944.0954
  22912702.982   -14050167.027 8 -10932316.56546  22912702.846    22912710.8214
  20317042.736   -26780987.207 9 -20826276.27248  20317042.344    20317046.6674
  24581394.981    17262326.974 7  13458954.61545  24581394.405    24581403.7564
  23323852.659   -11510760.739 8  -7942671.07746  23323852.303    23323858.7014
  21300325.633   -18898835.095 9 -14704018.98147  21300325.162    21300331.4054
  23591199.227    -8182883.401 8  -6365034.80045  23591198.993    23591208.0294
  20259583.722   -26252817.237 9 -20429253.15548  20259583.622    20259588.6384
 01  5 15  1 24 30.0000000  0 10 15 18 31 25 14 23 11 21 03 29
  24218283.823    13616928.817 7  10618396.81245  24218283.371    24218293.7734
  23939399.213    12953994.274 8  10103835.66545  23939398.918    23939405.7494
  22950009.851    -9269251.450 8  -7205139.18146  22950009.359    22950016.7014
  22895288.841   -14141678.473 8 -11003624.05446  22895288.702    22895296.6664
  20321577.212   -26757158.288 9 -20807708.28248  20321576.835    20321581.1544
  24593663.741    17326799.491 7  13509192.86245  24593663.151    24593672.5724
  23306164.873   -11603710.605 8  -8015099.50446  23306164.529    23306170.8974
  21304472.748   -18877041.924 9 -14687037.30747  21304472.271    21304478.5104
  23607682.818    -8096262.277 8  -6297537.96645  23607682.561    23607691.5764
  20261130.411   -26244689.365 9 -20422919.74648  20261130.321    20261135.3374
 01  5 15  1 25  0.0000000  0 10 15 18 31 25 14 23 11 21 03 29
  24238685.592    13724139.671 8  10701937.51045  24238685.067    24238695.5644
  23953296.591    13027025.166 8  10160742.75945  23953296.318    23953303.1984
  22960157.746    -9215924.045 8  -7163585.40846  22960157.273    22960164.6384
  22877909.137   -14233008.757 8 -11074790.39346  22877909.033    22877916.9374
  20326193.843   -26732897.810 9 -20788804.01748  20326193.459    20326197.7584
  24605943.678    17391330.762 7  13559476.89945  24605943.080    24605952.4634
  23288514.804   -11696461.895 8  -8087373.17046  23288514.446    23288520.8484
  21308653.422   -18855072.499 9 -14669918.29447  21308652.956    21308659.1884
  23624186.127    -8009537.220 8  -6229960.16145  23624185.856    23624194.8964
  20262754.743   -26236153.470 9 -20416268.40048  20262754.637    20262759.6434
 01  5 15  1 25 30.0000000  0 10 15 18 31 25 14 23 11 21 03 29
  24259116.933    13831505.738 7  10785599.15045  24259116.333    24259126.9544
  23967207.668    13100127.792 8  10217705.74745  23967207.328    23967214.2014
  22970380.406    -9162203.647 8  -7121725.40246  22970379.937    22970387.3564
  22860564.496   -14324154.941 8 -11145813.27646  22860564.371    22860572.2554
  20330892.266   -26708207.532 9 -20769564.84348  20330891.876    20330896.1774
  24618234.821    17455921.095 7  13609806.94445  24618234.251    24618243.6624
  23270903.018   -11789012.303 8  -8159490.34946  23270902.749    23270909.0324
  21312867.682   -18832926.508 9 -14652661.69547  21312867.209    21312873.4084
  23640708.727    -7922711.040 8  -6162303.54545  23640708.418    23640717.5114
  20264456.460   -26227210.850 9 -20409300.12648  20264456.359    20264461.3644
 01  5 15  1 26  0.0000000  0 10 15 18 31 25 14 23 11 21 03 29
  24279577.380    13939024.789 7  10869380.00045  24279576.698    24279587.4344
  23981132.292    13173301.688 8  10274724.29745  23981131.948    23981138.8134
  22980677.331    -9108093.275 8  -7079561.53146  22980676.878    22980684.2384
  22843255.246   -14415114.922 8 -11216691.06746  22843255.164    22843262.9574
  20335672.054   -26683089.521 9 -20749992.37248  20335671.648    20335675.9514
  24630537.047    17520570.203 7  13660182.79545  24630536.486    24630546.0124
  23253329.740   -11881360.007 8  -8231449.52546  23253329.445    23253335.7254
  21317115.563   -18810603.533 9 -14635267.18447  21317115.088    21317121.3064
  23657249.808    -7835787.481 8  -6094571.05845  23657249.516    23657258.6044
  20266235.233   -26217863.312 9 -20402016.32748  20266235.117    20266240.1034
 01  5 15  1 26 30.0000000  0 10 15 18 31 25 14 23 11 21 03 29
  24300066.571    14046695.430 7  10953278.95245  24300065.844    24300076.7154
  23995070.456    13246547.271 8  10331798.65645  23995070.138    23995077.0614
  22991048.019    -9053595.202 8  -7037095.54746  22991047.549    22991054.8964
  22825982.002   -14505885.820 8 -11287421.53146  22825981.922    22825989.7004
  20340533.041   -26657544.929 9 -20730087.50348  20340532.652    20340536.9434
  24642850.655    17585278.823 7  13710605.00545  24642850.029    24642859.8314
  23235795.652   -11973502.175 8  -8303248.59046  23235795.394    23235801.5744
  21321397.344   -18788102.647 9 -14617734.04747  21321396.884    21321403.1244
  23673809.023    -7748768.906 8  -6026764.53845  23673808.783    23673817.8064
  20268090.930   -26208111.712 9 -20394417.67948  20268090.813    20268095.7774
 01  5 15  1 27  0.0000000  0 10 15 18 31 25 14 23 11 21 03 29
  24320584.284    14154515.911 7  11037294.70145  24320583.570    24320594.4924
  24009022.407    13319865.008 8  10388929.25645  24009021.959    24009028.9864
  23001491.983    -8998712.042 8  -6994329.50446  23001491.429    23001498.8234
  22808745.330   -14596464.524 8 -11358002.22646  22808745.234    22808752.9824
  20345474.880   -26631575.455 9 -20709851.55748  20345474.471    20345478.7864
  24655175.866    17650047.670 7  13761074.15445  24655175.328    24655185.0324
  23218301.135   -12065436.374 8  -8374885.55546  23218300.805    23218307.0344
  21325713.166   -18765423.058 9 -14600061.65947  21325712.686    21325718.9354
  23690385.829    -7661658.091 8  -5958886.13145  23690385.567    23690394.6454
  20270023.201   -26197957.391 9 -20386505.22248  20270023.095    20270028.0684
 01  5 15  1 27 30.0000000  0 10 15 18 31 25 14 23 11 21 03 29
  24341130.170    14262484.422 7  11121425.76945  24341129.507    24341140.4484
  24022987.953    13393254.061 8  10446115.45245  24022987.602    24022994.6164
  23012008.634    -8943446.902 8  -6951265.80046  23012008.108    23012015.4684
  22791545.807   -14686848.237 8 -11428430.97746  22791545.701    22791553.4004
  20350497.133   -26605183.295 9 -20689286.24748  20350496.744    20350501.0564
  24667512.501    17714876.699 7  13811590.19445  24667511.807    24667521.6264
  23200846.616   -12157160.436 8  -8446358.80646  23200846.328    23200852.4974
  21330062.911   -18742565.214 9 -14582250.37247  21330062.425    21330068.6554
  23706979.431    -7574458.439 8  -5890938.50445  23706979.090    23706988.3894
  20272031.860   -26187401.813 9 -20378280.09748  20272031.745    20272036.7104
 01  5 15  1 28  0.0000000  0 10 15 18 31 25 14 23 11 21 03 29
  24361703.855    14370599.149 7  11205670.77045  24361703.143    24361714.3844
  24036967.145    13466714.817 8  10503357.50545  24036966.804    24036973.9204
  23022597.517    -8887802.197 8  -6907906.35346  23022597.007    23022604.3644
  22774383.841   -14777034.639 8 -11498705.99546  22774383.673    22774391.3724
  20355599.515   -26578370.315 9 -20668393.02748  20355599.092    20355603.3944
  24679860.732    17779766.291 7  13862153.44345  24679860.078    24679869.8314
  23183432.612   -12248671.867 8  -8517666.35046  23183432.224    23183438.4514
  21334446.737   -18719528.028 9 -14564299.34247  21334446.270    21334452.4994
  23723589.399    -7487173.060 8  -5822924.07345  23723589.090    23723598.4334
  20274116.636   -26176446.299 9 -20369743.33548  20274116.511    20274121.4784
 01  5 15  1 28 30.0000000  0 10 15 18 31 25 14 23 11 21 03 29
  24382304.991    14478858.295 8  11290028.28945  24382304.421    24382315.6514
  24050960.100    13540247.658 8  10560655.73145  24050959.806    24050966.8804
  23033258.126    -8831780.534 8  -6864253.15446  23033257.607    23033264.9634
  22757259.884   -14867020.920 8 -11568825.06446  22757259.737    22757267.4144
  20360781.700   -26551137.795 9 -20647172.89548  20360781.284    20360785.5784
  24692220.604    17844717.009 7  13912764.30645  24692220.021    24692229.5284
  23166059.525   -12339967.980 8  -8588806.12246  23166059.140    23166065.3124
  21338864.864   -18696310.717 9 -14546207.94747  21338864.382    21338870.6154
  23740215.144    -7399804.684 8  -5754844.98345  23740214.891    23740224.2434
  20276277.228   -26165092.145 9 -20360895.94848  20276277.115    20276282.0964
 01  5 15  1 29  0.0000000  0 10 15 18 31 25 14 23 11 21 03 29
  24402933.345    14587259.549 7  11374496.57745  24402932.650    24402943.9704
  24064966.677    13613852.046 8  10618009.71045  24064966.341    24064973.3734
  23043989.942    -8775384.851 8  -6820308.53746  23043989.368    23043996.7864
  22740174.566   -14956804.374 8 -11638786.08446  22740174.454    22740182.0984
  20366043.271   -26523487.864 9 -20625627.50548  20366042.862    20366047.1694
  24704592.046    17909728.818 7  13963422.77745  24704591.437    24704600.8364
  23148727.817   -12431046.891 8  -8659776.66046  23148727.400    23148733.5034
  21343317.349   -18672913.025 9 -14527975.99747  21343316.849    21343323.0894
  23756856.031    -7312356.667 8  -5686703.83245  23756855.880    23756865.1384
  20278513.371   -26153340.955 9 -20351739.18148  20278513.267    20278518.2644
 01  5 15  1 29 30.0000000  0 10 15 18 31 25 14 23 11 21 03 29
  24423588.325    14695801.304 7  11459074.31145  24423587.692    24423599.0014
  24078986.896    13687527.999 8  10675419.45045  24078986.565    24078993.5804
  23054792.346    -8718617.685 8  -6776074.44046  23054791.809    23054799.3344
  22723128.372   -15046382.410 8 -11708587.03846  22723128.246    22723135.8834
  20371383.987   -26495422.099 9 -20603758.08748  20371383.575    20371387.9034
  24716975.197    17974802.021 7  14014129.09345  24716974.544    24716983.9654
  23131437.832   -12521906.032 8  -8730575.94346  23131437.488    23131443.4894
  21347804.202   -18649334.332 9 -14509603.00947  21347803.713    21347809.9744
  23773511.677    -7224831.483 8  -5618502.54945  23773511.500    23773520.8194
  20280824.879   -26141193.873 9 -20342273.92748  20280824.767    20280829.7664
 01  5 15  1 30  0.0000000  0 10 15 18 31 25 14 23 11 21 03 29
  24444269.847    14804482.323 7  11543760.56445  24444269.185    24444280.4904
  24093020.835    13761276.275 8  10732885.58045  24093020.529    24093027.5394
  23065665.102    -8661481.366 8  -6731552.69146  23065664.552    23065672.0264
  22706121.910   -15135751.693 8 -11778225.34146  22706121.749    22706129.3204
  20376803.618   -26466941.691 9 -20581565.57548  20376803.223    20376807.5614
  24729370.193    18039937.540 7  14064883.95645  24729369.613    24729378.9224
  23114190.276   -12612542.539 8  -8801201.74946  23114189.890    23114195.8824
  21352325.733   -18625573.577 9 -14491088.15547  21352325.263    21352331.4984
  23790181.492    -7137231.877 8  -5550243.27945  23790181.270    23790190.5974
  20283211.552   -26128651.900 9 -20332500.96848  20283211.445    20283216.4484
 01  5 15  1 30 30.0000000  0  9 15 18 31 25 14 11 21 03 29
  24464977.659    14913301.620 7  11628554.55945  24464977.098    24464988.2344
  24107068.672    13835097.650 8  10790408.64845  24107068.224    24107075.3704
  23076607.735    -8603977.720 8  -6686744.71546  23076607.247    23076614.6054
  22689155.857   -15224908.651 8 -11847698.18246  22689155.694    22689163.2414
  20382301.952   -26438047.757 9 -20559050.82948  20382301.556    20382305.9064
  23096985.583   -12702953.236 8  -8871651.60046  23096985.239    23096991.2524
  21356882.183   -18601629.479 9 -14472430.43247  21356881.698    21356887.9494
  23806864.968    -7049560.025 8  -5481927.73145  23806864.700    23806874.1154
  20285673.264   -26115715.563 9 -20322420.70748  20285673.171    20285678.1564
 01  5 15  1 31  0.0000000  0  9 15 18 31 25 14 11 21 03 29
  24485711.114    15022255.876 7  11713453.71145  24485710.545    24485721.6804
  24121130.035    13908990.596 8  10847987.49545  24121129.670    24121136.8814
  23087619.528    -8546110.729 8  -6641653.60446  23087618.994    23087626.3294
  22672230.449   -15313851.677 8 -11917004.32946  22672230.312    22672237.7694
  20387878.388   -26408743.463 9 -20536216.32748  20387877.986    20387882.3504
  23079824.163   -12793137.107 8  -8941924.70846  23079823.761    23079829.8014
  21361473.334   -18577502.824 9 -14453630.46147  21361472.860    21361479.1404
  23823561.444    -6961820.243 8  -5413559.24245  23823561.182    23823570.5904
  20288209.449   -26102387.846 9 -20312035.48148  20288209.345    20288214.3394
 01  5 15  1 31 30.0000000  0  9 15 18 31 25 14 11 21 03 29
  24506469.821    15131343.227 7  11798456.58745  24506469.284    24506480.5274
  24135205.071    13982955.340 8  10905622.25345  24135204.735    24135212.0374
  23098699.929    -8487883.149 8  -6596281.52646  23098699.373    23098706.7234
  22655346.242   -15402578.471 8 -11986141.98446  22655346.150    22655353.5134
  20393532.549   -26379030.589 9 -20513063.44848  20393532.142    20393536.5144
  23062706.314   -12883091.786 8  -9012019.21646  23062705.941    23062712.0024
  21366099.305   -18553193.247 9 -14434687.95247  21366098.817    21366105.0784
  23840270.259    -6874015.518 8  -5345140.14445  23840269.914    23840279.4644
  20290819.903   -26088669.880 9 -20301346.16348  20290819.808    20290824.7944
 01  5 15  1 32  0.0000000  0  9 15 18 31 25 14 11 21 03 29
  24527253.635    15240562.220 7  11883562.05945  24527253.105    24527264.4754
  24149293.834    14056992.144 8  10963313.20345  24149293.532    24149300.6904
  23109848.479    -8429297.391 8  -6550630.35046  23109847.925    23109855.3114
  22638503.729   -15491086.156 8 -12055108.90446  22638503.590    22638510.9424
  20399264.180   -26348910.550 9 -20489593.29748  20399263.784    20399268.1834
  23045632.662   -12972814.372 8  -9081932.87546  23045632.251    23045638.3484
  21370760.340   -18528699.508 9 -14415601.94347  21370759.861    21370766.1154
  23856990.844    -6786148.388 8  -5276672.43545  23856990.589    23857000.1674
  20293504.351   -26074562.897 9 -20290353.71448  20293504.249    20293509.2264
 01  5 15  1 32 30.0000000  0  9 15 18 31 25 14 11 21 03 29
  24548062.146    15349910.614 7  11968768.34045  24548061.520    24548072.8464
  24163396.267    14131100.635 7  11021060.02345  24163395.988    24163403.0514
  23121064.553    -8370356.746 8  -6504702.63046  23121063.980    23121071.4004
  22621703.394   -15579372.086 8 -12123903.03046  22621703.241    22621710.6034
  20405072.894   -26318385.622 9 -20465807.65048  20405072.502    20405076.8874
  23028603.493   -13062302.901 8  -9151664.17546  23028603.120    23028609.1954
  21375456.422   -18504021.457 9 -14396372.31447  21375455.940    21375462.1974
  23873722.781    -6698221.874 8  -5208158.47145  23873722.486    23873732.3374
  20296262.502   -26060068.617 9 -20279059.47548  20296262.410    20296267.4034
 01  5 15  1 33  0.0000000  0  9 15 18 31 25 14 11 21 03 29
  24568895.089    15459387.164 7  12054074.48545  24568894.528    24568905.9014
  24177512.418    14205281.359 8  11078863.06745  24177511.997    24177519.2934
  23132347.723    -8311063.555 8  -6458500.21146  23132347.179    23132354.5754
  22604945.892   -15667432.898 8 -12192521.73946  22604945.792    22604953.1494
  20410958.389   -26287457.104 9 -20441707.51248  20410958.008    20410962.3894
  23011619.402   -13151554.535 8  -9221210.87146  23011619.008    23011625.0934
  21380187.715   -18479158.310 9 -14376998.45447  21380187.224    21380193.4924
  23890465.532    -6610238.701 8  -5139600.34245  23890465.375    23890475.2024
  20299094.191   -26045188.012 9 -20267464.19948  20299094.100    20299099.1064
 01  5 15  1 33 30.0000000  0  9 15 18 31 25 14 11 21 03 29
  24589751.902    15568989.507 7  12139478.63945  24589751.229    24589762.9074
  24191642.333    14279533.963 7  11136722.18145  24191641.876    24191649.1974
  23143697.402    -8251420.728 8  -6412025.34246  23143696.842    23143704.2884
  22588231.626   -15755266.534 8 -12260963.43546  22588231.503    22588238.8664
  20416920.332   -26256127.085 9 -20417294.52148  20416919.940    20416924.2904
  22994680.818   -13240567.162 8  -9290571.32546  22994680.434    22994686.5084
  21384954.289   -18454109.726 9 -14357480.09747  21384953.825    21384960.1034
  23907218.448    -6522202.169 8  -5071000.64245  23907218.306    23907228.1574
  20301999.035   -26029922.874 9 -20255569.29148  20301998.939    20302003.9504
 01  5 15  1 34  0.0000000  0  9 15 18 31 25 14 11 21 03 29
  24610632.402    15678716.173 7  12224979.66845  24610631.773    24610643.5834
  24205785.964    14353859.001 8  11194637.69745  24205785.463    24205792.7394
  23155113.111    -8191430.755 8  -6365279.97446  23155112.569    23155120.0424
  22571561.208   -15842869.749 8 -12329225.58046  22571561.084    22571568.4424
  20422958.367   -26224396.938 9 -20392569.73848  20422957.970    20422962.3474
  22977788.275   -13329337.825 8  -9359743.24446  22977787.908    22977793.9934
  21389756.345   -18428874.850 9 -14337816.58047  21389755.870    21389762.1464
  23923981.116    -6434114.740 8  -5002361.27945  23923980.963    23923990.8154
  20304976.911   -26014274.126 9 -20243375.46248  20304976.817    20304981.8094
 01  5 15  1 34 30.0000000  0  9 15 18 31 25 14 11 21 03 29
  24631536.224    15788565.227 7  12310576.07245  24631535.542    24631547.4294
  24219943.428    14428256.367 7  11252609.59145  24219943.013    24219950.1754
  23166594.352    -8131096.639 8  -6318266.45146  23166593.821    23166601.3494
  22554935.179   -15930239.721 8 -12397305.97546  22554935.043    22554942.3494
  20429072.160   -26192268.758 9 -20367534.80248  20429071.768    20429076.1474
  22960942.135   -13417864.481 8  -9428725.02346  22960941.751    22960947.8644
  21394593.953   -18403453.199 9 -14318007.52547  21394593.461    21394599.7414
  23940752.835    -6345979.646 8  -4933684.78845  23940752.671    23940762.4824
  20308027.456   -25998243.407 9 -20230883.99448  20308027.355    20308032.3744
 01  5 15  1 35  0.0000000  0  9 15 18 31 25 14 11 21 03 29
  24652462.894    15898534.750 7  12396266.35245  24652462.226    24652474.1254
  24234114.591    14502726.013 8  11310637.80045  24234114.211    24234121.4814
  23178140.590    -8070421.165 8  -6270986.92946  23178140.047    23178147.5394
  22538353.991   -16017374.163 8 -12465202.84646  22538353.853    22538361.1104
  20435261.341   -26159744.451 9 -20342191.19448  20435260.933    20435265.3284
  22944142.983   -13506144.430 8  -9497514.55646  22944142.601    22944148.7404
  21399467.191   -18377844.225 9 -14298052.50947  21399466.697    21399472.9854
  23957533.062    -6257799.802 8  -4864973.42545  23957532.945    23957542.6484
  20311150.345   -25981832.315 9 -20218096.13248  20311150.263    20311155.2704
 01  5 15  1 35 30.0000000  0  9 15 18 31 25 14 11 21 03 29
  24673412.096    16008622.820 7  12482049.01045  24673411.243    24673423.3584
  24248299.486    14577267.975 8  11368722.33845  24248299.121    24248306.4544
  23189751.245    -8009407.065 8  -6223443.54446  23189750.710    23189758.1824
  22521818.095   -16104270.476 8 -12532914.16446  22521817.970    22521825.2144
  20441525.507   -26126825.870 9 -20316540.36348  20441525.097    20441529.5134
  22927391.233   -13594175.371 8  -9566110.06946  22927390.878    22927396.9664
  21404376.206   -18352047.335 9 -14277951.06647  21404375.699    21404382.0124
  23974321.286    -6169578.001 8  -4796229.36345  23974321.073    23974330.8464
  20314345.402   -25965042.361 9 -20205013.05448  20314345.311    20314350.3074
 01  5 15  1 36  0.0000000  0  9 15 18 31 25 14 11 21 03 29
  24694383.552    16118827.436 7  12567922.47745  24694382.834    24694394.9584
  24262498.102    14651881.938 7  11426863.05145  24262497.813    24262505.0984
  23201425.694    -7948057.516 8  -6175638.78146  23201425.137    23201432.7364
  22505327.957   -16190926.196 8 -12600438.00146  22505327.846    22505335.0774
  20447864.327   -26093515.003 9 -20290583.85248  20447863.938    20447868.3724
  22910687.249   -13681955.148 8  -9634509.87146  22910686.862    22910692.9424
  21409321.174   -18326061.661 9 -14257702.51447  21409320.666    21409326.9544
  23991116.933    -6081317.274 8  -4727454.96745  23991116.695    23991126.5674
  20317612.228   -25947875.051 9 -20191635.93048  20317612.120    20317617.1454
 01  5 15  1 36 30.0000000  0  9 15 18 31 25 14 11 21 03 29
  24715376.938    16229147.170 7  12653885.61745  24715376.121    24715388.3414
  24276710.442    14726568.196 8  11485060.03745  24276710.172    24276717.4294
  23213163.547    -7886374.908 8  -6127574.48346  23213162.972    23213170.5804
  22488884.179   -16277338.239 8 -12667771.97446  22488884.080    22488891.2964
  20454277.528   -26059813.512 9 -20264322.96448  20454277.129    20454281.5864
  22894031.581   -13769481.074 8  -9702711.86146  22894031.202    22894037.3594
  21414302.102   -18299886.726 9 -14237306.49147  21414301.597    21414307.8834
  24007919.483    -5993020.383 8  -4658652.40645  24007919.283    24007929.1074
  20320950.584   -25930331.819 9 -20177965.88348  20320950.479    20320955.5084
 01  5 15  1 37  0.0000000  0  9 15 18 31 25 14 11 21 03 29
  24736391.944    16339580.094 7  12739936.99445  24736391.142    24736403.3554
  24290936.635    14801327.039 7  11543313.60645  24290936.325    24290943.6514
  23224964.275    -7824361.910 8  -6079252.74646  23224963.762    23224971.3434
  22472487.425   -16363503.470 8 -12734913.62546  22472487.321    22472494.5064
  20460764.729   -26025723.086 9 -20237759.00848  20460764.318    20460768.7974
  22877424.754   -13856750.260 8  -9770713.78946  22877424.389    22877430.5324
  21419319.113   -18273522.183 9 -14216762.71747  21419318.614    21419324.9014
  24024728.344    -5904690.077 8  -4589823.79845  24024728.107    24024738.0174
  20324360.252   -25912413.717 9 -20164003.73148  20324360.138    20324365.1894
 01  5 15  1 37 30.0000000  0  9 15 18 31 25 14 11 21 03 29
  24757428.052    16450123.989 7  12826074.84045  24757427.299    24757439.3964
  24305176.573    14876158.029 8  11601623.37745  24305176.276    24305183.7754
  23236827.201    -7762021.969 8  -6030676.23246  23236826.700    23236834.3374
  22456137.996   -16449420.053 8 -12801861.52646  22456137.879    22456145.0504
  20467325.525   -25991245.904 9 -20210893.68348  20467325.116    20467329.5784
  22860867.118   -13943761.066 8  -9838514.39446  22860866.721    22860872.8324
  21424372.337   -18246967.392 9 -14196070.70447  21424371.846    21424378.1234
  24041542.980    -5816329.362 8  -4520971.49445  24041542.746    24041552.6864
  20327840.895   -25894122.716 9 -20149751.00748  20327840.779    20327845.8634
 01  5 15  1 38  0.0000000  0  8 18 31 25 14 11 21 03 29
  24319430.503    14951062.746 8  11659990.59645  24319430.129    24319437.7304
  23248752.098    -7699356.481 8  -5981846.06146  23248751.554    23248759.2624
  22439836.689   -16535083.696 8 -12868612.34146  22439836.574    22439843.6964
  20473959.816   -25956382.453 9 -20183727.37348  20473959.423    20473963.9034
  22844359.408   -14030509.580 8  -9906110.60646  22844359.000    22844365.1174
  21429462.164   -18220220.304 9 -14175228.84647  21429461.682    21429467.9634
  24058363.003    -5727940.089 8  -4452096.96045  24058362.732    24058372.7754
  20331392.514   -25875458.933 9 -20135207.80648  20331392.400    20331397.4704
 01  5 15  1 38 30.0000000  0  8 18 31 25 14 11 21 03 29
  24333698.452    15026040.661 8  11718414.87845  24333698.021    24333705.6664
  23260738.338    -7636368.675 8  -5932764.72346  23260737.786    23260745.4664
  22423583.937   -16620492.069 8 -12935164.25246  22423583.826    22423590.9344
  20480667.174   -25921135.150 9 -20156261.95348  20480666.769    20480671.2684
  22827902.006   -14116993.667 8  -9973500.76546  22827901.603    22827907.7384
  21434588.595   -18193280.736 9 -14154237.00447  21434588.113    21434594.4054
  24075187.904    -5639525.397 8  -4383202.60345  24075187.624    24075197.7314
  20335014.680   -25856424.455 9 -20120375.75148  20335014.542    20335019.6114
 01  5 15  1 39  0.0000000  0  8 18 31 25 14 11 21 03 29
  24347979.999    15101090.531 7  11776895.19145  24347979.574    24347987.2394
  23272785.017    -7573062.982 8  -5883435.69046  23272784.477    23272792.1774
  22407379.972   -16705644.106 8 -13001516.41646  22407379.864    22407386.9624
  20487446.926   -25885507.260 9 -20128499.97548  20487446.516    20487451.0254
  22811495.142   -14203212.238 8 -10040684.03346  22811494.740    22811500.8614
  21439751.512   -18166149.420 9 -14133095.74847  21439751.039    21439757.3254
  24092016.791    -5551089.905 8  -4314292.03845  24092016.483    24092026.5894
  20338706.836   -25837021.880 9 -20105256.86948  20338706.726    20338711.7774
 01  5 15  1 39 30.0000000  0  8 18 31 25 14 11 21 03 29
  24362275.406    15176212.863 7  11835431.98745  24362274.908    24362282.6564
  23284891.700    -7509441.732 8  -5833860.75446  23284891.185    23284898.9224
  22391225.345   -16790536.684 8 -13067666.40246  22391225.227    22391232.3184
  20494298.851   -25849500.151 9 -20100442.50448  20494298.452    20494302.9584
  22795139.358   -14289162.359 8 -10107658.11346  22795138.964    22795145.0814
  21444951.122   -18138825.447 9 -14111804.36947  21444950.650    21444956.9734
  24108849.254    -5462635.578 8  -4245366.81345  24108848.881    24108859.1394
  20342468.842   -25817252.439 9 -20089852.11548  20342468.732    20342473.7694
 01  5 15  1 40  0.0000000  0  8 18 31 25 14 11 21 03 29
  24376584.481    15251407.524 8  11894025.11245  24376583.972    24376591.8524
  23297057.937    -7445508.047 8  -5784042.37746  23297057.443    23297065.1874
  22375120.614   -16875167.357 8 -13133612.30746  22375120.496    22375127.5134
  20501222.549   -25813115.959 9 -20072091.19948  20501222.139    20501226.6484
  22778835.103   -14374841.789 8 -10174421.26246  22778834.691    22778840.7964
  21450187.394   -18111308.591 9 -14090362.68947  21450186.915    21450193.2524
  24125684.672    -5374165.466 8  -4176429.30545  24125684.276    24125694.7224
  20346300.340   -25797117.878 9 -20074162.85648  20346300.219    20346305.2514
 01  5 15  1 40 30.0000000  0  8 18 31 25 14 11 21 03 29
  24390907.455    15326674.568 7  11952674.67045  24390907.097    24390914.6954
  23309283.153    -7381264.424 8  -5733982.48946  23309282.639    23309290.4464
  22359066.327   -16959532.920 8 -13199351.63947  22359066.181    22359073.1944
  20508217.680   -25776356.282 9 -20043447.31048  20508217.287    20508221.7904
  22762582.824   -14460247.948 8 -10240971.47646  22762582.402    22762588.4664
  21455460.625   -18083597.633 9 -14068769.76247  21455460.144    21455466.5074
  24142522.588    -5285682.352 7  -4107481.66345  24142522.219    24142532.7484
  20350201.071   -25776619.431 9 -20058190.04848  20350200.949    20350205.9794
 01  5 15  1 41  0.0000000  0  8 18 31 25 14 11 21 03 29
  24405244.272    15402014.811 7  12011381.23945  24405243.780    24405251.5324
  23321566.957    -7316713.112 8  -5683682.83446  23321566.366    23321574.2304
  22343063.062   -17043630.264 8 -13264881.97347  22343062.950    22343069.9144
  20515284.088   -25739222.227 9 -20014511.69848  20515283.675    20515288.1854
  22746383.130   -14545377.698 8 -10307306.29946  22746382.737    22746388.7944
  21460770.963   -18055691.657 9 -14047024.87947  21460770.488    21460776.8974
  24159362.520    -5197188.553 8  -4038525.68945  24159362.161    24159372.7174
  20354170.886   -25755757.973 9 -20041934.37648  20354170.741    20354175.7754
 01  5 15  1 41 30.0000000  0  8 18 31 25 14 11 21 03 29
  24419594.908    15477427.656 7  12070144.39845  24419594.467    24419602.0154
  23333908.570    -7251858.020 8  -5633146.48046  23333907.972    23333915.8514
  22327111.138   -17127457.754 8 -13330202.03047  22327111.023    22327117.9834
  20522421.134   -25701716.750 9 -19985286.66648  20522420.734    20522425.2364
  22730236.350   -14630229.420 8 -10373424.47446  22730235.945    22730242.0204
  21466118.400   -18027590.808 9 -14025128.14147  21466117.906    21466124.3414
  24176203.878    -5108687.612 7  -3969564.13045  24176203.492    24176214.0714
  20358209.279   -25734535.991 9 -20025397.77648  20358209.155    20358214.1744
 01  5 15  1 42  0.0000000  0  8 18 31 25 14 11 21 03 29
  24433959.375    15552913.174 7  12128964.16245  24433958.902    24433966.5724
  23346307.492    -7186701.436 8  -5582375.19346  23346306.898    23346314.8634
  22311211.185   -17211012.310 8 -13395309.40247  22311211.080    22311218.0374
  20529628.569   -25663841.370 9 -19955773.39548  20529628.154    20529632.6764
  22714143.025   -14714800.151 8 -10439323.70246  22714142.627    22714148.6864
  21471503.119   -17999294.066 9 -14003078.75847  21471502.628    21471509.0684
  24193046.167    -5020182.023 7  -3900598.97545  24193045.752    24193056.5064
  20362316.130   -25712954.422 9 -20008580.97948  20362316.002    20362321.0394
 01  5 15  1 42 30.0000000  0  8 18 31 25 14 11 21 03 29
  24448337.687    15628471.507 7  12187840.70845  24448337.358    24448344.7344
  23358763.303    -7121246.348 8  -5531371.31246  23358762.694    23358770.6184
  22295363.788   -17294290.872 8 -13460201.72247  22295363.641    22295370.5874
  20536906.076   -25625597.973 9 -19925973.35648  20536905.676    20536910.1804
  22698103.595   -14799087.644 8 -10505002.21246  22698103.240    22698109.2694
  21476925.313   -17970800.363 9 -13980875.89847  21476924.824    21476931.2764
  24209888.681    -4931674.343 7  -3831632.19545  24209888.512    24209899.1274
  20366491.074   -25691014.968 9 -19991485.31348  20366490.962    20366496.0004
 01  5 15  1 43  0.0000000  0  8 18 31 25 14 11 21 03 29
  24462729.857    15704102.782 7  12246774.07745  24462729.535    24462737.0804
  23371275.352    -7055495.760 8  -5480137.17746  23371274.693    23371282.6504
  22279569.277   -17377291.319 8 -13524877.33247  22279569.135    22279576.0474
  20544253.227   -25586988.508 9 -19895888.06948  20544252.810    20544257.3144
  22682118.537   -14883089.370 8 -10570458.04946  22682118.177    22682124.1864
  21482385.056   -17942109.345 9 -13958519.28847  21482384.565    21482391.0134
  24226731.088    -4843167.625 7  -3762666.18045  24226730.943    24226741.6074
  20370733.800   -25668719.190 9 -19974111.99048  20370733.685    20370738.7314
 01  5 15  1 43 30.0000000  0  8 18 31 25 14 11 21 03 29
  24477136.066    15779807.213 7  12305764.44845  24477135.741    24477143.0744
  23383842.965    -6989452.515 8  -5428674.99646  23383842.333    23383850.2764
  22263828.239   -17460010.683 8 -13589333.91447  22263828.132    22263835.0014
  20551669.710   -25548014.755 9 -19865518.92148  20551669.295    20551673.7874
  22666188.400   -14966802.632 8 -10635689.10546  22666188.025    22666194.0344
  21487882.508   -17913220.346 9 -13936008.40747  21487882.019    21487888.4514
  24243572.793    -4754664.616 7  -3693703.04745  24243572.594    24243583.4964
  20375044.159   -25646068.260 9 -19956461.92548  20375044.041    20375049.0824
 01  5 15  1 44  0.0000000  0  8 18 31 25 14 11 21 03 29
  24491556.128    15855584.330 7  12364811.47445  24491555.768    24491563.0704
  23396465.661    -6923119.853 8  -5376987.29046  23396465.054    23396473.0424
  22248141.150   -17542446.694 8 -13653569.69847  22248141.023    22248147.8764
  20559155.096   -25508678.796 9 -19834867.53648  20559154.693    20559159.1924
  22650313.507   -15050225.580 8 -10700693.96246  22650313.115    22650319.1014
  21493417.594   -17884133.350 9 -13913343.24247  21493417.097    21493423.5434
  24260413.245    -4666168.401 7  -3624745.19545  24260412.955    24260423.9384
  20379421.647   -25623064.379 9 -19938536.83248  20379421.520    20379426.5734
 01  5 15  1 44 30.0000000  0  8 18 31 25 14 11 21 03 29
  24505989.960    15931434.353 7  12423915.31445  24505989.576    24505996.8594
  23409143.044    -6856500.453 8  -5325076.13546  23409142.439    23409150.3874
  22232508.473   -17624596.716 8 -13717582.64147  22232508.335    22232515.1754
  20566709.036   -25468982.480 9 -19803935.35248  20566708.624    20566713.1504
  22634494.462   -15133355.211 8 -10765470.25746  22634494.086    22634499.9974
  21498990.575   -17854847.394 9 -13890523.04447  21498990.069    21498996.5194
  24277252.006    -4577681.462 7  -3555794.58945  24277251.677    24277262.6604
  20383866.083   -25599708.815 9 -19920337.70148  20383865.953    20383870.9934
 01  5 15  1 45  0.0000000  0  8 18 31 25 14 11 21 03 29
  24520437.736    16007357.600 7  12483076.22645  24520437.344    24520444.6014
  23421874.351    -6789597.026 8  -5272943.68846  23421873.774    23421881.7624
  22216930.656   -17706458.277 8 -13781370.80547  22216930.529    22216937.3804
  20574331.203   -25428927.762 9 -19772723.89248  20574330.807    20574335.3184
  22618731.600   -15216189.334 8 -10830016.28146  22618731.238    22618737.1314
  21504601.563   -17825361.637 9 -13867547.15847  21504601.035    21504607.4814
  24294088.468    -4489206.776 8  -3486853.53345  24294088.142    24294099.0854
  20388377.153   -25576003.109 9 -19901865.73148  20388377.010    20388382.0524
 01  5 15  1 45 30.0000000  0  8 18 31 25 14 11 21 03 29
  24534899.503    16083354.420 8  12542294.44645  24534899.264    24534906.4634
  23434659.235    -6722412.350 8  -5220592.07346  23434658.703    23434666.6704
  22201408.352   -17788028.273 8 -13844931.77947  22201408.235    22201415.0684
  20582021.292   -25388516.108 9 -19741234.30148  20582020.883    20582025.4224
  22603025.570   -15298724.938 8 -10894329.68646  22603025.212    22603031.0904
  21510250.711   -17795675.170 9 -13844414.86847  21510250.184    21510256.6054
  24310922.113    -4400746.822 7  -3417923.96245  24310921.788    24310932.7044
  20392954.638   -25551948.282 9 -19883121.71748  20392954.491    20392959.5384
 01  5 15  1 46  0.0000000  0  8 18 31 25 14 11 21 03 29
  24549375.110    16159424.015 8  12601569.38645  24549374.792    24549382.1934
  23447496.905    -6654950.088 8  -5168024.17146  23447496.366    23447504.3944
  22185941.981   -17869304.485 8 -13908263.82647  22185941.862    22185948.6924
  20589778.765   -25347750.366 9 -19709468.79848  20589778.363    20589782.8804
  22587376.636   -15380960.417 8 -10958409.25546  22587376.255    22587382.1374
  21515938.099   -17765787.850 9 -13821126.06747  21515937.576    21515943.9984
  24327752.304    -4312304.809 8  -3349008.37545  24327751.927    24327762.9764
  20397598.058   -25527546.950 9 -19864107.70148  20397597.907    20397602.9924
 01  5 15  1 46 30.0000000  0  8 18 31 25 14 11 21 03 29
  24563864.757    16235567.095 7  12660901.59045  24563864.331    24563871.7744
  23460386.940    -6587212.810 8  -5115241.97446  23460386.392    23460394.4204
  22170532.089   -17950283.840 8 -13971364.55347  22170531.930    22170538.7764
  20597603.331   -25306632.104 9 -19677428.60448  20597602.916    20597607.4254
  22571785.366   -15462892.760 8 -11022252.60646  22571784.999    22571790.8914
  21521663.824   -17735698.953 9 -13797680.19847  21521663.302    21521669.7224
  24344578.592    -4223883.152 8  -3280108.64645  24344578.239    24344589.2994
  20402307.194   -25502800.190 9 -19844824.52248  20402307.057    20402312.1444
 01  5 15  1 47  0.0000000  0  8 18 31 25 14 11 21 03 29
  24578368.247    16311783.147 7  12720290.63445  24578367.800    24578375.3764
  23473328.770    -6519203.564 8  -5062247.84046  23473328.173    23473336.2004
  22155179.059   -18030964.348 8 -14034232.41347  22155178.909    22155185.7424
  20605494.603   -25265163.306 9 -19645115.26148  20605494.173    20605498.7024
  22556252.223   -15544519.725 8 -11085857.99846  22556251.852    22556257.7974
  21527428.015   -17705408.034 9 -13774076.90447  21527427.492    21527433.9274
  24361400.373    -4135485.007 8  -3211227.24045  24361399.983    24361411.1754
  20407081.805   -25477709.536 9 -19825273.36748  20407081.661    20407086.7354
 01  5 15  1 47 30.0000000  0  8 18 31 25 14 11 21 03 29
  24592885.691    16388072.568 7  12779736.86045  24592885.339    24592892.9954
  23486321.846    -6450924.944 8  -5009043.81446  23486321.248    23486329.2614
  22139883.482   -18111342.975 8 -14096865.04547  22139883.308    22139890.1014
  20613452.285   -25223345.347 9 -19612529.85048  20613451.844    20613456.3864
  22540777.701   -15625838.557 8 -11149223.29346  22540777.325    22540783.2904
  21533230.831   -17674914.142 9 -13750315.45547  21533230.295    21533236.7394
  24378217.269    -4047112.755 8  -3142366.03945  24378216.881    24378228.0874
  20411921.538   -25452276.523 9 -19805455.44448  20411921.391    20411926.4724
 01  5 15  1 48  0.0000000  0  8 18 31 25 14 11 21 03 29
  24607417.085    16464435.083 8  12839240.03245  24607416.780    24607424.4264
  23499365.503    -6382380.469 8  -4955632.62546  23499364.939    23499372.9454
  22124645.768   -18191417.422 8 -14159260.65247  22124645.597    22124652.3464
  20621475.912   -25181180.871 9 -19579674.42248  20621475.489    20621480.0274
  22525362.201   -15706847.287 8 -11212346.94846  22525361.827    22525367.8024
  21539072.387   -17644216.592 9 -13726395.30747  21539071.861    21539078.2944
  24395028.606    -3958769.397 8  -3073527.33145  24395028.173    24395039.5754
  20416826.066   -25426503.049 9 -19785372.22348  20416825.916    20416831.0014
 01  5 15  1 48 30.0000000  0  8 18 31 25 14 11 21 03 29
  24621962.440    16540871.004 8  12898800.40645  24621962.089    24621969.8654
  23512459.255    -6313572.863 8  -4902016.40646  23512458.644    23512466.6654
  22109466.396   -18271185.242 8 -14221417.32847  22109466.245    22109472.9744
  20629565.180   -25138671.528 9 -19546550.26648  20629564.750    20629569.3114
  22510006.314   -15787543.055 8 -11275226.74646  22510005.927    22510011.9054
  21544952.818   -17613314.804 9 -13702316.01447  21544952.300    21544958.7344
  24411834.006    -3870457.556 8  -3004713.17545  24411833.619    24411844.8634
  20421795.162   -25400390.394 9 -19765024.70448  20421795.006    20421800.1034
 01  5 15  1 49  0.0000000  0  8 18 31 25 14 11 21 03 29
  24636521.664    16617380.463 7  12958418.06745  24636521.431    24636529.1804
  23525602.427    -6244505.224 8  -4848197.57046  23525601.924    23525609.8724
  22094345.845   -18350643.784 8 -14283333.00947  22094345.693    22094352.4434
  20637719.640   -25095819.436 9 -19513159.04048  20637719.224    20637723.7994
  22494710.363   -15867923.716 8 -11337861.00446  22494709.956    22494715.9114
  21550872.204   -17582208.303 9 -13678077.20847  21550871.672    21550878.1214
  24428632.911    -3782180.154 7  -2935925.86945  24428632.439    24428643.7614
  20426828.417   -25373940.466 9 -19744414.38148  20426828.281    20426833.3744
 01  5 15  1 49 30.0000000  0  8 18 31 25 14 11 21 03 29
  24651094.896    16693963.076 7  13018092.77045  24651094.662    24651102.4634
  23538794.573    -6175180.503 8  -4794178.40646  23538794.031    23538801.9924
  22079284.690   -18429790.304 9 -14345005.55347  22079284.550    22079291.2984
  20645938.968   -25052626.506 9 -19479502.22348  20645938.564    20645943.1384
  22479474.855   -15947986.815 8 -11400247.80446  22479474.453    22479480.3904
  21556830.699   -17550896.440 9 -13653678.38047  21556830.167    21556836.5904
  24445424.592    -3693939.984 7  -2867167.56545  24445424.195    24445435.5754
  20431925.569   -25347154.839 9 -19723542.46848  20431925.432    20431930.5274
 01  5 15  1 50  0.0000000  0  8 18 31 25 14 11 21 03 29
  24665682.163    16770619.048 7  13077824.60745  24665681.824    24665689.7814
  23552035.149    -6105601.477 8  -4739961.07946  23552034.536    23552042.5184
  22064283.360   -18508622.549 8 -14406433.21147  22064283.215    22064289.9384
  20654222.841   -25009094.583 9 -19445581.25848  20654222.419    20654226.9964
  22464300.295   -16027729.671 8 -11462385.07646  22464299.869    22464305.7994
  21562828.383   -17519378.604 9 -13629119.05547  21562827.855    21562834.2534
  24462208.809    -3605739.350 7  -2798440.10245  24462208.405    24462219.8494
  20437086.301   -25320035.039 9 -19702410.16148  20437086.170    20437091.2524
 01  5 15  1 50 30.0000000  0  8 18 31 25 14 11 21 03 29
  24680283.313    16847348.526 7  13137613.72145  24680283.036    24680290.9764
  23565323.520    -6035771.089 8  -4685547.88846  23565322.886    23565330.9274
  22049342.313   -18587138.011 8 -14467614.02647  22049342.168    22049348.8884
  20662570.856   -24965225.732 9 -19411397.75548  20662570.430    20662574.9884
  22449187.069   -16107150.058 8 -11524271.07646  22449186.671    22449192.5824
  21568865.397   -17487654.157 9 -13604398.73047  21568864.836    21568871.2694
  24478985.002    -3517581.221 7  -2729745.74245  24478984.611    24478996.1704
  20442310.345   -25292582.578 9 -19681018.64248  20442310.213    20442315.2954
 01  5 15  1 51  0.0000000  0  7 31 25 14 11 21 03 29
  23578661.281    -5965681.089 8  -4630932.41146  23578660.683    23578668.6954
  22034464.248   -18665322.446 9 -14528536.89547  22034464.108    22034470.8274
  20670984.685   -24921010.733 9 -19376944.52748  20670984.265    20670988.8274
  22434137.850   -16186234.078 8 -11585894.96246  22434137.470    22434143.3814
  21574943.947   -17455710.964 9 -13579507.96047  21574943.408    21574949.8564
  24495754.741    -3429456.896 7  -2661077.74045  24495754.173    24495765.9774
  20447599.490   -25264787.845 9 -19659360.41648  20447599.352    20447604.4514
 01  5 15  1 51 30.0000000  0  7 31 25 14 11 21 03 29
  23592044.933    -5895349.642 8  -4576128.78646  23592044.327    23592052.4384
  22019646.723   -18743188.769 9 -14589211.88447  22019646.566    22019653.2584
  20679461.266   -24876466.261 9 -19342234.56548  20679460.837    20679465.4084
  22419150.264   -16264994.315 8 -11647266.55646  22419149.876    22419155.7534
  21581061.363   -17423563.773 9 -13554458.22347  21581060.842    21581067.2894
  24512514.605    -3341384.362 7  -2592450.06645  24512514.189    24512525.7484
  20452950.598   -25236667.494 9 -19637448.46448  20452950.467    20452955.5494
 01  5 15  1 52  0.0000000  0  7 31 25 14 11 21 03 29
  23605474.093    -5824779.024 8  -4521138.79846  23605473.461    23605481.7464
  22004890.431   -18820733.527 9 -14649636.31147  22004890.282    22004896.9334
  20688000.218   -24831593.799 9 -19307269.02848  20687999.776    20688004.3494
  22404224.875   -16343427.749 8 -11708383.49846  22404224.508    22404230.3634
  21587217.894   -17391211.184 9 -13529248.44247  21587217.330    21587223.8294
  24529264.167    -3253365.258 7  -2523864.07645  24529263.773    24529275.4244
  20458363.511   -25208222.486 9 -19615283.53348  20458363.370    20458368.4554
 01  5 15  1 52 30.0000000  0  7 31 25 14 11 21 03 29
  23618948.504    -5753970.722 8  -4465963.61146  23618947.863    23618956.2594
  21990196.083   -18897952.611 9 -14709806.96547  21990195.924    21990202.5624
  20696601.547   -24786393.638 9 -19272048.14348  20696601.111    20696605.6884
  22389362.427   -16421530.552 8 -11769242.79946  22389362.037    22389367.8614
  21593413.921   -17358650.803 9 -13503876.74247  21593413.391    21593419.8614
  24546003.259    -3165400.973 7  -2455320.78345  24546002.845    24546014.7234
  20463838.221   -25179452.874 9 -19592865.66148  20463838.070    20463843.1484
 01  5 15  1 53  0.0000000  0  7 31 25 14 11 21 03 29
  23632467.769    -5682927.303 8  -4410605.19946  23632467.053    23632475.4864
  21975564.156   -18974843.786 9 -14769722.10947  21975564.004    21975570.5974
  20705264.821   -24740867.714 9 -19236573.41648  20705264.374    20705268.9664
  22374563.483   -16499299.723 8 -11829842.12946  22374563.062    22374568.8494
  21599649.688   -17325881.742 9 -13478342.44247  21599649.174    21599655.6054
  24562731.483    -3077494.214 7  -2386822.34945  24562731.144    24562743.2504
  20469374.422   -25150360.022 9 -19570195.91648  20469374.267    20469379.3484
 01  5 15  1 53 30.0000000  0  7 31 25 14 11 21 03 29
  23646031.193    -5611650.987 8  -4355065.32746  23646030.574    23646038.9854
  21960995.226   -19051403.591 9 -14829379.04247  21960995.080    21961001.6744
  20713989.875   -24695017.286 9 -19200845.83448  20713989.433    20713994.0134
  22359828.558   -16576732.196 8 -11890179.09346  22359828.123    22359833.9064
  21605925.424   -17292902.560 9 -13452644.40147  21605924.909    21605931.3634
  24579448.459    -2989646.734 7  -2318370.07545  24579448.193    24579460.3194
  20474971.946   -25120944.889 9 -19547275.04448  20474971.792    20474976.8894
 01  5 15  1 54  0.0000000  0  7 31 25 14 11 21 03 29
  23659638.405    -5540145.103 8  -4299346.55846  23659637.764    23659646.1974
  21946489.794   -19127629.767 9 -14888776.00947  21946489.632    21946496.2474
  20722776.344   -24648844.150 9 -19164866.78948  20722775.891    20722780.4834
  22345158.124   -16653825.673 8 -11950251.90746  22345157.689    22345163.4864
  21612241.242   -17259712.744 9 -13426782.23547  21612240.747    21612247.1834
  24596153.730    -2901861.300 7  -2249966.19045  24596153.377    24596165.7194
  20480630.500   -25091209.095 9 -19524104.30548  20480630.335    20480635.4474
 01  5 15  1 54 30.0000000  0  7 31 25 14 11 21 03 29
  23673288.699    -5468412.634 8  -4243451.23646  23673288.094    23673296.5044
  21932048.399   -19203519.579 9 -14947910.87247  21932048.249    21932054.8384
  20731623.839   -24602350.371 9 -19128637.89048  20731623.396    20731627.9774
  22330552.694   -16730577.519 8 -12010058.51446  22330552.270    22330558.0674
  21618597.313   -17226311.722 9 -13400755.49547  21618596.807    21618603.2074
  24612846.660    -2814140.484 7  -2181612.64145  24612846.300    24612858.6334
  20486349.679   -25061154.475 9 -19500685.13348  20486349.515    20486354.6194
 01  5 15  1 55  0.0000000  0  7 31 25 14 11 21 03 29
  23686981.596    -5396456.584 8  -4187381.69146  23686981.004    23686989.3434
  21917671.577   -19279070.354 9 -15006781.55047  21917671.392    21917677.9584
  20740532.054   -24555537.689 9 -19092160.49648  20740531.599    20740536.1864
  22316012.737   -16806985.311 8 -12069597.03246  22316012.306    22316018.1094
  21624993.656   -17192698.870 9 -13374563.68847  21624993.129    21624999.5704
  24629526.916    -2726486.658 7  -2113311.26045  24629526.564    24629539.0354
  20492129.381   -25030782.047 9 -19477018.31848  20492129.224    20492134.3314
 01  5 15  1 55 30.0000000  0  7 31 25 14 11 21 03 29
  23700716.601    -5324279.151 8  -4131139.63846  23700715.995    23700724.3464
  21903359.796   -19354279.172 9 -15065385.77347  21903359.600    21903366.1254
  20749500.624   -24508407.523 9 -19055435.70848  20749500.170    20749504.7634
  22301538.877   -16883045.855 8 -12128864.95846  22301538.436    22301544.2474
  21631430.552   -17158872.716 9 -13348205.67747  21631430.033    21631436.4864
  24646194.017    -2638901.860 7  -2045063.71245  24646193.645    24646206.1244
  20497969.285   -25000093.121 9 -19453104.88148  20497969.121    20497974.2154
 01  5 15  1 56  0.0000000  0  7 31 25 14 11 21 03 29
  23714493.072    -5251883.728 8  -4074727.73045  23714492.468    23714500.7844
  21889113.428   -19429144.141 9 -15123722.06147  21889113.252    21889119.7694
  20758529.226   -24460962.201 9 -19018465.34848  20758528.760    20758533.3154
  22287131.495   -16958757.192 8 -12187860.78647  22287131.060    22287136.8354
  21637908.054   -17124833.262 9 -13321681.45747  21637907.538    21637914.0274
  24662847.408    -2551389.272 7  -1976872.43545  24662847.046    24662859.4604
  20503869.014   -24969089.838 9 -19428946.49448  20503868.847    20503873.9614
 01  5 15  1 56 30.0000000  0  7 31 25 14 11 21 03 29
  23728310.525    -5179272.877 8  -4018147.94445  23728309.863    23728318.2744
  21874933.051   -19503662.163 9 -15181788.00247  21874932.879    21874939.3784
  20767617.445   -24413203.267 9 -18981250.60948  20767616.988    20767621.5504
  22272791.078   -17034116.484 8 -12246582.28447  22272790.648    22272796.4134
  21644426.388   -17090579.374 9 -13294990.14147  21644425.876    21644432.3794
  24679486.751    -2463951.157 7  -1908739.23945  24679486.237    24679498.7864
  20509828.374   -24937773.214 9 -19404543.94148  20509828.221    20509833.3384
 01  5 15  1 57  0.0000000  0  7 31 25 14 11 21 03 29
  23742168.287    -5106449.973 8  -3961402.93545  23742167.709    23742176.0314
  21860819.086   -19577831.238 9 -15239582.04147  21860818.920    21860825.4124
  20776764.878   -24365133.075 9 -18943793.33948  20776764.435    20776769.0074
  22258517.977   -17109121.931 8 -12305028.06647  22258517.549    22258523.3434
  21650985.661   -17056110.209 9 -13268131.08447  21650985.155    21650991.6894
  24696111.273    -2376590.087 7  -1840666.06345  24696110.738    24696123.2394
  20515846.968   -24906145.174 9 -19379898.73048  20515846.805    20515851.9514
 01  5 15  1 57 30.0000000  0  7 31 25 14 11 21 03 29
  23756065.815    -5033418.441 8  -3904495.36045  23756065.248    23756073.6174
  21846771.916   -19651649.473 9 -15297102.68847  21846771.735    21846778.2224
  20785971.124   -24316754.030 9 -18906095.39648  20785970.672    20785975.2314
  22244312.627   -17183771.352 8 -12363196.42247  22244312.193    22244317.9754
  21657585.880   -17021425.984 9 -13241104.44547  21657585.356    21657591.9034
  24712720.385    -2289309.598 7  -1772655.58245  24712719.960    24712732.6774
  20521924.412   -24874207.984 9 -19355012.61848  20521924.248    20521929.4074
 01  5 15  1 58  0.0000000  0  7 31 25 14 11 21 03 29
  23770002.668    -4960180.361 8  -3847426.83345  23770002.079    23770010.3994
  21832792.111   -19725113.556 9 -15354347.37747  21832791.923    21832798.3994
  20795235.930   -24268067.176 9 -18868157.60048  20795235.468    20795240.0274
  22230175.603   -17258061.841 8 -12421085.09247  22230175.170    22230180.9404
  21664227.259   -16986525.245 9 -13213909.10447  21664226.728    21664233.2974
  24729313.969    -2202111.292 7  -1704709.21145  24729313.532    24729326.2904
  20528060.556   -24841962.444 9 -19329886.23748  20528060.390    20528065.5234
 01  5 15  1 58 30.0000000  0  7 31 25 14 11 21 03 29
  23783978.162    -4886739.238 8  -3790200.10145  23783977.585    23783985.8634
  21818880.060   -19798221.556 9 -15411314.59847  21818879.864    21818886.3444
  20804558.792   -24219075.198 9 -18829982.04748  20804558.344    20804562.9064
  22216107.320   -17331991.008 8 -12478692.21547  22216106.869    22216112.6324
  21670909.939   -16951407.733 9 -13186544.84347  21670909.412    21670915.9714
  24745891.369    -2114998.184 7  -1636829.22745  24745891.045    24745903.5124
  20534254.927   -24809410.793 9 -19304521.32648  20534254.761    20534259.8724
 01  5 15  1 59  0.0000000  0  6 31 25 14 11 21 29
  23797993.440    -4813088.765 8  -3732810.23445  23797992.862    23798001.1604
  21805038.047   -19870961.566 9 -15467995.07447  21805037.866    21805044.3274
  20813941.246   -24169770.306 9 -18791562.66548  20813940.779    20813945.3464
  22202110.064   -17405546.915 8 -12536008.48747  22202109.649    22202115.3704
  21677635.749   -16916063.443 9 -13159003.86647  21677635.196    21677641.8074
  20540509.117   -24776544.900 9 -19278911.55248  20540508.962    20540514.0804
 01  5 15  1 59 30.0000000  0  6 31 25 14 11 21 29
  23812046.094    -4739242.249 8  -3675267.60245  23812045.434    23812053.7584
  21791264.548   -19943341.620 9 -15524395.05747  21791264.362    21791270.8254
  20823380.875   -24120164.863 9 -18752909.08248  20823380.404    20823384.9764
  22188182.324   -17478737.736 8 -12593040.27947  22188181.901    22188187.6054
  21684402.856   -16880502.060 9 -13131293.72547  21684402.311    21684408.9204
  20546820.827   -24743376.828 9 -19253066.31048  20546820.662    20546825.7854
 01  5 15  2  0  0.0000000  0  6 31 25 14 11 21 29
  23826135.065    -4665205.194 8  -3617576.50545  23826134.400    23826142.6874
  21777559.510   -20015361.874 9 -15580514.68947  21777559.310    21777565.7794
  20832876.843   -24070263.092 9 -18714024.59748  20832876.360    20832880.9354
  22174324.112   -17551563.269 8 -12649787.43147  22174323.645    22174329.3514
  21691211.016   -16844725.351 9 -13103415.80547  21691210.437    21691217.0584
  20553189.186   -24709910.872 9 -19226988.95948  20553189.013    20553194.1254
 01  5 15  2  0 30.0000000  0  6 31 25 14 11 21 29
  23840259.817    -4590979.360 8  -3559738.30045  23840259.181    23840267.5384
  21763923.630   -20087018.644 9 -15636351.08347  21763923.419    21763929.8914
  20842429.035   -24020065.939 9 -18674909.94348  20842428.567    20842433.1454
  22160536.029   -17624020.139 8 -12706247.31347  22160535.571    22160541.2824
  21698060.389   -16808731.778 9 -13075368.90547  21698059.806    21698066.4334
  20559614.167   -24676147.356 9 -19200679.73548  20559614.005    20559619.1024
 01  5 15  2  1  0.0000000  0  6 31 25 14 11 21 29
  23854420.287    -4516566.077 8  -3501754.05545  23854419.708    23854428.0624
  21750357.673   -20158308.084 9 -15691901.24347  21750357.471    21750363.9044
  20852037.363   -23969573.837 9 -18635565.45848  20852036.905    20852041.4934
  22146818.836   -17696104.304 8 -12762416.77447  22146818.387    22146824.0974
  21704951.528   -16772518.696 9 -13047150.95347  21704950.975    21704957.5334
  20566095.821   -24642086.238 9 -19174138.61248  20566095.648    20566100.7304
 01  5 15  2  1 30.0000000  0  6 31 25 14 11 21 29
  23868615.603    -4441969.402 8  -3443626.88445  23868615.051    23868623.4754
  21736861.944   -20229228.310 9 -15747163.70947  21736861.774    21736868.1804
  20861701.340   -23918789.477 9 -18595993.23848  20861700.855    20861705.4414
  22133172.873   -17767814.302 8 -12818294.67447  22133172.434    22133178.1314
  21711884.425   -16736086.208 9 -13018762.03347  21711883.885    21711890.4544
  20572633.637   -24607729.902 9 -19147367.44948  20572633.462    20572638.5394
 01  5 15  2  2  0.0000000  0  6 31 25 14 11 21 29
  23882845.592    -4367190.686 8  -3385357.88545  23882845.000    23882853.4864
  21723437.150   -20299775.843 9 -15802135.76147  21723436.978    21723443.3664
  20871420.806   -23867713.345 9 -18556193.66448  20871420.316    20871424.9374
  22119598.839   -17839146.173 8 -12873877.93447  22119598.391    22119604.1094
  21718859.418   -16699432.367 9 -12990200.63547  21718858.887    21718865.4454
  20579227.568   -24573078.565 9 -19120366.41648  20579227.387    20579232.4674
 01  5 15  2  2 30.0000000  0  6 31 25 14 11 21 29
  23897109.503    -4292233.401 8  -3326949.73145  23897108.895    23897117.4074
  21710083.648   -20369948.797 9 -15856815.93647  21710083.482    21710089.8304
  20881195.312   -23816347.920 9 -18516168.67048  20881194.830    20881199.4644
  22106097.076   -17910098.284 8 -12929165.27847  22106096.648    22106102.3824
  21725876.575   -16662557.042 9 -12961466.64847  21725876.039    21725882.6334
  20585877.232   -24538134.369 9 -19093137.17848  20585877.044    20585882.1514
 01  5 15  2  3  0.0000000  0  6 31 25 14 11 21 29
  23911406.878    -4217100.845 8  -3268404.98945  23911406.277    23911414.8614
  21696801.813   -20439745.170 9 -15911202.67247  21696801.627    21696807.9264
  20891024.516   -23764695.240 9 -18475919.84548  20891024.035    20891028.6624
  22092668.041   -17980668.144 8 -12984154.76447  22092667.604    22092673.3274
  21732936.022   -16625459.320 9 -12932559.37247  21732935.492    21732942.0804
  20592582.189   -24502899.387 9 -19065681.35648  20592582.022    20592587.1424
 01  5 15  2  3 30.0000000  0  6 31 25 14 11 21 29
  23925736.917    -4141796.077 8  -3209726.07345  23925736.367    23925745.0764
  21683592.053   -20509162.595 9 -15965294.12347  21683591.872    21683598.1634
  20900907.910   -23712757.517 9 -18435448.90348  20900907.423    20900912.0914
  22079312.154   -18050853.550 8 -13038844.67047  22079311.751    22079317.4884
  21740037.846   -16588139.122 9 -12903478.72847  21740037.295    21740043.9314
  20599342.240   -24467374.949 9 -19037999.98648  20599342.072    20599347.2284
 01  5 15  2  4  0.0000000  0  6 31 25 14 11 21 29
  23940099.294    -4066321.712 8  -3150914.99545  23940098.774    23940107.5744
  21670455.020   -20578198.108 9 -16019087.98547  21670454.826    21670461.0924
  20910845.291   -23660535.964 9 -18394756.79748  20910844.813    20910849.5164
  22066030.020   -18120651.698 8 -13093232.82247  22066029.586    22066035.3024
  21747182.268   -16550595.306 9 -12874223.84347  21747181.699    21747188.3484
  20606157.197   -24431562.294 9 -19010094.03048  20606157.034    20606162.1974
 01  5 15  2  4 30.0000000  0  6 31 25 14 11 21 29
  23954493.461    -3990680.547 8  -3091973.96045  23954492.879    23954501.7024
  21657391.029   -20646849.733 9 -16072582.71147  21657390.830    21657397.0634
  20920836.365   -23608032.547 9 -18353845.05648  20920835.907    20920840.6034
  22052822.040   -18190060.094 8 -13147317.26547  22052821.599    22052827.2884
  21754369.311   -16512827.236 9 -12844794.21247  21754368.784    21754375.4434
  20613026.634   -24395463.190 9 -18981964.86948  20613026.459    20613031.6254
 01  5 15  2  5  0.0000000  0  6 31 25 14 11 21 29
  23968918.742    -3914875.501 8  -3032905.22045  23968918.153    23968926.9814
  21644400.610   -20715114.877 9 -16125776.28347  21644400.423    21644406.6104
  20930880.729   -23555249.184 9 -18312715.17748  20930880.263    20930884.9454
  22039688.607   -18259076.613 9 -13201096.35147  22039688.191    22039693.8714
  21761599.222   -16474834.043 9 -12815189.16447  21761598.669    21761605.3054
  20619950.320   -24359079.049 9 -18953613.59948  20619950.146    20619955.3104
 01  5 15  2  5 30.0000000  0  6 31 25 14 11 21 29
  23983374.673    -3838909.604 8  -2973711.15945  23983374.075    23983382.9424
  21631484.051   -20782991.703 9 -16178667.26647  21631483.846    21631490.0154
  20940977.979   -23502187.731 9 -18271368.60448  20940977.493    20940982.1764
  22026630.296   -18327698.567 9 -13254567.98247  22026629.871    22026635.5154
  21768871.994   -16436615.463 9 -12785408.48647  21768871.454    21768878.0924
  20626927.896   -24322411.598 9 -18925041.56648  20626927.725    20626932.8814
 01  5 15  2  6  0.0000000  0  6 31 25 14 11 21 29
  23997860.475    -3762786.835 8  -2914394.85045  23997859.877    23997868.7194
  21618641.730   -20850478.335 9 -16231254.20347  21618641.516    21618647.6684
  20951127.686   -23448850.885 9 -18229807.43848  20951127.206    20951131.8614
  22013647.334   -18395924.431 9 -13307730.96547  22013646.890    22013652.5374
  21776187.760   -16398170.907 8 -12755451.72047  21776187.239    21776193.8694
  20633958.960   -24285463.170 9 -18896250.58748  20633958.768    20633963.9154
 01  5 15  2  6 30.0000000  0  6 31 25 14 11 21 29
  24012375.556    -3686509.879 8  -2854958.39245  24012374.999    24012383.9214
  21605874.077   -20917572.650 9 -16283535.44547  21605873.855    21605879.9884
  20961329.411   -23395240.455 9 -18188033.10048  20961328.934    20961333.5934
  22000740.206   -18463751.725 9 -13360583.37647  22000739.775    22000745.3974
  21783546.620   -16359499.913 8 -12725318.51147  21783546.075    21783552.7414
  20641043.207   -24248235.255 9 -18867241.83248  20641043.023    20641048.1494
 01  5 15  2  7  0.0000000  0  6 31 25 14 11 21 29
  24026919.552    -3610080.910 8  -2795403.47545  24026918.960    24026927.9994
  21593181.709   -20984271.314 9 -16335508.38647  21593181.492    21593187.6284
  20971583.041   -23341357.393 9 -18146046.31648  20971582.545    20971587.2134
  21987909.568   -18531177.397 9 -13413122.83647  21987909.107    21987914.7394
  21790948.802   -16320601.250 8 -12695007.89847  21790948.230    21790954.9144
  20648180.504   -24210728.642 9 -18838015.91148  20648180.302    20648185.4474
 01  5 15  2  7 30.0000000  0  6 31 25 14 11 21 29
  24041491.740    -3533503.566 8  -2735732.94745  24041491.121    24041500.2364
  21580564.892   -21050572.891 9 -16387171.90147  21580564.676    21580570.8044
  20981887.984   -23287204.573 9 -18103849.32848  20981887.492    20981892.1474
  21975155.586   -18598199.822 9 -13465348.08047  21975155.127    21975160.7584
  21798394.375   -16281474.554 8 -12664519.59147  21798393.816    21798400.5064
  20655370.304   -24172945.887 9 -18808574.81148  20655370.115    20655375.2464
 01  5 15  2  8  0.0000000  0  6 31 25 14 11 21 29
  24056091.754    -3456780.980 8  -2675949.25145  24056091.114    24056100.2294
  21568023.957   -21116475.558 9 -16438524.58447  21568023.748    21568029.8614
  20992243.822   -23232784.150 9 -18061443.82148  20992243.332    20992248.0154
  21962478.725   -18664817.083 9 -13517257.60547  21962478.253    21962483.9064
  21805883.285   -16242119.918 8 -12633853.67147  21805882.722    21805889.4664
  20662612.353   -24134888.636 9 -18778919.81948  20662612.161    20662617.3034
 01  5 15  2  8 30.0000000  0  6 31 25 14 11 21 29
  24070718.840    -3379916.069 8  -2616054.62745  24070718.228    24070727.1904
  21555559.522   -21181976.508 9 -16489564.24047  21555559.307    21555565.4374
  21002650.309   -23178097.579 9 -18018830.92748  21002649.838    21002654.5474
  21949879.433   -18731026.373 9 -13568849.23947  21949878.975    21949884.6644
  21813415.885   -16202536.116 8 -12603009.18147  21813415.307    21813422.0614
  20669906.407   -24096558.212 9 -18749051.96648  20669906.222    20669911.3284
 01  5 15  2  9  0.0000000  0  6 31 25 14 11 21 29
  24085372.263    -3302912.553 8  -2556052.02545  24085371.624    24085380.6744
  21543171.704   -21247074.723 9 -16540290.06947  21543171.473    21543177.6054
  21013106.950   -23123147.523 9 -17976012.71248  21013106.479    21013111.2024
  21937358.122   -18796826.013 9 -13620121.65647  21937357.663    21937363.3754
  21820992.048   -16162723.251 8 -12571986.19847  21820991.482    21820998.2604
  20677251.995   -24057957.019 9 -18718973.11648  20677251.796    20677256.8914
 01  5 15  2  9 30.0000000  0  6 31 25 14 11 21 29
  24100051.786    -3225771.412 8  -2495942.16745  24100051.192    24100060.1914
  21530861.317   -21311765.970 9 -16590698.78847  21530861.095    21530867.2424
  21023613.775   -23067933.922 9 -17932989.15048  21023613.295    21023618.0304
  21924915.554   -18862211.830 9 -13671071.62547  21924915.107    21924920.8204
  21828612.228   -16122678.979 8 -12540782.90447  21828611.667    21828618.4504
  20684649.155   -24019084.595 9 -18688682.92748  20684648.966    20684654.0704
 01  5 15  2 10  0.0000000  0  6 31 25 14 11 21 29
  24114756.340    -3148498.992 8  -2435730.01245  24114755.741    24114764.7314
  21518628.214   -21376051.041 9 -16640791.00047  21518627.994    21518634.1394
  21034169.707   -23012462.161 9 -17889764.41348  21034169.228    21034173.9274
  21912551.514   -18927185.080 9 -13721700.10747  21912551.067    21912556.7444
  21836275.976   -16082406.137 8 -12509401.50047  21836275.411    21836282.1754
  20692096.946   -23979946.183 9 -18658185.46448  20692096.760    20692101.8724
 01  5 15  2 10 30.0000000  0  6 31 25 14 11 21 29
  24129486.079    -3071094.492 8  -2375414.96545  24129485.435    24129494.5724
  21506473.496   -21439924.294 9 -16690562.32347  21506473.278    21506479.4184
  21044775.203   -22956730.045 9 -17846336.81148  21044774.726    21044779.4044
  21900267.231   -18991739.519 9 -13772002.25147  21900266.791    21900272.4314
  21843984.106   -16041899.650 8 -12477838.03947  21843983.525    21843990.3544
  20699595.828   -23940539.253 9 -18627478.77348  20699595.628    20699600.7644
 01  5 15  2 11  0.0000000  0  6 31 25 14 11 21 29
  24144240.050    -2993562.314 8  -2315000.39945  24144239.390    24144248.4904
  21494397.272   -21503385.207 9 -16740012.33247  21494397.029    21494403.1574
  21055429.536   -22900741.198 9 -17802709.15247  21055429.050    21055433.7464
  21888062.775   -19055874.273 9 -13821977.36347  21888062.340    21888067.9384
  21851736.510   -16001160.600 8 -12446093.35447  21851735.938    21851742.7644
  20707145.143   -23900867.209 9 -18596565.49248  20707144.952    20707150.1354
 01  5 15  2 11 30.0000000  0  6 31 25 14 11 21 29
  24159017.493    -2915906.693 8  -2254489.66945  24159016.891    24159025.9954
  21482399.617   -21566433.025 9 -16789140.45347  21482399.394    21482405.4954
  21066132.127   -22844498.856 9 -17758883.96747  21066131.641    21066136.3324
  21875938.313   -19119588.720 9 -13871624.96847  21875937.883    21875943.4514
  21859533.032   -15960189.715 8 -12414168.02247  21859532.461    21859539.3234
  20714744.397   -23860932.822 9 -18565447.79448  20714744.211    20714749.4034
 01  5 15  2 12  0.0000000  0  6 31 25 14 11 21 29
  24173817.911    -2838129.902 8  -2193884.50845  24173817.344    24173826.5204
  21470481.124   -21629064.916 9 -16837944.47647  21470480.905    21470486.9974
  21076882.731   -22788004.128 9 -17714862.11547  21076882.228    21076886.9434
  21863894.469   -19182879.527 9 -13920942.47147  21863894.031    21863899.5734
  21867373.858   -15918985.817 8 -12382061.12447  21867373.293    21867380.1884
  20722393.431   -23820736.999 9 -18534126.38148  20722393.246    20722398.4324
 01  5 15  2 12 30.0000000  0  6 31 25 14 11 21 29
  24188640.942    -2760234.485 8  -2133186.90845  24188640.362    24188649.6094
  21458642.320   -21691277.975 9 -16886422.13947  21458642.101    21458648.2004
  21087681.057   -22731258.468 9 -17670644.73447  21087680.572    21087685.2844
  21851931.764   -19245744.056 9 -13969927.80947  21851931.303    21851936.8394
  21875259.150   -15877548.235 8 -12349772.13447  21875258.614    21875265.5134
  20730091.939   -23780281.061 9 -18502602.28148  20730091.756    20730096.9314
 01  5 15  2 13  0.0000000  0  6 31 25 14 11 21 29
  24203486.027    -2682223.623 8  -2072399.36045  24203485.435    24203494.7464
  21446883.548   -21753070.483 9 -16934572.09747  21446883.332    21446889.4134
  21098526.811   -22674263.804 9 -17626233.32147  21098526.314    21098531.0574
  21840050.507   -19308180.366 9 -14018579.47347  21840050.068    21840055.5734
  21883189.169   -15835875.886 8 -12317300.20947  21883188.644    21883195.5204
  20737839.659   -23739566.470 9 -18470876.63148  20737839.472    20737844.6474
 01  5 15  2 13 30.0000000  0  7 20 31 25 14 11 21 29
  24697776.691    -4361780.719 7  -3187589.52745  24697775.816    24697784.1444
  24218350.306    -2604111.979 8  -2011533.27245  24218349.645    24218359.0084
  21435202.950   -21814452.162 9 -16982401.93047  21435202.738    21435208.7914
  21109417.360   -22617033.528 9 -17581638.31447  21109416.855    21109421.6194
  21828248.995   -19370197.653 9 -14066904.61947  21828248.548    21828254.0654
  21891161.819   -15793979.593 8 -12284653.77447  21891161.284    21891168.1064
  20745634.055   -23698606.569 9 -18438959.83048  20745633.877    20745639.0504
 01  5 15  2 14  0.0000000  0  7 20 31 25 14 11 21 29
  24681772.726    -4445882.030 7  -3253122.96445  24681771.765    24681780.0254
  24233235.814    -2525888.840 8  -1950580.30045  24233235.100    24233244.5034
  21423603.530   -21875407.428 9 -17029899.49047  21423603.318    21423609.3584
  21120355.027   -22559555.917 9 -17536850.57947  21120354.543    21120359.2784
  21816530.204   -19431780.269 9 -14114891.06747  21816529.751    21816535.2684
  21899179.811   -15751845.070 8 -12251821.71547  21899179.254    21899186.0744
  20753477.444   -23657389.273 9 -18406842.46448  20753477.267    20753482.4414
 01  5 15  2 14 30.0000000  0  7 20 31 25 14 11 21 29
  24665763.376    -4530010.962 7  -3318677.85545  24665762.488    24665770.8074
  24248142.146    -2447555.561 8  -1889541.51245  24248141.461    24248150.9434
  21412085.980   -21935932.325 9 -17077061.70047  21412085.782    21412091.8154
  21131339.671   -22501831.277 9 -17491870.35647  21131339.178    21131343.9154
  21804894.869   -19492924.374 9 -14162535.82347  21804894.396    21804899.9134
  21907243.457   -15709470.484 8 -12218802.59447  21907242.901    21907249.7234
  20761369.797   -23615914.703 9 -18374524.62848  20761369.633    20761374.7984
 01  5 15  2 15  0.0000000  0  7 20 31 25 14 11 21 29
  24649748.687    -4614168.546 7  -3384255.12645  24649747.855    24649756.1474
  24263068.666    -2369116.751 8  -1828420.48545  24263068.097    24263077.4714
  21400650.299   -21996026.944 9 -17123888.63047  21400650.108    21400656.1224
  21142370.599   -22443863.423 9 -17446700.61547  21142370.122    21142374.8584
  21793343.012   -19553629.653 9 -14209838.62747  21793342.553    21793348.0904
  21915352.472   -15666857.492 8 -12185597.69847  21915351.898    21915358.7214
  20769310.463   -23574186.323 9 -18342009.01948  20769310.286    20769315.4334
 01  5 15  2 15 30.0000000  0  7 20 31 25 14 11 21 29
  24633728.251    -4698355.633 7  -3449855.34445  24633727.415    24633735.7204
  24278014.461    -2290576.839 8  -1767220.69645  24278013.960    24278023.3574
  21389296.658   -22055690.483 9 -17170379.65347  21389296.468    21389302.4764
  21153447.259   -22385655.244 9 -17401343.60947  21153446.774    21153451.5334
  21781874.883   -19613894.920 9 -14256798.57147  21781874.432    21781879.9654
  21923506.749   -15624006.562 8 -12152207.39447  21923506.192    21923513.0164
  20777298.902   -23532206.686 9 -18309297.62748  20777298.705    20777303.8924
 01  5 15  2 16  0.0000000  0  7 20 31 25 14 11 21 29
  24617702.401    -4782572.027 7  -3515478.45945  24617701.769    24617709.7914
  24292978.884    -2211939.112 8  -1705944.67245  24292978.281    24292987.6694
  21378025.423   -22114921.032 9 -17216533.28247  21378025.221    21378031.2354
  21164569.189   -22327209.153 9 -17355801.21847  21164568.704    21164573.4494
  21770490.793   -19673718.584 9 -14303414.40647  21770490.343    21770495.8534
  21931706.332   -15580917.539 8 -12118631.56447  21931705.786    21931712.6154
  20785334.752   -23489978.014 9 -18276392.18048  20785334.582    20785339.7604
 01  5 15  2 16 30.0000000  0  7 20 31 25 14 11 21 29
  24601670.889    -4866817.391 7  -3581124.11245  24601670.258    24601678.1324
  24307961.299    -2133206.372 8  -1644594.62745  24307960.709    24307970.1734
  21366836.902   -22173716.893 9 -17262348.19447  21366836.707    21366842.7164
  21175736.064   -22268527.001 9 -17310074.88347  21175735.573    21175740.3094
  21759191.218   -19733098.430 9 -14349684.41047  21759190.776    21759196.2574
  21939951.534   -15537589.137 8 -12084869.20647  21939950.988    21939957.7894
  20793417.722   -23447501.845 9 -18243293.88348  20793417.547    20793422.7254
 01  5 15  2 17  0.0000000  0  7 20 31 25 14 11 21 29
  24585633.751    -4951092.321 7  -3646792.82945  24585633.001    24585641.1614
  24322961.106    -2054382.707 8  -1583173.71745  24322960.544    24322969.8544
  21355731.215   -22232077.273 9 -17307823.77147  21355731.025    21355737.0254
  21186947.338   -22209611.510 9 -17264166.72747  21186946.832    21186951.5774
  21747976.332   -19792033.198 9 -14395607.59847  21747975.869    21747981.3154
  21948242.130   -15494021.980 8 -12050920.80747  21948241.568    21948248.3824
  20801547.273   -23404780.835 9 -18210004.79948  20801547.089    20801552.2704
 01  5 15  2 17 30.0000000  0  7 20 31 25 14 11 21 29
  24569591.294    -5035395.893 7  -3712483.84545  24569590.626    24569598.7004
  24337977.622    -1975470.883 7  -1521684.12345  24337976.999    24337986.3864
  21344708.962   -22289999.535 9 -17352957.95947  21344708.776    21344714.7564
  21198202.651   -22150464.385 9 -17218078.07647  21198202.150    21198206.8874
  21736846.590   -19850520.572 9 -14441182.16847  21736846.115    21736851.5854
  21956578.302   -15450215.231 8 -12016785.71247  21956577.758    21956584.5774
  20809723.199   -23361816.238 9 -18176525.90948  20809722.999    20809728.1734
 01  5 15  2 18  0.0000000  0  7 20 31 25 14 11 21 29
  24553543.433    -5119728.165 7  -3778197.24545  24553542.817    24553550.3674
  24353010.250    -1896474.168 8  -1460128.38045  24353009.722    24353019.0934
  21333770.325   -22347482.356 9 -17397749.72547  21333770.118    21333776.1044
  21209501.625   -22091087.685 9 -17171810.53647  21209501.118    21209505.8844
  21725802.229   -19908558.940 9 -14486406.86147  21725801.760    21725807.2454
  21964960.161   -15406168.394 8 -11982463.53447  21964959.605    21964966.4514
  20817945.097   -23318609.823 9 -18142858.59148  20817944.907    20817950.0764
 01  5 15  2 18 30.0000000  0  7 20 31 25 14 11 21 29
  24537490.228    -5204088.554 7  -3843932.57845  24537489.609    24537497.0224
  24368058.612    -1817395.329 7  -1398508.66745  24368057.985    24368067.4864
  21322915.725   -22404523.565 9 -17442197.38147  21322915.513    21322921.4964
  21220843.939   -22031483.327 9 -17125365.60047  21220843.436    21220848.1954
  21714843.803   -19966145.905 9 -14531279.80747  21714843.327    21714848.8304
  21973387.737   -15361881.161 8 -11947954.04547  21973387.190    21973394.0384
  20826212.674   -23275163.432 9 -18109004.27348  20826212.493    20826217.6654
 01  5 15  2 19  0.0000000  0  7 20 31 25 14 11 21 29
  24521431.685    -5288476.161 7  -3909689.05545  24521431.027    24521438.5154
  24383122.055    -1738237.059 8  -1336827.04745  24383121.426    24383130.9164
  21312145.539   -22461121.078 9 -17486299.30247  21312145.319    21312151.2744
  21232229.379   -21971652.620 9 -17078744.29147  21232228.874    21232233.6084
  21703971.703   -20023279.085 9 -14575799.15847  21703971.213    21703976.6984
  21981861.156   -15317353.055 8 -11913256.85247  21981860.604    21981867.4474
  20834525.725   -23231478.247 9 -18074963.88548  20834525.518    20834530.7004
 01  5 15  2 19 30.0000000  0  7 20 31 25 14 11 21 29
  24505368.004    -5372891.458 7  -3975467.18845  24505367.287    24505374.6774
  24398199.969    -1659003.050 7  -1275086.42545  24398199.288    24398208.8454
  21301459.947   -22517274.021 9 -17530054.80447  21301459.726    21301465.6454
  21243657.303   -21911598.468 9 -17031948.86947  21243656.793    21243661.5294
  21693186.216   -20079957.275 9 -14619963.96547  21693185.740    21693191.1884
  21990380.454   -15272584.010 8 -11878371.92447  21990379.897    21990386.7234
  20842883.698   -23187556.734 9 -18040739.34548  20842883.502    20842888.6994
 01  5 15  2 20  0.0000000  0  7 20 31 25 14 11 21 29
  24489299.239    -5457332.968 7  -4041265.67745  24489298.542    24489306.0994
  24413291.804    -1579695.414 8  -1213288.42445  24413291.260    24413300.7414
  21290859.502   -22572979.528 9 -17573461.65347  21290859.295    21290865.1914
  21255127.587   -21851321.666 9 -16984979.95347  21255127.082    21255131.8394
  21682487.806   -20136177.629 9 -14663772.01947  21682487.346    21682492.7864
  21998945.918   -15227572.577 8 -11843298.11847  21998945.347    21998952.1784
  20851286.514   -23143399.521 9 -18006331.14048  20851286.325    20851291.5384
 01  5 15  2 20 30.0000000  0  7 20 31 25 14 11 21 29
  24473225.573    -5541800.550 7  -4107084.52045  24473224.770    24473232.5414
  24428397.065    -1500317.608 8  -1151435.78245  24428396.482    24428405.9724
  21280344.464   -22628236.332 9 -17616518.86347  21280344.264    21280350.1404
  21266639.796   -21790824.723 9 -16937839.49947  21266639.302    21266644.0624
  21671876.858   -20191938.497 9 -14707222.02547  21671876.372    21671881.8284
  22007557.354   -15182319.098 8 -11808035.69247  22007556.785    22007563.6504
  20859733.850   -23099008.657 9 -17971740.87248  20859733.647    20859738.8504
 01  5 15  2 21  0.0000000  0  7 20 31 25 14 11 21 29
  24457147.081    -5626292.783 7  -4172922.55745  24457146.360    24457154.1524
  24443515.239    -1420871.458 8  -1089529.81945  24443514.617    24443524.1634
  21269915.361   -22683041.536 9 -17659224.17947  21269915.144    21269921.0024
  21278193.714   -21730108.556 9 -16890528.22047  21278193.203    21278197.9754
  21661353.935   -20247236.688 9 -14750311.50547  21661353.437    21661358.8924
  22016215.204   -15136821.660 8 -11772583.18547  22016214.682    22016221.5554
  20868225.503   -23054384.921 9 -17936969.14348  20868225.298    20868230.4884
 01  5 15  2 21 30.0000000  0  7 20 31 25 14 11 21 29
  24441063.747    -5710810.554 7  -4238780.47845  24441063.044    24441070.7754
  24458645.554    -1341361.506 7  -1027574.18045  24458645.011    24458654.7104
  21259572.286   -22737394.733 9 -17701577.28147  21259572.055    21259577.8994
  21289788.807   -21669176.062 9 -16843048.37647  21289788.286    21289793.0584
  21650919.149   -20302071.866 9 -14793040.19447  21650918.661    21650924.1184
  22024919.325   -15091081.191 8 -11736941.29647  22024918.826    22024925.6814
  20876760.907   -23009531.021 9 -17902018.06648  20876760.699    20876765.8834
 01  5 15  2 22  0.0000000  0  7 20 31 25 14 11 21 29
  24424975.835    -5795352.998 7  -4304657.62345  24424975.031    24424982.9594
  24473787.494    -1261790.217 7   -965570.76745  24473786.949    24473796.7754
  21249315.618   -22791293.777 9 -17743576.49947  21249315.395    21249321.1944
  21301424.769   -21608028.813 9 -16795401.19047  21301424.241    21301429.0114
  21640572.972   -20356441.282 9 -14835405.94847  21640572.493    21640577.9334
  22033669.920   -15045096.820 8 -11701109.36147  22033669.368    22033676.2224
  20885339.858   -22964448.289 9 -17866888.67948  20885339.650    20885344.8464
 01  5 15  2 22 30.0000000  0  7 20 31 25 14 11 21 29
  24408883.274    -5879918.741 7  -4370552.94445  24408882.562    24408890.3164
  24488940.774    -1182159.943 8   -903521.37145  24488940.220    24488950.0804
  21239145.839   -22844736.209 9 -17785219.91947  21239145.616    21239151.4144
  21313101.356   -21546667.898 9 -16747587.51647  21313100.857    21313105.6204
  21630315.924   -20410342.490 9 -14877406.87147  21630315.434    21630320.8844
  22042467.168   -14998867.147 8 -11665086.27347  22042466.598    22042473.4874
  20893962.221   -22919137.443 9 -17831581.54348  20893962.031    20893967.2384
 01  5 15  2 23  0.0000000  0  7 20 31 25 14 11 21 29
  24392786.542    -5964507.640 7  -4436466.24745  24392785.796    24392793.6684
  24504104.582    -1102474.055 8   -841428.68145  24504104.011    24504113.9854
  21229063.168   -22897720.670 9 -17826506.47347  21229062.946    21229068.7664
  21324818.210   -21485095.495 9 -16699609.04047  21324817.706    21324822.4584
  21620148.255   -20463773.863 9 -14919041.68447  21620147.743    21620153.2014
  22051311.098   -14952392.125 8 -11628872.01347  22051310.515    22051317.4304
  20902627.561   -22873600.740 9 -17796098.40948  20902627.382    20902632.5984
 01  5 15  2 23 30.0000000  0  7 20 31 25 14 11 21 29
  24376685.239    -6049120.253 7  -4502398.10145  24376684.483    24376692.3634
  24519278.195    -1022736.593 8   -779295.77945  24519277.608    24519287.6354
  21219067.765   -22950246.696 9 -17867435.80447  21219067.545    21219073.3764
  21336574.743   -21423314.682 9 -16651468.16647  21336574.247    21336578.9994
  21610070.143   -20516734.595 9 -14960309.76547  21610069.630    21610075.0534
  22060201.596   -14905672.323 8 -11592467.00146  22060201.000    22060207.9534
  20911335.407   -22827840.755 9 -17760441.29548  20911335.204    20911340.4544
 01  5 15  2 24  0.0000000  0  7 20 31 25 14 11 21 29
  24360579.678    -6133754.969 7  -4568347.07745  24360578.912    24360586.9204
  24534461.330     -942949.140 8   -717123.92445  24534460.676    24534470.7874
  21209160.134   -23002311.405 9 -17908005.67147  21209159.924    21209165.7564
  21348370.798   -21361326.102 9 -16603165.40347  21348370.301    21348375.0834
  21600082.185   -20569221.463 9 -15001208.60247  21600081.695    21600087.1184
  22069138.996   -14858706.042 8 -11555869.93846  22069138.403    22069145.3604
  20920085.659   -22781857.898 9 -17724610.51647  20920085.456    20920090.7114
 01  5 15  2 24 30.0000000  0  7 20 31 25 14 11 21 29
  24344470.028    -6218411.553 8  -4634313.16945  24344469.254    24344477.1314
  24549653.422     -863114.916 8   -654915.65045  24549652.808    24549663.0204
  21199340.483   -23053913.673 9 -17948215.19447  21199340.262    21199346.0974
  21360205.999   -21299131.766 9 -16554702.31447  21360205.517    21360210.2934
  21590184.670   -20621232.875 9 -15041736.95947  21590184.207    21590189.6434
  22078123.257   -14811493.514 8 -11519081.00146  22078122.664    22078129.6594
  20928877.945   -22735654.231 9 -17688607.67647  20928877.749    20928882.9894
 01  5 15  2 25  0.0000000  0  7 20 31 25 14 11 21 29
  24328356.245    -6303090.138 8  -4700296.34845  24328355.470    24328363.3104
  24564853.803     -783237.561 8   -592673.75745  24564853.086    24564863.3274
  21189609.162   -23105052.001 9 -17988063.20147  21189608.959    21189614.7784
  21372079.891   -21236734.209 9 -16506080.86547  21372079.397    21372084.1544
  21580377.928   -20672767.481 9 -15081893.77447  21580377.466    21580382.8894
  22087154.409   -14764034.645 8 -11482100.09846  22087153.851    22087160.8204
  20937711.858   -22689231.739 9 -17652434.32447  20937711.664    20937716.8784
 01  5 15  2 25 30.0000000  0  7 20 31 25 14 11 21 29
  24312238.610    -6387788.635 8  -4766295.08945  24312237.898    24312245.6034
  24580062.005     -703318.551 8   -530399.41345  24580061.318    24580071.4784
  21179966.642   -23155723.750 9 -18027547.64247  21179966.394    21179972.1974
  21383992.350   -21174133.950 9 -16457301.46847  21383991.841    21383996.5914
  21570662.508   -20723822.104 9 -15121676.58047  21570662.051    21570667.4564
  22096232.828   -14716327.536 8 -11444925.76346  22096232.247    22096239.1854
  20946587.340   -22642590.779 9 -17616090.73747  20946587.139    20946592.3854
 01  5 15  2 26  0.0000000  0  7 20 31 25 14 11 21 29
  24296116.948    -6472508.307 8  -4832310.30945  24296116.199    24296123.8634
  24595277.345     -623362.662 8   -468096.33945  24595276.714    24595286.8204
  21170412.881   -23205929.052 9 -18066668.61747  21170412.628    21170418.4194
  21395942.733   -21111334.341 9 -16408366.73147  21395942.227    21395946.9714
  21561038.484   -20774396.611 9 -15161085.26647  21561038.044    21561043.4344
  22105358.255   -14668373.461 8 -11407558.99046  22105357.630    22105364.5754
  20955503.768   -22595734.540 9 -17579579.39647  20955503.597    20955508.8344
 01  5 15  2 26 30.0000000  0  7 20 31 25 14 11 21 29
  24279991.534    -6557247.304 8  -4898340.56045  24279990.762    24279998.4994
  24610499.292     -543371.584 8   -405765.84045  24610498.606    24610508.8354
  21160948.381   -23255665.016 9 -18105423.87247  21160948.131    21160953.9154
  21407930.938   -21048335.876 9 -16359277.04247  21407930.438    21407935.1824
  21551506.440   -20824487.703 9 -15200117.26847  21551505.983    21551511.4024
  22114530.999   -14620170.573 8 -11369998.33446  22114530.379    22114537.3214
  20964461.107   -22548663.499 9 -17542900.68047  20964460.916    20964466.1614
 01  5 15  2 27  0.0000000  0  7 20 31 25 14 11 21 29
  24263862.449    -6642005.747 8  -4964386.02545  24263861.688    24263869.3734
  24625727.428     -463348.616 8   -343410.48845  24625726.784    24625736.8214
  21151573.444   -23304930.436 9 -18143812.47047  21151573.211    21151579.0094
  21419956.536   -20985141.063 9 -16310034.35447  21419956.043    21419960.8024
  21542066.644   -20874094.169 9 -15238771.63947  21542066.168    21542071.6034
  22123750.972   -14571719.549 8 -11332244.32946  22123750.356    22123757.3004
  20973458.957   -22501379.676 9 -17506056.15747  20973458.747    20973464.0134
 01  5 15  2 27 30.0000000  0  7 20 31 25 14 11 21 29
  24247730.059    -6726781.866 8  -5030445.20845  24247729.246    24247736.9224
  24640961.032     -383295.905 7   -281031.99945  24640960.308    24640970.6274
  21142288.556   -23353722.634 9 -18181832.32848  21142288.328    21142294.0904
  21432019.352   -20921750.604 9 -16260639.21647  21432018.842    21432023.6234
  21532719.586   -20923213.332 9 -15277046.29947  21532719.119    21532724.5294
  22133018.455   -14523018.651 8 -11294295.61546  22133017.831    22133024.8224
  20982497.137   -22453883.650 9 -17469046.28747  20982496.930    20982502.1904
 01  5 15  2 28  0.0000000  0  7 20 31 25 14 11 21 29
  24231594.175    -6811575.780 8  -5096518.29745  24231593.416    24231601.1414
  24656199.673     -303217.057 8   -218633.10645  24656198.978    24656209.2604
  21133093.856   -23402040.997 9 -18219482.96248  21133093.634    21133099.3624
  21444118.967   -20858166.962 9 -16211093.54647  21444118.436    21444123.2274
  21523465.509   -20971843.915 9 -15314940.24947  21523465.015    21523470.4104
  22142333.513   -14474067.655 8 -11256152.02146  22142332.902    22142339.9224
  20991575.282   -22406177.663 9 -17431872.81247  20991575.075    20991580.3484
 01  5 15  2 28 30.0000000  0  7 20 31 25 14 11 21 29
  24215455.171    -6896387.017 8  -5162604.88445  24215454.340    24215461.9314
  24671442.850     -223115.060 7   -156216.19945  24671442.006    24671452.3774
  21123989.617   -23449883.933 9 -18256763.13348  21123989.396    21123995.1004
  21456254.903   -20794392.062 9 -16161398.84047  21456254.384    21456259.1684
  21514304.702   -21019984.130 9 -15352452.09347  21514304.197    21514309.6254
  22151696.268   -14424866.136 8 -11217813.21646  22151695.650    22151702.7024
  21000693.083   -22358263.329 9 -17394536.98147  21000692.863    21000698.1744
 01  5 15  2 29  0.0000000  0  7 20 31 25 14 11 21 29
  24199312.858    -6981215.250 8  -5228704.70145  24199311.995    24199319.6344
  24686689.720     -142992.889 7    -93783.58245  24686688.921    24686699.4634
  21114976.062   -23497250.391 9 -18293672.02348  21114975.836    21114981.5374
  21468426.855   -20730428.122 9 -16111556.83047  21468426.338    21468431.1444
  21505237.449   -21067632.769 9 -15389580.89647  21505236.954    21505242.3974
  22161106.598   -14375414.729 8 -11179279.68746  22161105.995    22161113.0314
  21009850.133   -22310142.701 9 -17357040.40247  21009849.914    21009855.2314
 01  5 15  2 29 30.0000000  0  7 20 31 25 14 11 21 29
  24183167.516    -7066058.999 8  -5294816.67445  24183166.762    24183174.1654
  24701940.024      -62852.534 7    -31336.79645  24701939.353    24701949.9154
  21106053.547   -23544138.200 9 -18330207.94348  21106053.323    21106059.0014
  21480634.666   -20666275.661 9 -16061567.92447  21480634.156    21480638.9854
  21496264.282   -21114786.944 9 -15426324.40547  21496263.786    21496269.2354
  22170564.770   -14325711.862 8 -11140550.22946  22170564.148    22170571.1804
  21019046.352   -22261816.231 9 -17319383.42947  21019046.137    21019051.4574
 01  5 15  2 30  0.0000000  0  7 20 31 25 14 11 21 29
  24167019.329    -7150917.480 8  -5360940.06945  24167018.541    24167026.0704
  24717193.003       17302.929 7     31121.76545  24717192.453    24717203.1194
  21097222.588   -23590545.022 9 -18366369.06348  21097222.367    21097228.0374
  21492878.074   -20601936.345 9 -16011433.40747  21492877.560    21492882.3924
  21487385.631   -21161444.639 9 -15462681.04447  21487385.103    21487390.5554
  22180070.904   -14275756.784 8 -11101624.23646  22180070.297    22180077.3394
  21028281.521   -22213285.299 9 -17281567.13547  21028281.304    21028286.6244
 01  5 15  2 30 30.0000000  0  7 20 31 25 14 11 21 29
  24150868.279    -7235790.899 8  -5427075.12645  24150867.512    24150875.0644
  24732448.438       97469.867 7     93589.27045  24732447.993    24732458.7164
  21088483.201   -23636470.788 9 -18402155.33948  21088482.967    21088488.6504
  21505156.444   -20537413.101 9 -15961155.57047  21505155.930    21505160.7514
  21478601.521   -21207605.345 9 -15498650.42047  21478601.034    21478606.4624
  22189624.869   -14225550.247 8 -11062502.30246  22189624.283    22189631.3494
  21037555.052   -22164552.594 9 -17243593.61247  21037554.834    21037560.1634
 01  5 15  2 31  0.0000000  0  7 20 31 25 14 11 21 29
  24134714.578    -7320678.626 8  -5493221.35545  24134713.866    24134721.2664
  24747705.584      177645.677 7    156063.69645  24747705.049    24747715.7974
  21079835.538   -23681914.360 9 -18437565.87748  21079835.314    21079840.9784
  21517469.558   -20472707.339 9 -15910735.51347  21517469.036    21517473.8744
  21469912.438   -21253266.840 9 -15534230.80047  21469911.959    21469917.3664
  22199226.955   -14175091.310 8 -11023183.69046  22199226.375    22199233.4184
  21046866.744   -22115619.328 9 -17205463.80647  21046866.537    21046871.8624
 01  5 15  2 31 30.0000000  0  7 20 31 25 14 11 21 29
  24118558.415    -7405579.731 7  -5559377.99545  24118557.651    24118565.0804
  24762963.888      257827.634 7    218542.89245  24762963.347    24762974.1204
  21071280.056   -23726873.688 9 -18472599.08548  21071279.827    21071285.4864
  21529817.085   -20407820.649 9 -15860174.47947  21529816.548    21529821.3964
  21461318.630   -21298427.508 9 -15569420.93047  21461318.149    21461323.5444
  22208877.048   -14124379.880 8 -10983668.34046  22208876.465    22208883.5354
  21056216.391   -22066486.732 9 -17167178.68547  21056216.185    21056221.5124
 01  5 15  2 32  0.0000000  0  7 20 31 25 14 11 21 29
  24102399.674    -7490493.846 7  -5625544.80145  24102399.037    24102406.3214
  24778222.778      338012.428 7    281024.29145  24778222.273    24778232.9614
  21062816.900   -23771347.679 9 -18507254.11148  21062816.676    21062822.3484
  21542198.665   -20342755.101 9 -15809474.06947  21542198.137    21542202.9744
  21452820.450   -21343085.718 9 -15604219.53747  21452819.982    21452825.3334
  22218575.304   -14073415.543 8 -10943955.91246  22218574.721    22218581.8024
  21065603.561   -22017156.920 9 -17128739.88347  21065603.356    21065608.6534
 01  5 15  2 32 30.0000000  0  7 20 31 25 14 11 21 29
  24086238.769    -7575419.479 7  -5691720.57245  24086238.224    24086245.3454
  24793481.771      418198.284 8    343506.49145  24793481.299    24793492.2094
  21054446.499   -23815334.159 9 -18541529.25148  21054446.270    21054451.9324
  21554614.069   -20277511.714 9 -15758635.08147  21554613.532    21554618.3694
  21444418.344   -21387239.128 9 -15638624.79047  21444417.858    21444423.2094
  22228321.775   -14022197.624 8 -10904045.89046  22228321.173    22228328.2614
  21075028.177   -21967630.523 9 -17090147.89647  21075027.952    21075033.2514
 01  5 15  2 33  0.0000000  0  7 20 31 25 14 11 21 29
  24070075.684    -7660357.198 8  -5757905.71345  24070075.063    24070082.2934
  24808740.270      498380.867 7    405986.19145  24808739.817    24808750.5904
  21046168.919   -23858832.970 9 -18575424.39448  21046168.691    21046174.3494
  21567062.821   -20212093.080 9 -15707659.54147  21567062.294    21567067.1494
  21436112.392   -21430887.108 9 -15672636.20347  21436111.918    21436117.2344
  22238116.414   -13970726.451 8 -10863938.52646  22238115.823    22238122.8994
  21084489.648   -21917910.157 9 -17051404.76947  21084489.432    21084494.7144
 01  5 15  2 33 30.0000000  0  7 20 31 25 14 11 21 29
  24053910.715    -7745304.935 8  -5824098.70945  24053909.934    24053917.2194
  24823997.872      578558.498 8    468462.00345  24823997.304    24824008.1804
  21037984.697   -23901841.253 9 -18608937.30648  21037984.466    21037990.1214
  21579544.798   -20146499.854 9 -15656547.95447  21579544.282    21579549.1334
  21427903.174   -21474026.702 9 -15706251.47247  21427902.692    21427908.0274
  22247959.646   -13919000.243 8 -10823632.43846  22247959.009    22247966.1044
  21093988.022   -21867996.070 9 -17012510.68647  21093987.796    21093993.1064
 01  5 15  2 34  0.0000000  0  7 20 31 25 14 11 21 29
  24037743.666    -7830262.949 8  -5890299.70845  24037742.887    24037750.1694
  24839253.677      658727.541 8    530931.12545  24839253.192    24839264.0204
  21029893.798   -23944359.051 9 -18642068.02748  21029893.568    21029899.1994
  21592059.504   -20080734.711 9 -15605302.40747  21592058.989    21592063.8494
  21419790.801   -21516657.501 9 -15739470.27547  21419790.338    21419795.6244
  22257851.241   -13867019.830 8 -10783128.26146  22257850.621    22257857.6614
  21103522.714   -21817890.753 9 -16973467.59347  21103522.485    21103527.8154
 01  5 15  2 34 30.0000000  0  7 20 31 25 14 11 21 29
  24021574.912    -7915229.900 8  -5956507.64545  24021574.120    24021581.5074
  24854507.427      738885.863 7    593391.86845  24854506.942    24854517.8074
  21021896.653   -23986384.177 9 -18674814.84048  21021896.404    21021902.0314
  21604606.764   -20014798.552 9 -15553923.59947  21604606.262    21604611.0934
  21411775.736   -21558777.027 9 -15772290.68047  21411775.276    21411780.5414
  22267791.507   -13814783.647 8 -10742424.78546  22267790.859    22267797.9234
  21113093.696   -21767595.047 9 -16934276.14247  21113093.469    21113098.7974
 01  5 15  2 35  0.0000000  0  7 20 31 25 14 11 21 29
  24005404.483    -8000205.588 8  -6022722.39345  24005403.765    24005411.1264
  24869758.590      819030.309 8    655841.82245  24869758.064    24869769.0174
  21013993.503   -24027915.505 9 -18707176.87848  21013993.255    21013998.8614
  21617186.152   -19948693.483 9 -15502413.17547  21617185.634    21617190.4914
  21403858.195   -21600383.999 9 -15804711.69547  21403857.728    21403862.9664
  22277780.289   -13762292.342 8 -10701522.52846  22277779.664    22277786.7544
  21122700.513   -21717110.747 9 -16894937.73847  21122700.289    21122705.6284
 01  5 15  2 35 30.0000000  0  7 20 31 25 14 11 21 29
  23989232.695    -8085188.953 8  -6088943.15545  23989231.981    23989239.2034
  24885006.615      899158.327 7    718278.93945  24885005.999    24885017.3524
  21006184.483   -24068952.117 9 -18739153.43348  21006184.221    21006189.8154
  21629797.424   -19882420.951 9 -15450772.26447  21629796.893    21629801.8014
  21396038.537   -21641476.762 9 -15836732.02547  21396038.061    21396043.2974
  22287817.770   -13709545.183 8 -10660420.89846  22287817.115    22287824.2574
  21132343.012   -21666439.104 9 -16855453.36347  21132342.793    21132348.1374
 01  5 15  2 36  0.0000000  0  7 20 31 25 14 11 21 29
  23973059.564    -8170179.355 8  -6155169.37245  23973058.777    23973066.0614
  24900250.975      979266.995 7    780701.01545  24900250.515    24900261.5474
  20998469.771   -24109492.997 9 -18770743.69248  20998469.522    20998475.1034
  21642440.184   -19815982.853 9 -15399002.34047  21642439.661    21642444.5664
  21388316.974   -21682053.818 9 -15868350.50047  21388316.497    21388321.7474
  22297903.991   -13656541.719 8 -10619119.53446  22297903.353    22297910.5314
  21142020.782   -21615582.087 9 -16815824.52847  21142020.564    21142025.9114
 01  5 15  2 36 30.0000000  0  7 20 31 25 14 11 21 29
  23956885.254    -8255175.383 8  -6221399.97645  23956884.484    23956891.7274
  24915491.382     1059354.329 7    843106.43245  24915490.884    24915502.0674
  20990849.902   -24149535.501 9 -18801945.61348  20990849.637    20990855.2054
  21655114.317   -19749379.922 9 -15347103.97847  21655113.787    21655118.7214
  21380693.959   -21722112.894 9 -15899565.35947  21380693.484    21380698.7624
  22308039.132   -13603281.316 8 -10577617.96646  22308038.496    22308045.7094
  21151733.786   -21564540.056 9 -16776051.53547  21151733.579    21151738.9134
 01  5 15  2 37  0.0000000  0  6 20 25 14 11 21 29
  23940710.251    -8340175.497 8  -6287633.77345  23940709.502    23940716.5954
  20983325.151   -24189078.177 9 -18832758.05848  20983324.907    20983330.4704
  21667819.610   -19682613.220 9 -15295078.00347  21667819.071    21667823.9864
  21373170.003   -21761651.488 9 -15930374.64847  21373169.523    21373174.8284
  22318223.480   -13549762.447 8 -10535915.00346  22318222.866    22318230.0654
  21161481.796   -21513313.836 9 -16736135.01847  21161481.581    21161486.9334
 01  5 15  2 37 30.0000000  0  6 20 25 14 11 21 29
  23924536.850    -8425167.455 8  -6353861.22845  23924536.099    23924542.9484
  20975897.964   -24228108.130 9 -18863170.97048  20975897.708    20975903.2754
  21680557.901   -19615673.016 9 -15242916.83047  21680557.372    21680562.3024
  21365747.566   -21800656.735 9 -15960768.34647  21365747.081    21365752.3674
  22328459.207   -13495973.474 8 -10494001.56246  22328458.589    22328465.8024
  21171266.816   -21461893.252 9 -16696067.04547  21171266.597    21171271.9674
 01  5 15  2 38  0.0000000  0  6 20 25 14 11 21 29
  23908361.397    -8510170.150 8  -6420097.04345  23908360.596    23908367.5044
  20968564.865   -24266643.663 9 -18893198.62548  20968564.625    20968570.1834
  21693325.196   -19548580.367 9 -15190636.86947  21693324.694    21693329.6184
  21358423.134   -21839146.793 9 -15990760.59447  21358422.662    21358427.9454
  22338742.595   -13441933.943 8 -10451892.89546  22338741.981    22338749.1884
  21181084.767   -21410299.665 9 -16655864.27047  21181084.560    21181089.8924
 01  5 15  2 38 30.0000000  0  6 20 25 14 11 21 29
  23892184.548    -8595179.785 8  -6486338.25445  23892183.816    23892190.7614
  20961326.587   -24304680.892 9 -18922837.99248  20961326.346    20961331.9004
  21706121.797   -19481333.896 9 -15138237.04247  21706121.305    21706126.2334
  21351197.625   -21877117.082 9 -16020347.82047  21351197.124    21351202.4184
  22349074.382   -13387640.008 8 -10409585.97446  22349073.768    22349081.0364
  21190935.985   -21358531.334 9 -16615525.32347  21190935.760    21190941.0864
 01  5 15  2 39  0.0000000  0  6 20 25 14 11 21 29
  23876006.878    -8680193.672 8  -6552582.78645  23876006.155    23876013.0574
  20954183.734   -24342216.591 9 -18952086.56048  20954183.491    20954189.0594
  21718947.654   -19413933.453 9 -15085717.24647  21718947.166    21718952.0914
  21344071.649   -21914564.284 9 -16049527.45247  21344071.147    21344076.4194
  22359455.099   -13333089.444 8 -10367079.09946  22359454.492    22359461.7084
  21200820.518   -21306587.875 9 -16575049.91847  21200820.297    21200825.6114
 01  5 15  2 39 30.0000000  0  6 20 25 14 11 21 29
  23859828.521    -8765211.444 8  -6618830.35645  23859827.844    23859834.5984
  20947136.515   -24379249.810 9 -18980943.58248  20947136.279    20947141.8404
  21731802.523   -19346380.819 9 -15033078.86047  21731802.036    21731806.9544
  21337045.477   -21951487.047 9 -16078298.42747  21337044.961    21337050.2274
  22369884.658   -13278282.139 8 -10324372.15046  22369884.022    22369891.2244
  21210738.036   -21254470.815 9 -16534439.23847  21210737.822    21210743.1364
 01  5 15  2 40  0.0000000  0  6 20 25 14 11 21 29
  23843649.991    -8850230.312 8  -6685078.77545  23843649.236    23843656.0044
  20940185.345   -24415778.293 9 -19009407.30248  20940185.102    20940190.6694
  21744686.350   -19278676.104 9 -14980321.96547  21744685.857    21744690.7724
  21330119.646   -21987882.398 9 -16106658.43547  21330119.146    21330124.4064
  22380363.356   -13223216.487 8 -10281463.90346  22380362.727    22380369.9614
  21220688.636   -21202180.112 9 -16493693.25147  21220688.433    21220693.7364
 01  5 15  2 40 30.0000000  0  6 20 25 14 11 21 29
  23827471.336    -8935249.580 8  -6751327.47945  23827470.556    23827477.4244
  20933330.488   -24451800.639 9 -19037476.63548  20933330.267    20933335.8084
  21757598.821   -19210820.781 9 -14927447.71147  21757598.318    21757603.2444
  21323294.395   -22023749.149 9 -16134606.54047  21323293.891    21323299.1874
  22390891.259   -13167892.136 8 -10238354.06746  22390890.619    22390897.9014
  21230671.995   -21149717.213 9 -16452813.09247  21230671.772    21230677.0994
 01  5 15  2 41  0.0000000  0  6 20 25 14 11 21 29
  23811292.705    -9020268.465 8  -6817575.90045  23811291.895    23811298.7414
  20926572.201   -24487315.749 9 -19065150.71348  20926571.966    20926577.4914
  21770539.635   -19142816.391 9 -14874457.30247  21770539.129    21770544.0814
  21316570.085   -22059085.597 9 -16162141.43047  21316569.576    21316574.8944
  22401468.448   -13112308.826 8 -10195042.44546  22401467.797    22401475.1114
  21240687.871   -21097083.432 9 -16411799.77347  21240687.648    21240692.9944
 01  5 15  2 41 30.0000000  0  6 20 25 14 11 21 29
  23795114.398    -9105285.636 8  -6883822.97445  23795113.616    23795120.4234
  20919910.672   -24522322.218 9 -19092428.44948  20919910.427    20919915.9344
  21783508.650   -19074663.845 9 -14821351.44847  21783508.121    21783513.0794
  21309947.017   -22093889.931 9 -16189261.68247  21309946.521    21309951.8234
  22412095.100   -13056465.731 8 -10151528.40046  22412094.470    22412101.7814
  21250736.098   -21044279.737 9 -16370654.05847  21250735.872    21250741.2484
 01  5 15  2 42  0.0000000  0  6 20 25 14 11 21 29
  23778936.515    -9190300.389 8  -6950068.15745  23778935.756    23778942.6074
  20913346.169   -24556818.859 9 -19119308.91848  20913345.932    20913351.4104
  21796505.499   -19006365.003 9 -14768131.59447  21796504.974    21796509.9404
  21303425.458   -22128160.884 9 -16215966.31247  21303424.956    21303430.2794
  22422771.143   -13000362.919 8 -10107811.97446  22422770.498    22422777.8474
  21260816.380   -20991307.642 9 -16329377.11847  21260816.143    21260821.5304
 01  5 15  2 42 30.0000000  0  6 20 25 14 11 21 29
  23762759.248    -9275311.663 8  -7016310.61545  23762758.465    23762765.4714
  20906878.856   -24590804.665 9 -19145791.33448  20906878.619    20906884.0724
  21809529.903   -18937921.481 9 -14714799.00447  21809529.387    21809534.3104
  21297005.709   -22161896.960 9 -16242254.15447  21297005.200    21297010.5214
  22433496.732   -12943999.740 8 -10063892.66146  22433496.064    22433503.4584
  21270928.497   -20938168.238 9 -16287969.80447  21270928.253    21270933.6344
 01  5 15  2 43  0.0000000  0  6 20 25 14 11 21 29
  23746582.766    -9360318.693 8  -7082549.76445  23746581.984    23746589.1474
  20900508.807   -24624279.137 9 -19171875.30848  20900508.569    20900514.0344
  21822581.567   -18869334.768 9 -14661354.83647  21822581.031    21822585.9704
  21290687.940   -22195096.917 9 -16268124.24747  21290687.424    21290692.7634
  22444272.016   -12887375.675 8 -10019770.06646  22444271.345    22444278.7124
  21281072.122   -20884863.201 9 -16246433.43247  21281071.881    21281077.2574
 01  5 15  2 43 30.0000000  0  6 20 25 14 11 21 29
  23730407.289    -9445320.791 8  -7148785.08145  23730406.511    23730413.7364
  20894236.316   -24657241.167 9 -19197559.97648  20894236.081    20894241.5364
  21835660.133   -18800606.497 9 -14607800.36447  21835659.607    21835664.5254
  21284472.397   -22227759.861 9 -16293575.88647  21284471.897    21284477.2194
  22455096.782   -12830491.074 8  -9975444.44646  22455096.150    22455103.5034
  21291246.965   -20831394.087 9 -16204769.20547  21291246.726    21291252.0944
 01  5 15  2 44  0.0000000  0  7 20 01 25 14 11 21 29
  23714231.098    -9530327.204 8  -7215023.74945  23714230.350    23714237.4544
  24644497.959    -3371823.108 8  -2599256.85645  24644497.309    24644508.7164
  20888059.573   -24689700.060 9 -19222852.58948  20888059.327    20888064.7854
  21848763.383   -18731748.505 9 -14554144.80547  21848762.866    21848767.7894
  21278357.417   -22259894.501 9 -16318615.85647  21278356.890    21278362.2304
  22465969.280   -12773355.605 8  -9930923.33446  22465968.663    22465976.0524
  21301450.820   -20777772.492 9 -16162986.16147  21301450.593    21301455.9434
 01  5 15  2 44 30.0000000  0  7 20 01 25 14 11 21 29
  23698056.302    -9615326.319 8  -7281256.73445  23698055.518    23698062.5684
  24628812.537    -3454249.879 7  -2663485.28645  24628811.909    24628823.3024
  20881980.819   -24721644.030 9 -19247743.96648  20881980.576    20881986.0224
  21861893.077   -18662751.410 9 -14500380.86447  21861892.557    21861897.5124
  21272345.255   -22291488.489 9 -16343234.54447  21272344.742    21272350.0644
  22476891.687   -12715958.170 8  -9886198.10446  22476891.062    22476898.4484
  21311685.576   -20723988.692 9 -16121076.72247  21311685.337    21311690.6634
 01  5 15  2 45  0.0000000  0  7 20 01 25 14 11 21 29
  23681883.774    -9700313.584 8  -7347480.49245  23681882.944    23681890.0004
  24613156.758    -3536520.160 8  -2727591.75145  24613156.186    24613167.5324
  20876000.942   -24753068.439 9 -19272230.49048  20876000.706    20876006.1474
  21875049.681   -18593613.042 9 -14446506.83247  21875049.169    21875054.1344
  21266436.879   -22322537.170 9 -16367428.32147  21266436.362    21266441.6744
  22487864.642   -12658295.049 8  -9841265.85746  22487864.046    22487871.4484
  21321951.601   -20670040.501 9 -16079039.19347  21321951.360    21321956.6924
 01  5 15  2 45 30.0000000  0  7 20 01 25 14 11 21 29
  23665713.163    -9785290.702 8  -7413696.33145  23665712.289    23665719.3884
  24597530.443    -3618636.152 7  -2791578.07645  24597529.775    24597540.9754
  20870119.581   -24783975.037 9 -19296313.52748  20870119.327    20870124.7884
  21888232.400   -18524337.606 9 -14392526.00047  21888231.862    21888236.7954
  21260632.001   -22353041.944 9 -16391198.27247  21260631.471    21260636.8024
  22498887.782   -12600368.383 8  -9796128.22746  22498887.155    22498894.5734
  21332248.164   -20615931.932 9 -16036876.69047  21332247.922    21332253.2424
 01  5 15  2 46  0.0000000  0  7 20 01 25 14 11 21 29
  23649544.573    -9870256.718 8  -7479903.52645  23649543.702    23649550.8274
  24581933.507    -3700597.507 8  -2855443.78045  24581932.962    24581944.1074
  20864336.958   -24814362.830 9 -19319992.29948  20864336.710    20864342.1584
  21901440.892   -18454926.726 9 -14338439.62547  21901440.348    21901445.2624
  21254930.873   -22383001.598 9 -16414543.46347  21254930.348    21254935.6624
  22509960.985   -12542178.314 8  -9750785.36746  22509960.359    22509967.7914
  21342574.923   -20561664.477 9 -15994590.38847  21342574.683    21342580.0204
 01  5 15  2 46 30.0000000  0  7 20 01 25 14 11 21 29
  23633377.967    -9955212.166 8  -7546102.50245  23633377.174    23633384.2374
  24566366.036    -3782404.880 7  -2919189.59345  24566365.539    24566376.4214
  20858652.910   -24844232.634 9 -19343267.44248  20858652.645    20858658.0804
  21914674.637   -18385383.220 9 -14284249.90847  21914674.067    21914679.0144
  21249333.411   -22412416.386 9 -16437464.07747  21249332.893    21249338.2284
  22521084.144   -12483725.777 8  -9705237.98046  22521083.528    22521091.0024
  21352931.443   -20507240.744 9 -15952182.30547  21352931.193    21352936.5404
 01  5 15  2 47  0.0000000  0  7 20 01 25 14 11 21 29
  23617213.580   -10040155.773 8  -7612292.25645  23617212.844    23617219.8814
  24550827.727    -3864057.743 8  -2982814.98445  24550827.156    24550837.9754
  20853067.583   -24873583.545 9 -19366138.24948  20853067.332    20853072.7264
  21927933.313   -18315708.295 9 -14229957.78447  21927932.758    21927937.6914
  21243839.938   -22441284.653 9 -16459958.83247  21243839.426    21243844.7494
  22532257.391   -12425010.144 8  -9659485.57146  22532256.773    22532264.2514
  21363317.516   -20452661.749 9 -15909653.23447  21363317.253    21363322.5874
 01  5 15  2 47 30.0000000  0  7 20 01 25 14 11 21 29
  23601051.555   -10125087.523 8  -7678472.77445  23601050.822    23601057.7904
  24535319.072    -3945556.435 7  -3046320.22945  24535318.553    24535329.1744
  20847581.106   -24902415.198 9 -19388604.44448  20847580.840    20847586.2284
  21941216.606   -18245904.145 9 -14175564.96747  21941216.072    21941221.0304
  21238450.520   -22469606.280 9 -16482027.63647  21238450.007    21238455.3084
  22543480.517   -12366032.036 8  -9613528.65946  22543479.894    22543487.4674
  21373732.707   -20397929.604 9 -15867004.82947  21373732.443    21373737.7674
 01  5 15  2 48  0.0000000  0  7 20 01 25 14 11 21 29
  23584892.114   -10210005.905 8  -7744642.88045  23584891.369    23584898.1434
  24519839.542    -4026900.143 8  -3109704.71445  24519838.979    24519849.6864
  20842193.598   -24930726.552 9 -19410665.21048  20842193.330    20842198.7264
  21954524.306   -18175971.997 9 -14121072.40947  21954523.749    21954528.7354
  21233165.424   -22497379.663 9 -16503669.24047  21233164.906    21233170.2114
  22554753.720   -12306791.057 8  -9567366.90946  22554753.099    22554760.6644
  21384176.787   -20343045.459 9 -15824237.98647  21384176.543    21384181.8674
 01  5 15  2 48 30.0000000  0  7 20 01 25 14 11 21 29
  23568735.392   -10294910.322 8  -7810802.11045  23568734.635    23568741.3404
  24504389.706    -4108088.845 7  -3172968.47145  24504389.275    24504399.7074
  20836905.091   -24958517.567 9 -19432320.51748  20836904.821    20836910.2414
  21967855.978   -18105913.585 9 -14066481.46447  21967855.430    21967860.4314
  21227984.855   -22524603.876 9 -16524882.91647  21227984.352    21227989.6424
  22566076.989   -12247287.323 8  -9521000.40946  22566076.351    22566083.8974
  21394649.534   -20288010.769 9 -15781353.83347  21394649.292    21394654.6324
 01  5 15  2 49  0.0000000  0  7 20 01 25 14 11 21 29
  23552581.460   -10379799.982 8  -7876949.84345  23552580.627    23552587.2744
  24488969.237    -4189122.453 7  -3236111.28245  24488968.910    24488979.4444
  20831715.803   -24985787.281 9 -19453569.62148  20831715.543    20831720.9684
  21981211.382   -18035730.488 9 -14011793.35947  21981210.834    21981215.8544
  21222908.886   -22551278.192 9 -16545668.10347  21222908.386    21222913.6744
  22577450.230   -12187520.447 8  -9474428.87146  22577449.587    22577457.2034
  21405150.683   -20232827.038 9 -15738353.54647  21405150.443    21405155.7804
 01  5 15  2 49 30.0000000  0  7 20 01 25 14 11 21 29
  23536430.533   -10464673.716 8  -7943085.14845  23536429.639    23536436.2414
  24473578.592    -4270000.139 8  -3299132.72645  24473578.195    24473588.5444
  20826625.902   -25012534.654 9 -19474411.70248  20826625.637    20826631.0534
  21994590.279   -17965423.904 9 -13957009.02747  21994589.752    21994594.7684
  21217937.827   -22577401.251 9 -16566023.73747  21217937.308    21217942.6014
  22588873.587   -12127490.393 8  -9427652.23446  22588872.998    22588880.5874
  21415679.954   -20177495.451 9 -15695238.04047  21415679.723    21415685.0184
 01  5 15  2 50  0.0000000  0  7 20 01 25 14 11 21 29
  23520282.696   -10549530.847 8  -8009207.54345  23520281.808    23520288.4104
  24458217.646    -4350721.912 7  -3362032.57845  24458217.090    24458227.5934
  20821635.460   -25038759.372 9 -19494846.52748  20821635.212    20821640.6204
  22007992.298   -17894995.742 9 -13902129.96947  22007991.774    22007996.8074
  21213071.804   -22602972.444 9 -16585949.35247  21213071.286    21213076.5984
  22600346.960   -12067197.638 8  -9380670.93146  22600346.385    22600353.9234
  21426237.085   -20122017.429 9 -15652008.43647  21426236.835    21426242.1294
 01  5 15  2 50 30.0000000  0  7 20 01 25 14 11 21 29
  23504138.300   -10634369.712 8  -8075315.70846  23504137.445    23504144.0114
  24442886.549    -4431286.683 7  -3424810.14145  24442885.992    24442896.3464
  20816744.757   -25064460.214 9 -19514873.13448  20816744.498    20816749.8984
  22021417.346   -17824446.749 9 -13847156.75347  22021416.830    22021421.8444
  21208311.093   -22627990.040 9 -16605443.58747  21208310.562    21208315.8674
  22611870.585   -12006640.957 8  -9333483.95046  22611869.998    22611877.5454
  21436821.955   -20066393.711 9 -15608665.29847  21436821.707    21436827.0004
 01  5 15  2 51  0.0000000  0  7 20 01 25 14 11 21 29
  23487997.454   -10719190.114 8  -8141409.48745  23487996.608    23488003.1274
  24427585.340    -4511694.604 7  -3487465.47945  24427584.716    24427594.9234
  20811953.710   -25089637.177 9 -19534491.52148  20811953.454    20811958.8214
  22034865.017   -17753778.965 9 -13792090.97547  22034864.481    22034869.4704
  21203655.849   -22652453.547 9 -16624506.06447  21203655.315    21203660.6184
  22623444.342   -11945820.707 8  -9286091.59846  22623443.735    22623451.2374
  21447434.177   -20010626.185 9 -15565210.10247  21447433.911    21447439.2274
 01  5 15  2 51 30.0000000  0  7 20 01 25 14 11 21 29
  23471860.520   -10803990.268 8  -8207487.48746  23471859.680    23471866.1154
  24412313.990    -4591944.857 7  -3549997.96245  24412313.427    24412323.7794
  20807262.553   -25114289.302 9 -19553700.94448  20807262.302    20807267.6354
  22048335.119   -17682993.259 9 -13736933.29747  22048334.565    22048339.5704
  21199106.338   -22676361.477 9 -16643135.61647  21199105.804    21199111.0934
  22635068.264   -11884736.853 8  -9238493.83346  22635067.599    22635075.1314
  21458073.559   -19954715.735 9 -15521643.53947  21458073.305    21458078.6684
 01  5 15  2 52  0.0000000  0  7 20 01 25 14 11 21 29
  23455727.580   -10888769.113 8  -8273548.90146  23455726.758    23455733.1624
  24397072.833    -4672036.974 7  -3612407.24245  24397072.289    24397082.5204
  20802671.405   -25138415.944 9 -19572500.90748  20802671.141    20802676.4474
  22061827.428   -17612090.812 9 -13681684.66347  22061826.885    22061831.8994
  21194662.744   -22699712.823 9 -16661331.47147  21194662.201    21194667.4904
  22646742.499   -11823388.345 8  -9190689.83746  22646741.807    22646749.4154
  21468739.964   -19898663.304 9 -15477966.33647  21468739.721    21468745.1064
 01  5 15  2 52 30.0000000  0  7 20 01 25 14 11 21 29
  23439598.681   -10973526.801 8  -8339593.81446  23439597.844    23439604.2304
  24381861.548    -4751971.703 7  -3674693.87345  24381861.059    24381871.2594
  20798180.099   -25162017.802 9 -19590891.94148  20798179.840    20798185.1324
  22075341.417   -17541074.389 9 -13626347.20947  22075340.879    22075345.9004
  21190324.962   -22722507.843 9 -16679093.81847  21190324.444    21190329.7674
  22658466.879   -11761776.545 8  -9142680.69346  22658466.180    22658473.7564
  21479432.933   -19842471.455 9 -15434180.49447  21479432.688    21479438.0604
 01  5 15  2 53  0.0000000  0  7 20 01 25 14 11 21 29
  23423474.139   -11058261.599 8  -8405620.89546  23423473.287    23423479.6654
  24366680.428    -4831747.912 8  -3736856.98745  24366679.879    24366690.1814
  20793789.017   -25185093.013 9 -19608872.60848  20793788.750    20793794.0464
  22088877.019   -17469944.448 9 -13570921.30447  22088876.469    22088881.5124
  21186093.389   -22744744.784 9 -16696421.30447  21186092.873    21186098.1984
  22670241.555   -11699900.491 8  -9094465.62946  22670240.848    22670248.3934
  21490152.338   -19786140.584 9 -15390286.33347  21490152.107    21490157.4804
 01  5 15  2 53 30.0000000  0  7 20 01 25 14 11 21 29
  23407354.088   -11142972.350 8  -8471629.24546  23407353.316    23407359.6764
  24351529.664    -4911365.323 8  -3798896.36545  24351529.128    24351539.3324
  20789498.211   -25207641.179 9 -19626442.58648  20789497.950    20789503.2484
  22102433.892   -17398702.570 9 -13515408.17947  22102433.364    22102438.3854
  21181968.172   -22766422.923 9 -16713313.35447  21181967.649    21181972.9704
  22682066.538   -11637760.249 8  -9046044.71146  22682065.862    22682073.3344
  21500897.912   -19729672.188 9 -15346285.00547  21500897.668    21500903.0614
 01  5 15  2 54  0.0000000  0  7 20 01 25 14 11 21 29
  23391238.804   -11227658.312 8  -8537618.29646  23391238.143    23391244.3974
  24336409.025    -4990823.843 8  -3860811.93545  24336408.515    24336418.6564
  20785307.762   -25229662.071 9 -19643601.69848  20785307.511    20785312.7984
  22116011.834   -17327350.233 9 -13459808.97447  22116011.304    22116016.3224
  21177949.498   -22787541.247 9 -16729769.18447  21177949.001    21177954.3004
  22693941.742   -11575355.963 8  -8997418.04546  22693941.012    22693948.5334
  21511669.422   -19673067.557 9 -15302177.51347  21511669.201    21511674.5854
 01  5 15  2 54 30.0000000  0  7 20 01 25 14 11 21 29
  23375128.542   -11312318.244 8  -8603587.03346  23375127.787    23375134.1554
  24321318.887    -5070122.855 8  -3922603.22345  24321318.332    24321328.4804
  20781217.790   -25251154.946 9 -19660349.37148  20781217.533    20781222.7954
  22129610.461   -17255888.857 9 -13404124.80547  22129609.910    22129614.9404
  21174037.460   -22808099.209 9 -16745788.36747  21174036.949    21174042.2504
  22705867.135   -11512687.503 8  -8948585.52346  22705866.436    22705874.0364
  21522466.668   -19616327.747 9 -15257964.68947  21522466.436    21522471.8274
 01  5 15  2 55  0.0000000  0  7 20 01 25 14 11 21 29
  23359023.448   -11396951.086 8  -8669534.65346  23359022.635    23359029.0384
  24306259.040    -5149262.236 8  -3984270.12445  24306258.448    24306268.6404
  20777228.357   -25272119.538 9 -19676685.39448  20777228.094    20777233.3534
  22143229.609   -17184319.574 9 -13348356.55247  22143229.072    22143234.1424
  21170232.215   -22828095.797 9 -16761370.11847  21170231.704    21170237.0154
  22717842.953   -11449754.582 8  -8899546.93346  22717842.265    22717849.8474
  21533289.413   -19559454.124 9 -15213647.59447  21533289.164    21533294.5534
 01  5 15  2 55 30.0000000  0  7 20 01 25 14 11 21 29
  23342923.754   -11481555.435 8  -8735460.09846  23342922.960    23342929.3954
  24291229.793    -5228241.224 8  -4045812.04945  24291229.282    24291239.2064
  20773339.568   -25292555.109 9 -19692609.19648  20773339.306    20773344.5494
  22156869.120   -17112643.443 8 -13292505.04347  22156868.589    22156873.6634
  21166534.047   -22847529.850 9 -16776513.53447  21166533.514    21166538.8484
  22729869.213   -11386556.522 8  -8850301.73746  22729868.530    22729876.0844
  21544137.407   -19502447.516 9 -15169226.88047  21544137.174    21544142.5564
 01  5 15  2 56  0.0000000  0  7 20 01 25 14 11 21 29
  23326829.534   -11566130.879 8  -8801362.98946  23326828.753    23326835.1834
  24276230.979    -5307060.222 8  -4107229.31945  24276230.405    24276240.3884
  20769551.456   -25312461.786 9 -19708120.87148  20769551.189    20769556.4214
  22170528.569   -17040862.681 9 -13236572.00747  22170528.023    22170533.1494
  21162942.891   -22866401.486 9 -16791218.70547  21162942.350    21162947.7094
  22741945.653   -11323094.424 8  -8800850.79746  22741944.970    22741952.5514
  21555010.404   -19445309.683 9 -15124703.90847  21555010.167    21555015.5284
 01  5 15  2 56 30.0000000  0  7 20 01 25 14 11 21 29
  23310741.095   -11650676.050 8  -8867242.28946  23310740.271    23310746.7674
  24261262.688    -5385718.874 8  -4168521.64345  24261262.098    24261272.0574
  20765864.022   -25331839.233 9 -19723220.15548  20765863.752    20765868.9844
  22184207.778   -16968978.065 9 -13180558.03347  22184207.243    22184212.3524
  21159458.989   -22884709.466 9 -16805484.65547  21159458.462    21159463.7994
  22754072.446   -11259367.946 8  -8751193.85446  22754071.764    22754079.3714
  21565908.148   -19388041.782 9 -15080079.58447  21565907.893    21565913.2704
 01  5 15  2 57  0.0000000  0  7 20 01 25 14 11 21 29
  23294658.558   -11735189.930 8  -8933097.21246  23294657.734    23294664.2444
  24246324.870    -5464216.878 8  -4229688.78845  24246324.289    24246334.2254
  20762277.450   -25350686.698 9 -19737906.47048  20762277.185    20762282.4184
  22197906.455   -16896991.290 9 -13124464.46847  22197905.900    22197911.0034
  21156082.482   -22902453.245 9 -16819310.97747  21156081.949    21156087.2584
  22766249.644   -11195376.661 8  -8701330.56246  22766248.934    22766256.5604
  21576830.388   -19330645.058 9 -15035354.87847  21576830.131    21576835.5484
 01  5 15  2 57 30.0000000  0  7 20 01 25 14 11 21 29
  23278582.343   -11819670.857 8  -8998926.45146  23278581.513    23278588.0434
  24231417.855    -5542553.224 8  -4290729.98445  24231417.359    24231427.1954
  20758791.853   -25369003.562 9 -19752179.33448  20758791.588    20758796.8374
  22211624.463   -16824903.146 8 -13068291.91247  22211623.912    22211628.9444
  21152813.587   -22919631.339 9 -16832696.50347  21152813.052    21152818.3684
  22778477.255   -11131120.519 8  -8651260.89046  22778476.519    22778484.1664
  21587776.978   -19273120.207 9 -14990530.33447  21587776.753    21587782.1904
 01  5 15  2 58  0.0000000  0  7 20 01 25 14 11 21 29
  23262512.559   -11904117.938 8  -9064729.32546  23262511.738    23262518.2464
  24216541.583    -5620727.864 8  -4351645.18545  24216541.058    24216550.9904
  20755407.189   -25386789.878 9 -19766038.78248  20755406.921    20755412.1734
  22225361.446   -16752714.973 9 -13012041.41347  22225360.883    22225365.8994
  21149652.354   -22936243.514 9 -16845641.06047  21149651.841    21149657.1504
  22790755.154   -11066599.372 8  -8600984.72346  22790754.469    22790762.1484
  21598747.725   -19215468.551 9 -14945606.98547  21598747.508    21598752.9784
 01  5 15  2 58 30.0000000  0  7 20 01 25 14 11 21 29
  23246449.383   -11988530.332 8  -9130505.16046  23246448.559    23246455.0664
  24201695.987    -5698741.215 8  -4412434.70245  24201695.475    24201705.3244
  20752123.603   -25404045.192 9 -19779484.46448  20752123.334    20752128.5894
  22239117.125   -16680428.600 9 -12955714.38947  22239116.550    22239121.5824
  21146598.934   -22952289.475 9 -16858144.41047  21146598.424    21146603.7254
  22803083.471   -11001813.780 8  -8550502.49346  22803082.744    22803090.5014
  21609742.299   -19157691.729 9 -14900586.10347  21609742.077    21609747.5334
 01  5 15  2 59  0.0000000  0  7 20 01 25 14 11 21 29
  23230393.136   -12072906.227 8  -9196252.55746  23230392.334    23230398.8404
  24186881.309    -5776591.984 8  -4473097.54345  24186880.831    24186890.8284
  20748941.206   -25420768.712 9 -19792515.76148  20748940.927    20748946.1974
  22252891.408   -16608044.389 8 -12899311.12947  22252890.834    22252895.8504
  21143653.474   -22967767.917 9 -16870205.53747  21143652.973    21143658.2264
  22815462.262   -10936763.045 8  -8499813.67346  22815461.534    22815469.2534
  21620760.662   -19099790.045 9 -14855467.92347  21620760.429    21620765.8754
 01  5 15  2 59 30.0000000  0  7 20 01 25 14 11 21 29
  23214343.959   -12157245.233 8  -9261971.20146  23214343.154    23214349.6044
  24172097.420    -5854280.872 7  -4533634.25345  24172096.986    24172106.9714
  20745859.831   -25436961.236 9 -19805133.29348  20745859.570    20745864.8164
  22266683.819   -16535564.809 8 -12842833.55447  22266683.246    22266688.2684
  21140815.971   -22982679.128 9 -16881824.66847  21140815.448    21140820.7194
  22827891.343   -10871447.791 8  -8448918.70946  22827890.630    22827898.3644
  21631802.338   -19041765.729 9 -14810254.18147  21631802.105    21631807.5564
 01  5 15  3  0  0.0000000  0  7 20 01 25 14 11 21 29
  23198302.039   -12241546.114 8  -9327660.12246  23198301.241    23198307.6444
  24157344.540    -5931807.161 8  -4594044.24145  24157344.010    24157354.0724
  20742879.719   -25452621.882 9 -19817336.37248  20742879.453    20742884.6744
  22280494.185   -16462990.759 8 -12786282.36247  22280493.625    22280498.6794
  21138086.612   -22997022.200 9 -16893001.09147  21138086.088    21138091.3144
  22840370.775   -10805867.940 8  -8397817.57646  22840370.110    22840377.9054
  21642867.229   -18983619.391 9 -14764945.36347  21642866.985    21642872.4324
 01  5 15  3  0 30.0000000  0  7 20 01 25 14 11 21 29
  23182267.671   -12325807.259 8  -9393318.10046  23182266.870    23182273.2084
  24142622.677    -6009170.353 8  -4654327.17945  24142622.221    24142632.1134
  20740000.901   -25467750.150 9 -19829124.61348  20740000.626    20740005.8284
  22294322.373   -16390322.988 8 -12729658.14247  22294321.842    22294326.8954
  21135465.562   -23010795.940 9 -16903733.88247  21135465.032    21135470.2484
  22852900.702   -10740022.906 8  -8346509.81446  22852900.026    22852907.8714
  21653955.163   -18925351.999 9 -14719542.21147  21653954.909    21653960.3654
 01  5 15  3  1  0.0000000  0  7 20 01 25 14 11 21 29
  23166240.944   -12410027.884 8  -9458944.51046  23166240.135    23166246.5174
  24127931.942    -6086370.503 8  -4714483.03645  24127931.451    24127941.2394
  20737223.313   -25482346.411 9 -19840498.30848  20737223.029    20737228.2424
  22308168.118   -16317563.299 8 -12672962.30647  22308167.557    22308172.6184
  21132952.822   -23024000.497 9 -16914023.15547  21132952.292    21132957.5084
  22865480.978   -10673913.425 8  -8294995.98546  22865480.287    22865488.1774
  21665065.785   -18866965.214 9 -14674046.02947  21665065.547    21665071.0044
 01  5 15  3  1 30.0000000  0  7 20 01 25 14 11 21 29
  23150222.143   -12494206.964 8  -9524538.52746  23150221.315    23150227.7194
  24113272.258    -6163407.493 8  -4774511.79345  24113271.740    24113281.4364
  20734547.037   -25496410.204 9 -19851457.08948  20734546.772    20734551.9674
  22322031.047   -16244712.984 8 -12616195.85247  22322030.500    22322035.5824
  21130548.477   -23036635.334 9 -16923868.48847  21130547.946    21130553.1694
  22878111.571   -10607539.521 8  -8243276.11546  22878110.894    22878118.7414
  21676198.939   -18808460.094 9 -14628457.63447  21676198.710    21676204.1994
 01  5 15  3  2  0.0000000  0  7 20 01 25 14 11 21 29
  23134211.505   -12578343.198 8  -9590099.18246  23134210.669    23134217.0984
  24098643.658    -6240281.156 8  -4834413.26445  24098643.127    24098652.7354
  20731972.018   -25509941.955 9 -19862001.29948  20731971.745    20731976.9424
  22335911.010   -16171773.322 8 -12559359.77347  22335910.451    22335915.5664
  21128252.646   -23048700.012 9 -16933269.55147  21128252.135    21128257.3384
  22890792.504   -10540900.998 8  -8191350.06646  22890791.824    22890799.6444
  21687354.381   -18749837.821 9 -14582777.95547  21687354.157    21687359.6514
 01  5 15  3  2 30.0000000  0  7 20 01 25 14 11 21 29
  23118209.230   -12662435.265 8  -9655625.40246  23118208.368    23118214.8994
  24084046.279    -6316991.088 8  -4894187.15745  24084045.662    24084055.0574
  20729498.316   -25522941.203 9 -19872130.56348  20729498.027    20729503.2164
  22349807.778   -16098745.336 8 -12502454.86547  22349807.230    22349812.3434
  21126065.452   -23060193.755 9 -16942225.71847  21126064.940    21126070.1264
  22903523.776   -10473997.798 8  -8139217.74546  22903523.091    22903530.9144
  21698531.958   -18691099.348 9 -14537007.72747  21698531.709    21698537.2204
 01  5 15  3  3  0.0000000  0  7 20 01 25 14 11 21 29
  23102215.546   -12746482.162 8  -9721116.42346  23102214.710    23102221.2534
  24069479.972    -6393537.127 8  -4953833.34845  24069479.396    24069488.7144
  20727125.969   -25535407.900 9 -19881844.85448  20727125.689    20727130.8574
  22363721.071   -16025630.375 8 -12445482.18947  22363720.539    22363725.6654
  21123986.931   -23071116.375 9 -16950736.85847  21123986.419    21123991.6204
  22916305.452   -10406829.768 8  -8086879.09146  22916304.792    22916312.6134
  21709731.420   -18632245.812 9 -14491147.83447  21709731.166    21709736.6664
 01  5 15  3  3 30.0000000  0  7 20 01 25 14 11 21 29
  23086230.741   -12830482.593 8  -9786571.25746  23086229.936    23086236.4174
  24054944.884    -6469919.123 8  -5013351.69645  24054944.219    24054953.5994
  20724854.987   -25547341.940 9 -19891144.09048  20724854.702    20724859.8614
  22377650.685   -15952429.897 8 -12388442.87047  22377650.125    22377655.2514
  21122017.186   -23081467.466 9 -16958802.65147  21122016.682    21122021.8894
  22929137.420   -10339397.748 8  -8034334.71346  22929136.789    22929144.5984
  21720952.582   -18573278.435 9 -14445199.23847  21720952.318    21720957.8064
 01  5 15  3  4  0.0000000  0  7 20 01 25 14 11 21 29
  23070255.083   -12914434.854 8  -9851988.55546  23070254.266    23070260.7524
  24040441.131    -6546136.406 8  -5072741.72445  24040440.410    24040449.8374
  20722685.468   -25558742.663 9 -19900027.75548  20722685.204    20722690.3554
  22391596.430   -15879144.620 8 -12331337.48047  22391595.871    22391600.9794
  21120156.389   -23091246.194 9 -16966422.44847  21120155.870    21120161.0694
  22942019.655   -10271701.284 8  -7981584.28146  22942019.041    22942026.8484
  21732195.211   -18514198.087 9 -14399162.61147  21732194.934    21732200.4234
 01  5 15  3  4 30.0000000  0  7 20 01 25 14 11 21 29
  23054288.830   -12998338.300 8  -9917367.82446  23054287.969    23054294.3464
  24025968.676    -6622189.249 8  -5132003.60545  24025968.018    24025977.3924
  20720617.392   -25569610.549 9 -19908496.22548  20720617.115    20720622.2604
  22405558.040   -15805776.078 8 -12274167.20647  22405557.475    22405562.5704
  21118404.477   -23100452.778 9 -16973596.41947  21118403.953    21118409.1444
  22954952.170   -10203740.721 8  -7928628.06746  22954951.538    22954959.3844
  21743459.071   -18455006.078 9 -14353038.97647  21743458.787    21743464.2734
 01  5 15  3  5  0.0000000  0  7 20 01 25 14 11 21 29
  23038332.047   -13082191.717 8  -9982708.09746  23038331.205    23038337.5044
  24011527.596    -6698077.650 8  -5191137.34945  24011526.906    24011536.1934
  20718650.597   -25579945.942 9 -19916549.76048  20718650.317    20718655.4794
  22419535.191   -15732325.671 8 -12216933.14647  22419534.629    22419539.7124
  21116761.498   -23109086.795 9 -16980324.23447  21116760.961    21116766.1614
  22967934.908   -10135516.491 8  -7875466.38446  22967934.280    22967942.0444
  21754743.902   -18395703.735 9 -14306829.36847  21754743.634    21754749.1374
 01  5 15  3  5 30.0000000  0  7 20 01 25 14 11 21 29
  23022385.211   -13165993.141 8 -10048007.86746  23022384.334    23022390.5634
  23997117.887    -6773800.644 8  -5250142.19345  23997117.181    23997126.4924
  20716785.343   -25589748.008 9 -19924187.72548  20716785.058    20716790.2014
  22433527.862   -15658793.848 8 -12159635.64447  22433527.302    22433532.4304
  21115227.615   -23117147.229 9 -16986605.10447  21115227.082    21115232.3084
  22980967.968   -10067027.700 8  -7822098.55346  22980967.347    22980975.0814
  21766049.741   -18336291.351 9 -14260534.02147  21766049.448    21766054.9674
 01  5 15  3  6  0.0000000  0  7 20 01 25 14 11 21 29
  23006448.210   -13249742.143 8 -10113266.77546  23006447.398    23006453.5974
  23982739.454    -6849358.788 8  -5309018.56545  23982738.835    23982748.1534
  20715021.392   -25599017.492 9 -19931410.68048  20715021.109    20715026.2704
  22447535.687   -15585182.464 8 -12102276.13546  22447535.125    22447540.2884
  21113802.811   -23124634.628 9 -16992439.45147  21113802.279    21113807.5214
  22994051.261    -9998274.884 8  -7768524.98146  22994050.580    22994058.3354
  21777376.118   -18276770.891 9 -14214154.44747  21777375.827    21777381.3504
 01  5 15  3  6 30.0000000  0  7 20 01 25 14 11 21 29
  22990521.611   -13333436.686 8 -10178483.25046  22990520.784    22990527.0294
  23968392.647    -6924751.315 8  -5367765.90145  23968392.038    23968401.4604
  20713358.859   -25607753.915 9 -19938218.26748  20713358.600    20713363.7424
  22461558.478   -15511492.233 8 -12044855.20446  22461557.897    22461563.0904
  21112487.256   -23131547.896 9 -16997826.42747  21112486.749    21112491.9634
  23007184.685    -9929258.277 8  -7714745.86546  23007184.027    23007191.8594
  21788722.998   -18217142.554 9 -14167690.82347  21788722.721    21788728.2414
 01  5 15  3  7  0.0000000  0  7 20 01 25 14 11 21 29
  22974605.488   -13417076.038 8 -10243656.71746  22974604.703    22974610.9284
  23954077.337    -6999978.552 8  -5426384.43445  23954076.747    23954086.1154
  20711797.801   -25615957.328 9 -19944610.52548  20711797.531    20711802.6614
  22475595.966   -15437724.666 8 -11987373.99146  22475595.399    22475600.6024
  21111280.921   -23137887.433 9 -17002766.33447  21111280.405    21111285.6314
  23020368.231    -9859978.596 8  -7660761.76746  23020367.551    23020375.4184
  21800090.130   -18157408.093 9 -14121144.49747  21800089.852    21800095.3514
 01  5 15  3  7 30.0000000  0  7 20 01 25 14 11 21 29
  22958700.302   -13500658.039 8 -10308785.50346  22958699.512    22958705.7304
  23939793.678    -7075039.562 8  -5484873.41645  23939793.046    23939802.4214
  20710338.186   -25623627.615 9 -19950587.35848  20710337.921    20710343.0344
  22489648.150   -15363880.002 8 -11929832.71646  22489647.591    22489652.7984
  21110183.932   -23143652.173 9 -17007258.35247  21110183.394    21110188.6434
  23033601.936    -9790434.840 8  -7606571.88646  23033601.329    23033609.2014
  21811477.415   -18097567.593 9 -14074515.54947  21811477.139    21811482.6024
 01  5 15  3  8  0.0000000  0  7 20 01 25 14 11 21 29
  22942806.090   -13584182.706 8 -10373869.61446  22942805.237    22942811.4584
  23925541.462    -7149935.368 8  -5543233.65845  23925540.862    23925550.1664
  20708979.810   -25630765.874 9 -19956149.62348  20708979.562    20708984.6824
  22503714.472   -15289960.893 8 -11872233.42546  22503713.943    22503719.1144
  21109196.096   -23148843.054 9 -17011303.20747  21109195.588    21109200.8454
  23046885.701    -9720628.064 8  -7552177.04346  23046885.104    23046893.0334
  21822884.411   -18037623.387 8 -14027805.79347  21822884.132    21822889.6264
 01  5 15  3  8 30.0000000  0  7 20 01 25 14 11 21 29
  22926922.830   -13667649.498 8 -10438908.62946  22926922.032    22926928.2194
  23911320.501    -7224666.710 8  -5601465.74945  23911319.938    23911329.1754
  20707722.480   -25637373.011 9 -19961298.03248  20707722.222    20707727.3404
  22517794.589   -15215969.510 8 -11814577.82346  22517794.036    22517799.2134
  21108317.331   -23153461.096 9 -17014901.69847  21108316.816    21108322.0844
  23060219.318    -9650559.564 8  -7497578.26946  23060218.703    23060226.6774
  21834310.727   -17977577.608 8 -13981016.89147  21834310.481    21834315.9454
 01  5 15  3  9  0.0000000  0  7 20 01 25 14 11 21 29
  22911051.562   -13751053.289 8 -10503898.53746  22911050.720    22911056.9884
  23897131.524    -7299229.717 8  -5659566.64745  23897131.011    23897140.2334
  20706566.924   -25643445.453 9 -19966029.78948  20706566.682    20706571.7844
  22531889.020   -15141902.853 8 -11756863.55946  22531888.458    22531893.6584
  21107548.379   -23157501.980 9 -17018050.45047  21107547.849    21107553.1374
  23073603.427    -9580225.664 8  -7442772.69046  23073602.827    23073610.8644
  21845757.000   -17917427.242 9 -13934146.49047  21845756.747    21845762.1744
 01  5 15  3  9 30.0000000  0  7 20 01 25 14 11 21 29
  22895192.184   -13834394.544 8 -10568839.72846  22895191.359    22895197.6734
  23882974.359    -7373625.750 8  -5717537.44545  23882973.812    23882982.9624
  20705512.767   -25648985.019 9 -19970346.32148  20705512.522    20705517.6354
  22545997.212   -15067763.664 8 -11699092.78246  22545996.661    22546001.8574
  21106888.937   -23160967.265 9 -17020750.68647  21106888.415    21106893.6974
  23087037.710    -9509628.389 8  -7387761.89046  23087037.076    23087045.1434
  21857222.640   -17857174.986 8 -13887196.69347  21857222.380    21857227.8014
 01  5 15  3 10  0.0000000  0  7 20 01 25 14 11 21 29
  22879344.815   -13917672.918 8 -10633731.91746  22879343.960    22879350.2724
  23868848.686    -7447855.866 8  -5775378.95045  23868848.220    23868857.2724
  20704559.773   -25653992.977 9 -19974248.60948  20704559.512    20704564.6374
  22560118.823   -14993554.217 8 -11641267.26146  22560118.245    22560123.4514
  21106338.841   -23163858.185 9 -17023003.36347  21106338.306    21106343.5944
  23100521.921    -9438768.725 8  -7332546.62346  23100521.222    23100529.3234
  21868707.230   -17796822.981 8 -13840169.16547  21868706.979    21868712.4374
 01  5 15  3 10 30.0000000  0  7 20 01 25 14 11 21 29
  22863509.736   -14000886.757 8 -10698573.82646  22863508.872    22863515.1564
  23854754.684    -7521919.601 8  -5833090.79645  23854754.217    23854763.2714
  20703708.008   -25658469.060 9 -19977736.45148  20703707.751    20703712.8624
  22574253.607   -14919275.339 8 -11583387.63446  22574253.060    22574258.2694
  21105898.132   -23166174.194 9 -17024808.05647  21105897.591    21105902.8794
  23114056.019    -9367646.708 8  -7277126.92446  23114055.352    23114063.4444
  21880210.665   -17736371.950 8 -13793064.47747  21880210.406    21880215.8804
 01  5 15  3 11  0.0000000  0  7 20 01 25 14 11 21 29
  22847686.913   -14084035.854 8 -10763365.28346  22847686.056    22847692.3444
  23840692.256    -7595817.613 8  -5890673.50245  23840691.723    23840700.8554
  20702957.150   -25662414.758 9 -19980811.00148  20702956.871    20702962.0054
  22588401.300   -14844928.890 8 -11525455.35646  22588400.766    22588405.9834
  21105566.643   -23167916.061 9 -17026165.36347  21105566.091    21105571.4044
  23127639.800    -9296263.424 8  -7221503.63646  23127639.188    23127647.2294
  21891732.635   -17675823.681 8 -13745884.02747  21891732.369    21891737.8644
 01  5 15  3 11 30.0000000  0  7 20 01 25 14 11 21 29
  22831877.030   -14167117.177 8 -10828103.93246  22831876.171    22831882.4514
  23826661.677    -7669548.477 8  -5948125.96245  23826661.136    23826670.2284
  20702307.453   -25665828.825 9 -19983471.30348  20702307.211    20702312.3434
  22602561.874   -14770514.792 8 -11467470.37246  22602561.332    22602566.5634
  21105344.685   -23169082.479 9 -17027074.27447  21105344.144    21105349.4824
  23141273.582    -9224617.606 8  -7165675.78846  23141272.950    23141281.0124
  21903273.146   -17615177.959 8 -13698627.63347  21903272.880    21903278.3784
 01  5 15  3 12  0.0000000  0  7 20 01 25 14 11 21 29
  22816080.285   -14250129.386 8 -10892788.72846  22816079.436    22816085.6564
  23812662.855    -7743112.062 8  -6005448.09345  23812662.337    23812671.5084
  20701758.889   -25668711.512 9 -19985717.53648  20701758.621    20701763.7594
  22616735.073   -14696034.233 8 -11409433.58746  22616734.521    22616739.7414
  21105232.227   -23169673.525 9 -17027534.83747  21105231.692    21105237.0364
  23154957.226    -9152709.942 8  -7109643.89146  23154956.597    23154964.6934
  21914832.082   -17554435.523 8 -13651295.87747  21914831.788    21914837.2854
 01  5 15  3 12 30.0000000  0  7 20 01 25 14 11 21 29
  22800296.875   -14333071.632 8 -10957419.00046  22800295.994    22800302.1894
  23798695.763    -7816508.868 8  -6062640.24445  23798695.276    23798704.5174
  20701311.222   -25671063.880 9 -19987550.53248  20701310.961    20701316.0844
  22630920.636   -14621488.622 8 -11351346.11046  22630920.090    22630925.2964
  21105229.175   -23169689.578 9 -17027547.35247  21105228.634    21105233.9734
  23168690.526    -9080541.128 8  -7053408.51045  23168689.909    23168698.0284
  21926409.053   -17493598.106 8 -13603890.11147  21926408.763    21926414.2564
 01  5 15  3 13  0.0000000  0  7 20 01 25 14 11 21 29
  22784527.044   -14415942.398 8 -11021993.57746  22784526.201    22784532.3994
  23784760.583    -7889738.643 8  -6119702.25845  23784759.984    23784769.1544
  20700964.551   -25672885.644 9 -19988970.07348  20700964.281    20700969.4154
  22645118.371   -14546878.942 8 -11293208.71046  22645117.811    22645123.0364
  21105335.562   -23169130.516 9 -17027111.72747  21105335.011    21105340.3674
  23182473.539    -9008110.920 8  -6996969.43845  23182472.988    23182481.1274
  21938003.904   -17432666.485 8 -13556410.93747  21938003.636    21938009.1584
 01  5 15  3 13 30.0000000  0  7 20 01 25 14 11 21 29
  22768771.416   -14498738.806 8 -11086510.21946  22768770.568    22768776.7454
  23770857.323    -7962799.876 8  -6176632.92745  23770856.759    23770865.8614
  20700718.953   -25674176.036 9 -19989975.55848  20700718.681    20700723.8314
  22659328.435   -14472204.648 8 -11235020.97746  22659327.863    22659333.0804
  21105551.663   -23167994.905 9 -17026226.84547  21105551.101    21105556.4784
  23196306.598    -8935418.033 8  -6940325.68645  23196306.011    23196314.1824
  21949616.828   -17371640.036 8 -13508857.87547  21949616.567    21949622.0974
 01  5 15  3 14  0.0000000  0  7 20 01 25 14 11 21 29
  22753029.572   -14581462.614 8 -11150970.28346  22753028.716    22753034.8854
  23756985.653    -8035695.431 8  -6233434.52045  23756985.132    23756994.1364
  20700573.911   -25674938.267 9 -19990569.48648  20700573.631    20700578.7564
  22673550.023   -14397469.933 8 -11176786.15446  22673549.448    22673554.6624
  21105876.805   -23166286.278 9 -17024895.45547  21105876.256    21105881.6074
  23210188.857    -8862466.299 8  -6883480.22445  23210188.291    23210196.4384
  21961246.958   -17310523.030 8 -13461234.24647  21961246.716    21961252.2984
 01  5 15  3 14 30.0000000  0  7 20 01 25 14 11 21 29
  22737302.137   -14664110.930 8 -11215371.53146  22737301.244    22737307.4244
  23743145.716    -8108423.671 8  -6290105.72945  23743145.183    23743154.2124
  20700529.588   -25675171.236 9 -19990751.00348  20700529.312    20700534.4024
  22687783.193   -14322674.311 8 -11118503.86746  22687782.605    22687787.7974
  21106311.312   -23164003.049 9 -17023116.32447  21106310.745    21106316.0914
  23224120.804    -8789253.929 8  -6826431.69145  23224120.196    23224128.3154
  21972894.529   -17249314.717 8 -13413539.46947  21972894.292    21972899.8934
 01  5 15  3 15  0.0000000  0  7 20 01 25 14 11 21 29
  22721589.369   -14746681.558 8 -11279712.24846  22721588.512    22721594.6874
  23729337.751    -8180984.208 8  -6346646.25745  23729337.262    23729346.2914
  20700586.004   -25674874.761 9 -19990519.96348  20700585.723    20700590.8014
  22702027.804   -14247818.404 8 -11060174.61046  22702027.263    22702032.4274
  21106855.195   -23161144.884 9 -17020889.19047  21106854.609    21106859.9844
  23238102.263    -8715780.942 8  -6769180.06745  23238101.677    23238109.7814
  21984559.413   -17188015.558 8 -13365773.89847  21984559.166    21984564.7364
 01  5 15  3 15 30.0000000  0  7 20 01 25 14 11 21 29
  22705891.604   -14829173.502 8 -11343991.66446  22705890.779    22705896.9504
  23715561.751    -8253377.212 8  -6403056.25245  23715561.209    23715570.2714
  20700742.948   -25674049.818 9 -19989877.13348  20700742.684    20700747.7454
  22716283.633   -14172903.548 8 -11001799.42046  22716283.084    22716288.2094
  21107508.414   -23157712.013 9 -17018214.23547  21107507.856    21107513.2314
  23252133.151    -8642048.102 8  -6711725.96145  23252132.563    23252140.7414
  21996241.334   -17126626.815 8 -13317938.52947  21996241.079    21996246.6184
 01  5 15  3 16  0.0000000  0  7 20 01 25 14 11 21 29
  22690209.188   -14911585.193 8 -11408208.53046  22690208.345    22690214.4454
  23701817.648    -8325602.356 8  -6459335.45645  23701817.103    23701826.1024
  20701000.454   -25672696.649 9 -19988822.70048  20701000.176    20701005.2534
  22730550.596   -14097930.393 8 -10943378.79346  22730550.028    22730555.1314
  21108270.985   -23153704.650 9 -17015091.62647  21108270.438    21108275.7974
  23266213.563    -8568055.378 8  -6654069.34945  23266212.966    23266221.2074
  22007940.163   -17065149.148 8 -13270033.86847  22007939.920    22007945.4474
 01  5 15  3 16 30.0000000  0  7 20 01 25 14 11 21 29
  22674542.283   -14993915.558 8 -11472362.03946  22674541.421    22674547.4374
  23688105.416    -8397660.241 8  -6515484.32345  23688104.866    23688113.8184
  20701358.345   -25670815.854 9 -19987357.12848  20701358.068    20701363.1284
  22744828.350   -14022900.555 8 -10884913.99246  22744827.803    22744832.8404
  21109142.755   -23149123.436 9 -17011521.85547  21109142.205    21109147.5894
  23280343.180    -8493803.608 8  -6596210.88045  23280342.654    23280350.8614
  22019655.618   -17003584.041 8 -13222061.07347  22019655.350    22019660.9044
 01  5 15  3 17  0.0000000  0  7 20 01 25 14 11 21 29
  22658891.156   -15076162.683 8 -11536450.67946  22658890.267    22658896.2604
  23674425.125    -8469550.102 8  -6571502.25945  23674424.617    23674433.4984
  20701816.631   -25668407.483 9 -19985480.45948  20701816.351    20701821.4064
  22759116.818   -13947814.422 8 -10826405.32946  22759116.252    22759121.2634
  21110123.848   -23143967.975 9 -17007504.62247  21110123.276    21110128.6894
  23294522.230    -8419292.649 8  -6538150.45645  23294521.678    23294529.9414
  22031387.666   -16941931.717 8 -13174020.31847  22031387.398    22031392.9624
 01  5 15  3 17 30.0000000  0  7 20 01 25 14 11 21 29
  22643256.036   -15158325.573 8 -11600473.69246  22643255.161    22643261.1234
  23660776.778    -8541272.366 8  -6627389.61345  23660776.206    23660785.0714
  20702375.039   -25665472.948 9 -19983193.79148  20702374.754    20702379.7844
  22773415.656   -13872673.481 8 -10767853.96646  22773415.063    22773420.1564
  21111213.982   -23138239.267 9 -17003040.70147  21111213.421    21111218.8344
  23308750.428    -8344523.359 8  -6479888.74345  23308749.808    23308758.1374
  22043136.014   -16880193.727 8 -13125912.80747  22043135.755    22043141.3154
 01  5 15  3 18  0.0000000  0  7 20 01 25 14 11 21 29
  22627637.308   -15240402.420 8 -11664429.64846  22627636.433    22627642.3954
  23647160.349    -8612826.897 8  -6683146.25645  23647159.782    23647168.4934
  20703033.563   -25662012.104 9 -19980497.01448  20703033.288    20703038.3204
  22787724.795   -13797478.376 8 -10709260.39646  22787724.207    22787729.3294
  21112413.205   -23131937.227 9 -16998130.02747  21112412.641    21112418.0804
  23323027.769    -8269495.427 8  -6421425.46545  23323027.194    23323035.5584
  22054900.561   -16818370.632 8 -13077738.98047  22054900.300    22054905.8414
 01  5 15  3 18 30.0000000  0  7 20 01 25 14 11 21 29
  22612035.240   -15322391.739 8 -11728317.41146  22612034.324    22612040.2824
  23633575.854    -8684213.377 8  -6738771.98145  23633575.236    23633583.9054
  20703792.105   -25658025.894 9 -19977390.86148  20703791.823    20703796.8564
  22802044.043   -13722230.201 8 -10650625.46446  22802043.494    22802048.6214
  21113721.524   -23125062.019 9 -16992772.72947  21113720.975    21113726.3874
  23337354.201    -8194209.490 8  -6362761.17345  23337353.617    23337362.0444
  22066681.177   -16756463.177 8 -13029499.41847  22066680.915    22066686.4554
 01  5 15  3 19  0.0000000  0  7 20 01 25 14 11 21 29
  22596450.047   -15404292.368 8 -11792136.06946  22596449.134    22596455.0754
  23620023.297    -8755432.283 8  -6794267.12245  23620022.669    23620031.1724
  20704650.516   -25653514.907 9 -19973875.79148  20704650.239    20704655.2614
  22816373.185   -13646930.086 8 -10591950.06946  22816372.604    22816377.7394
  21115138.761   -23117614.457 9 -16986969.44647  21115138.214    21115143.6464
  23351729.755    -8118666.166 8  -6303896.32045  23351729.134    23351737.5864
  22078477.575   -16694472.798 8 -12981195.24047  22078477.328    22078482.8454
 01  5 15  3 19 30.0000000  0  7 20 01 25 14 11 21 29
  22580882.082   -15486102.374 8 -11855884.10246  22580881.201    22580887.1404
  23606502.682    -8826482.992 8  -6849631.21245  23606502.069    23606510.5624
  20705608.784   -25648479.193 9 -19969951.84548  20705608.506    20705613.5134
  22830712.148   -13571578.543 8 -10533234.60646  22830711.557    22830716.6884
  21116664.951   -23109594.307 9 -16980719.98847  21116664.397    21116669.8234
  23366154.247    -8042865.443 8  -6244830.88845  23366153.588    23366161.9504
  22090289.718   -16632399.743 8 -12932826.63747  22090289.461    22090295.0184
 01  5 15  3 20  0.0000000  0  7 20 01 25 14 11 21 29
  22565331.585   -15567820.438 8 -11919560.49146  22565330.717    22565336.7024
  23593013.993    -8897365.847 8  -6904864.49745  23593013.357    23593021.8034
  20706666.765   -25642919.479 9 -19965619.58748  20706666.463    20706671.4784
  22845060.603   -13496176.991 8 -10474480.16746  22845060.004    22845065.1524
  21118299.930   -23101002.378 9 -16974024.98847  21118299.386    21118304.8014
  23380627.506    -7966808.171 8  -6185565.56045  23380626.829    23380635.2854
  22102117.308   -16570245.219 8 -12884394.56047  22102117.063    22102122.6344
 01  5 15  3 20 30.0000000  0  7 20 01 25 14 11 21 29
  22549798.995   -15649444.525 8 -11983163.65346  22549798.110    22549804.0854
  23579557.395    -8968080.364 8  -6959966.62645  23579556.773    23579565.2464
  20707824.347   -25636836.234 9 -19960879.38548  20707824.052    20707829.0864
  22859418.463   -13420725.816 8 -10415687.06446  22859417.894    22859423.0864
  21120043.701   -23091838.615 9 -16966884.41147  21120043.168    21120048.6024
  23395149.577    -7890494.046 8  -6126100.07345  23395148.975    23395157.4024
  22113960.411   -16508009.435 8 -12835899.15947  22113960.154    22113965.7534
 01  5 15  3 21  0.0000000  0  7 20 01 25 14 11 21 29
  22534284.448   -15730973.826 8 -12046692.94846  22534283.570    22534289.5934
  23566132.722    -9038627.057 8  -7014937.99945  23566132.116    23566140.5124
  20709081.353   -25630230.626 9 -19955732.14848  20709081.061    20709086.0874
  22873785.483   -13345226.471 8 -10356856.42546  22873784.929    22873790.1514
  21121896.099   -23082104.104 9 -16959299.09347  21121895.566    21121901.0194
  23409720.262    -7813924.379 8  -6066435.46845  23409719.688    23409728.1704
  22125818.640   -16445694.024 8 -12787341.70447  22125818.375    22125824.0114
 01  5 15  3 21 30.0000000  0  7 20 01 25 14 11 21 29
  22518788.381   -15812406.059 8 -12110146.60246  22518787.547    22518793.5344
  23552740.167    -9109005.318 8  -7069778.11946  23552739.588    23552747.8954
  20710437.724   -25623102.766 9 -19950177.95848  20710437.442    20710442.4524
  22888161.690   -13269679.025 8 -10297988.30846  22888161.135    22888166.3824
  21123857.232   -23071798.567 9 -16951268.81947  21123856.708    21123862.1344
  23424339.901    -7737098.122 8  -6006570.90845  23424339.337    23424347.8484
  22137692.010   -16383299.091 8 -12738722.28947  22137691.745    22137697.3604
 01  5 15  3 22  0.0000000  0  7 20 01 25 14 11 21 29
  22503310.938   -15893740.505 8 -12173524.04846  22503310.082    22503316.1124
  23539379.449    -9179216.049 8  -7124487.70746  23539378.887    23539387.1364
  20711893.180   -25615454.230 9 -19944218.05248  20711892.895    20711897.8944
  22902546.644   -13194085.731 8 -10239084.47046  22902546.068    22902551.2894
  21125926.720   -23060923.478 9 -16942794.74347  21125926.185    21125931.6184
  23439007.980    -7660017.308 8  -5946508.01645  23439007.452    23439015.8854
  22149580.183   -16320826.424 8 -12690042.30047  22149579.915    22149585.5114
